<?xml version="1.0" encoding="UTF-8" standalone="no" ?>
<gpx xmlns="http://www.topografix.com/GPX/1/1" xmlns:xsi="http://www.w3.org/2001/XMLSchema-instance" xsi:schemaLocation="http://www.topografix.com/GPX/1/1 http://www.topografix.com/GPX/1/1/gpx.xsd" version="1.1" creator="VisuGPX - https://www.visugpx.com">
  <metadata>
    <name>GR65 de Conques à Livinhac le Haut </name>
    <desc><![CDATA[Variante qui évite Decazeville en passant par la route des crêtes sur les conseils de Christian, l\'Hospitalier de Prayssac]]></desc>
  </metadata>
  <trk>
    <name><![CDATA[ACTIVE LOG085057]]></name>
    <trkseg>
      <trkpt lat="44.59921" lon="2.39699">
        <ele>264.389</ele>
        <time>2013-06-24T06:50:55Z</time>
      </trkpt>
      <trkpt lat="44.59921" lon="2.39699">
        <ele>264.389</ele>
        <time>2013-06-24T06:50:57Z</time>
      </trkpt>
      <trkpt lat="44.59922" lon="2.39698">
        <ele>270.091</ele>
        <time>2013-06-24T06:50:58Z</time>
      </trkpt>
      <trkpt lat="44.59923" lon="2.39697">
        <ele>269.615</ele>
        <time>2013-06-24T06:50:59Z</time>
      </trkpt>
      <trkpt lat="44.59923" lon="2.39698">
        <ele>272.796</ele>
        <time>2013-06-24T06:51:02Z</time>
      </trkpt>
      <trkpt lat="44.59921" lon="2.39699">
        <ele>276.378</ele>
        <time>2013-06-24T06:51:05Z</time>
      </trkpt>
      <trkpt lat="44.5992" lon="2.397">
        <ele>280.07</ele>
        <time>2013-06-24T06:51:09Z</time>
      </trkpt>
      <trkpt lat="44.5992" lon="2.397">
        <ele>283.314</ele>
        <time>2013-06-24T06:51:13Z</time>
      </trkpt>
      <trkpt lat="44.5992" lon="2.397">
        <ele>286.901</ele>
        <time>2013-06-24T06:51:18Z</time>
      </trkpt>
      <trkpt lat="44.5992" lon="2.397">
        <ele>288.734</ele>
        <time>2013-06-24T06:51:21Z</time>
      </trkpt>
      <trkpt lat="44.5992" lon="2.397">
        <ele>290.22</ele>
        <time>2013-06-24T06:51:23Z</time>
      </trkpt>
      <trkpt lat="44.59921" lon="2.39701">
        <ele>292.822</ele>
        <time>2013-06-24T06:51:28Z</time>
      </trkpt>
      <trkpt lat="44.59921" lon="2.39702">
        <ele>294.035</ele>
        <time>2013-06-24T06:51:30Z</time>
      </trkpt>
      <trkpt lat="44.5992" lon="2.39702">
        <ele>297.11</ele>
        <time>2013-06-24T06:51:39Z</time>
      </trkpt>
      <trkpt lat="44.5992" lon="2.39701">
        <ele>298.133</ele>
        <time>2013-06-24T06:51:41Z</time>
      </trkpt>
      <trkpt lat="44.59922" lon="2.39703">
        <ele>301.432</ele>
        <time>2013-06-24T06:51:54Z</time>
      </trkpt>
      <trkpt lat="44.59926" lon="2.39705">
        <ele>300.853</ele>
        <time>2013-06-24T06:52:15Z</time>
      </trkpt>
      <trkpt lat="44.59916" lon="2.39711">
        <ele>300.564</ele>
        <time>2013-06-24T06:52:29Z</time>
      </trkpt>
      <trkpt lat="44.59925" lon="2.39693">
        <ele>301.076</ele>
        <time>2013-06-24T06:53:10Z</time>
      </trkpt>
      <trkpt lat="44.59917" lon="2.3969">
        <ele>300.153</ele>
        <time>2013-06-24T06:53:24Z</time>
      </trkpt>
      <trkpt lat="44.59912" lon="2.39687">
        <ele>299.68</ele>
        <time>2013-06-24T06:53:28Z</time>
      </trkpt>
      <trkpt lat="44.5991" lon="2.39683">
        <ele>298.773</ele>
        <time>2013-06-24T06:53:32Z</time>
      </trkpt>
      <trkpt lat="44.59905" lon="2.39672">
        <ele>297.46</ele>
        <time>2013-06-24T06:53:43Z</time>
      </trkpt>
      <trkpt lat="44.59899" lon="2.39652">
        <ele>295.706</ele>
        <time>2013-06-24T06:53:58Z</time>
      </trkpt>
      <trkpt lat="44.59889" lon="2.39645">
        <ele>294.339</ele>
        <time>2013-06-24T06:54:15Z</time>
      </trkpt>
      <trkpt lat="44.59883" lon="2.39641">
        <ele>293.092</ele>
        <time>2013-06-24T06:54:31Z</time>
      </trkpt>
      <trkpt lat="44.5988" lon="2.39626">
        <ele>291.675</ele>
        <time>2013-06-24T06:54:42Z</time>
      </trkpt>
      <trkpt lat="44.59882" lon="2.39618">
        <ele>291.177</ele>
        <time>2013-06-24T06:54:47Z</time>
      </trkpt>
      <trkpt lat="44.59887" lon="2.39585">
        <ele>289.822</ele>
        <time>2013-06-24T06:55:06Z</time>
      </trkpt>
      <trkpt lat="44.59885" lon="2.39568">
        <ele>286.537</ele>
        <time>2013-06-24T06:55:19Z</time>
      </trkpt>
      <trkpt lat="44.59885" lon="2.39554">
        <ele>284.598</ele>
        <time>2013-06-24T06:55:28Z</time>
      </trkpt>
      <trkpt lat="44.59861" lon="2.39529">
        <ele>281.48</ele>
        <time>2013-06-24T06:55:53Z</time>
      </trkpt>
      <trkpt lat="44.5985" lon="2.39502">
        <ele>278.751</ele>
        <time>2013-06-24T06:56:14Z</time>
      </trkpt>
      <trkpt lat="44.59841" lon="2.39486">
        <ele>275.743</ele>
        <time>2013-06-24T06:56:29Z</time>
      </trkpt>
      <trkpt lat="44.59841" lon="2.39485">
        <ele>275.839</ele>
        <time>2013-06-24T06:56:30Z</time>
      </trkpt>
      <trkpt lat="44.59835" lon="2.39472">
        <ele>273.184</ele>
        <time>2013-06-24T06:56:45Z</time>
      </trkpt>
      <trkpt lat="44.59825" lon="2.3946">
        <ele>270.173</ele>
        <time>2013-06-24T06:57:00Z</time>
      </trkpt>
      <trkpt lat="44.59819" lon="2.39446">
        <ele>267.944</ele>
        <time>2013-06-24T06:57:14Z</time>
      </trkpt>
      <trkpt lat="44.59818" lon="2.39433">
        <ele>264.898</ele>
        <time>2013-06-24T06:57:26Z</time>
      </trkpt>
      <trkpt lat="44.59816" lon="2.3941">
        <ele>262.369</ele>
        <time>2013-06-24T06:57:45Z</time>
      </trkpt>
      <trkpt lat="44.5982" lon="2.39397">
        <ele>258.964</ele>
        <time>2013-06-24T06:57:54Z</time>
      </trkpt>
      <trkpt lat="44.59822" lon="2.39393">
        <ele>258.19</ele>
        <time>2013-06-24T06:57:58Z</time>
      </trkpt>
      <trkpt lat="44.59814" lon="2.39385">
        <ele>256.063</ele>
        <time>2013-06-24T06:58:20Z</time>
      </trkpt>
      <trkpt lat="44.59822" lon="2.39368">
        <ele>254.954</ele>
        <time>2013-06-24T06:58:33Z</time>
      </trkpt>
      <trkpt lat="44.59825" lon="2.39355">
        <ele>251.29</ele>
        <time>2013-06-24T06:58:48Z</time>
      </trkpt>
      <trkpt lat="44.59812" lon="2.39352">
        <ele>248.086</ele>
        <time>2013-06-24T06:59:04Z</time>
      </trkpt>
      <trkpt lat="44.59812" lon="2.3934">
        <ele>245.912</ele>
        <time>2013-06-24T06:59:18Z</time>
      </trkpt>
      <trkpt lat="44.59815" lon="2.39324">
        <ele>244.475</ele>
        <time>2013-06-24T06:59:31Z</time>
      </trkpt>
      <trkpt lat="44.59817" lon="2.39309">
        <ele>241.883</ele>
        <time>2013-06-24T06:59:43Z</time>
      </trkpt>
      <trkpt lat="44.59823" lon="2.393">
        <ele>240.394</ele>
        <time>2013-06-24T06:59:50Z</time>
      </trkpt>
      <trkpt lat="44.59825" lon="2.39285">
        <ele>239.616</ele>
        <time>2013-06-24T07:00:02Z</time>
      </trkpt>
      <trkpt lat="44.5982" lon="2.39271">
        <ele>238.943</ele>
        <time>2013-06-24T07:00:16Z</time>
      </trkpt>
      <trkpt lat="44.59824" lon="2.39249">
        <ele>237.517</ele>
        <time>2013-06-24T07:00:33Z</time>
      </trkpt>
      <trkpt lat="44.59827" lon="2.39228">
        <ele>236.843</ele>
        <time>2013-06-24T07:00:53Z</time>
      </trkpt>
      <trkpt lat="44.59826" lon="2.39231">
        <ele>236.982</ele>
        <time>2013-06-24T07:01:09Z</time>
      </trkpt>
      <trkpt lat="44.59835" lon="2.39222">
        <ele>235.423</ele>
        <time>2013-06-24T07:03:13Z</time>
      </trkpt>
      <trkpt lat="44.59829" lon="2.39229">
        <ele>236.587</ele>
        <time>2013-06-24T07:03:26Z</time>
      </trkpt>
      <trkpt lat="44.59823" lon="2.39184">
        <ele>239.092</ele>
        <time>2013-06-24T07:03:50Z</time>
      </trkpt>
      <trkpt lat="44.59816" lon="2.39158">
        <ele>239.529</ele>
        <time>2013-06-24T07:04:14Z</time>
      </trkpt>
      <trkpt lat="44.59811" lon="2.3914">
        <ele>242.562</ele>
        <time>2013-06-24T07:04:30Z</time>
      </trkpt>
      <trkpt lat="44.59796" lon="2.39119">
        <ele>243.518</ele>
        <time>2013-06-24T07:04:51Z</time>
      </trkpt>
      <trkpt lat="44.59783" lon="2.39112">
        <ele>245.45</ele>
        <time>2013-06-24T07:05:03Z</time>
      </trkpt>
      <trkpt lat="44.59775" lon="2.39106">
        <ele>246.925</ele>
        <time>2013-06-24T07:05:17Z</time>
      </trkpt>
      <trkpt lat="44.59777" lon="2.39094">
        <ele>247.461</ele>
        <time>2013-06-24T07:05:31Z</time>
      </trkpt>
      <trkpt lat="44.59778" lon="2.39094">
        <ele>249.819</ele>
        <time>2013-06-24T07:05:51Z</time>
      </trkpt>
      <trkpt lat="44.59773" lon="2.39097">
        <ele>250.876</ele>
        <time>2013-06-24T07:06:04Z</time>
      </trkpt>
      <trkpt lat="44.59767" lon="2.39087">
        <ele>252.554</ele>
        <time>2013-06-24T07:06:18Z</time>
      </trkpt>
      <trkpt lat="44.59759" lon="2.39077">
        <ele>255.176</ele>
        <time>2013-06-24T07:06:39Z</time>
      </trkpt>
      <trkpt lat="44.59754" lon="2.39073">
        <ele>256.704</ele>
        <time>2013-06-24T07:06:56Z</time>
      </trkpt>
      <trkpt lat="44.59751" lon="2.39067">
        <ele>258.223</ele>
        <time>2013-06-24T07:07:13Z</time>
      </trkpt>
      <trkpt lat="44.59752" lon="2.39074">
        <ele>260.303</ele>
        <time>2013-06-24T07:07:32Z</time>
      </trkpt>
      <trkpt lat="44.59753" lon="2.39065">
        <ele>263.316</ele>
        <time>2013-06-24T07:07:49Z</time>
      </trkpt>
      <trkpt lat="44.59752" lon="2.39062">
        <ele>265.454</ele>
        <time>2013-06-24T07:08:06Z</time>
      </trkpt>
      <trkpt lat="44.59747" lon="2.39058">
        <ele>267.992</ele>
        <time>2013-06-24T07:08:23Z</time>
      </trkpt>
      <trkpt lat="44.59747" lon="2.39049">
        <ele>271.589</ele>
        <time>2013-06-24T07:08:49Z</time>
      </trkpt>
      <trkpt lat="44.59744" lon="2.39043">
        <ele>272.779</ele>
        <time>2013-06-24T07:09:05Z</time>
      </trkpt>
      <trkpt lat="44.59737" lon="2.39041">
        <ele>273.859</ele>
        <time>2013-06-24T07:09:19Z</time>
      </trkpt>
      <trkpt lat="44.59734" lon="2.39037">
        <ele>275.873</ele>
        <time>2013-06-24T07:09:36Z</time>
      </trkpt>
      <trkpt lat="44.59733" lon="2.3903">
        <ele>277.428</ele>
        <time>2013-06-24T07:09:51Z</time>
      </trkpt>
      <trkpt lat="44.59728" lon="2.39021">
        <ele>278.963</ele>
        <time>2013-06-24T07:10:05Z</time>
      </trkpt>
      <trkpt lat="44.59723" lon="2.39027">
        <ele>280.928</ele>
        <time>2013-06-24T07:10:22Z</time>
      </trkpt>
      <trkpt lat="44.59721" lon="2.39028">
        <ele>284.006</ele>
        <time>2013-06-24T07:10:39Z</time>
      </trkpt>
      <trkpt lat="44.59716" lon="2.39026">
        <ele>285.306</ele>
        <time>2013-06-24T07:10:53Z</time>
      </trkpt>
      <trkpt lat="44.59718" lon="2.39037">
        <ele>287.392</ele>
        <time>2013-06-24T07:11:11Z</time>
      </trkpt>
      <trkpt lat="44.59715" lon="2.39038">
        <ele>288.735</ele>
        <time>2013-06-24T07:11:18Z</time>
      </trkpt>
      <trkpt lat="44.59708" lon="2.39035">
        <ele>291.542</ele>
        <time>2013-06-24T07:11:37Z</time>
      </trkpt>
      <trkpt lat="44.59702" lon="2.39025">
        <ele>292.577</ele>
        <time>2013-06-24T07:11:54Z</time>
      </trkpt>
      <trkpt lat="44.59699" lon="2.39024">
        <ele>293.404</ele>
        <time>2013-06-24T07:12:00Z</time>
      </trkpt>
      <trkpt lat="44.59697" lon="2.39021">
        <ele>294.433</ele>
        <time>2013-06-24T07:12:15Z</time>
      </trkpt>
      <trkpt lat="44.59699" lon="2.39015">
        <ele>295.57</ele>
        <time>2013-06-24T07:12:30Z</time>
      </trkpt>
      <trkpt lat="44.59697" lon="2.39008">
        <ele>297.789</ele>
        <time>2013-06-24T07:12:46Z</time>
      </trkpt>
      <trkpt lat="44.59695" lon="2.39002">
        <ele>299.283</ele>
        <time>2013-06-24T07:13:01Z</time>
      </trkpt>
      <trkpt lat="44.59691" lon="2.38996">
        <ele>301.44</ele>
        <time>2013-06-24T07:13:15Z</time>
      </trkpt>
      <trkpt lat="44.59686" lon="2.38991">
        <ele>303.246</ele>
        <time>2013-06-24T07:13:28Z</time>
      </trkpt>
      <trkpt lat="44.59685" lon="2.38984">
        <ele>304.205</ele>
        <time>2013-06-24T07:13:43Z</time>
      </trkpt>
      <trkpt lat="44.59686" lon="2.38977">
        <ele>306.639</ele>
        <time>2013-06-24T07:14:04Z</time>
      </trkpt>
      <trkpt lat="44.59681" lon="2.3897">
        <ele>308.146</ele>
        <time>2013-06-24T07:14:17Z</time>
      </trkpt>
      <trkpt lat="44.59678" lon="2.3897">
        <ele>309.367</ele>
        <time>2013-06-24T07:14:31Z</time>
      </trkpt>
      <trkpt lat="44.59681" lon="2.3897">
        <ele>309.596</ele>
        <time>2013-06-24T07:15:07Z</time>
      </trkpt>
      <trkpt lat="44.59681" lon="2.38965">
        <ele>310.66</ele>
        <time>2013-06-24T07:15:38Z</time>
      </trkpt>
      <trkpt lat="44.59686" lon="2.38958">
        <ele>312.605</ele>
        <time>2013-06-24T07:15:54Z</time>
      </trkpt>
      <trkpt lat="44.59681" lon="2.38954">
        <ele>315.529</ele>
        <time>2013-06-24T07:16:10Z</time>
      </trkpt>
      <trkpt lat="44.59673" lon="2.38956">
        <ele>316.897</ele>
        <time>2013-06-24T07:16:23Z</time>
      </trkpt>
      <trkpt lat="44.59676" lon="2.38952">
        <ele>318.444</ele>
        <time>2013-06-24T07:16:39Z</time>
      </trkpt>
      <trkpt lat="44.59677" lon="2.38948">
        <ele>321.027</ele>
        <time>2013-06-24T07:16:57Z</time>
      </trkpt>
      <trkpt lat="44.59674" lon="2.38943">
        <ele>322.513</ele>
        <time>2013-06-24T07:17:13Z</time>
      </trkpt>
      <trkpt lat="44.59671" lon="2.38936">
        <ele>323.7</ele>
        <time>2013-06-24T07:17:28Z</time>
      </trkpt>
      <trkpt lat="44.5967" lon="2.38926">
        <ele>326.317</ele>
        <time>2013-06-24T07:17:45Z</time>
      </trkpt>
      <trkpt lat="44.59668" lon="2.38916">
        <ele>328.309</ele>
        <time>2013-06-24T07:18:02Z</time>
      </trkpt>
      <trkpt lat="44.59665" lon="2.38906">
        <ele>329.149</ele>
        <time>2013-06-24T07:18:16Z</time>
      </trkpt>
      <trkpt lat="44.59667" lon="2.38895">
        <ele>331.295</ele>
        <time>2013-06-24T07:18:35Z</time>
      </trkpt>
      <trkpt lat="44.59668" lon="2.38884">
        <ele>332.049</ele>
        <time>2013-06-24T07:18:51Z</time>
      </trkpt>
      <trkpt lat="44.59665" lon="2.38874">
        <ele>333.669</ele>
        <time>2013-06-24T07:19:06Z</time>
      </trkpt>
      <trkpt lat="44.59659" lon="2.38867">
        <ele>334.948</ele>
        <time>2013-06-24T07:19:29Z</time>
      </trkpt>
      <trkpt lat="44.59653" lon="2.38858">
        <ele>336.06</ele>
        <time>2013-06-24T07:19:43Z</time>
      </trkpt>
      <trkpt lat="44.59652" lon="2.38848">
        <ele>338.399</ele>
        <time>2013-06-24T07:20:00Z</time>
      </trkpt>
      <trkpt lat="44.59653" lon="2.38843">
        <ele>339.299</ele>
        <time>2013-06-24T07:20:14Z</time>
      </trkpt>
      <trkpt lat="44.59654" lon="2.38837">
        <ele>340.976</ele>
        <time>2013-06-24T07:20:29Z</time>
      </trkpt>
      <trkpt lat="44.59653" lon="2.38832">
        <ele>344.16</ele>
        <time>2013-06-24T07:20:41Z</time>
      </trkpt>
      <trkpt lat="44.5965" lon="2.38824">
        <ele>345.127</ele>
        <time>2013-06-24T07:20:58Z</time>
      </trkpt>
      <trkpt lat="44.5965" lon="2.38816">
        <ele>346.946</ele>
        <time>2013-06-24T07:21:16Z</time>
      </trkpt>
      <trkpt lat="44.59644" lon="2.38808">
        <ele>349.057</ele>
        <time>2013-06-24T07:21:32Z</time>
      </trkpt>
      <trkpt lat="44.59645" lon="2.388">
        <ele>350.393</ele>
        <time>2013-06-24T07:21:46Z</time>
      </trkpt>
      <trkpt lat="44.59644" lon="2.38792">
        <ele>353.769</ele>
        <time>2013-06-24T07:22:00Z</time>
      </trkpt>
      <trkpt lat="44.5964" lon="2.38781">
        <ele>355.508</ele>
        <time>2013-06-24T07:22:18Z</time>
      </trkpt>
      <trkpt lat="44.59637" lon="2.38777">
        <ele>355.563</ele>
        <time>2013-06-24T07:22:32Z</time>
      </trkpt>
      <trkpt lat="44.59635" lon="2.38769">
        <ele>357.206</ele>
        <time>2013-06-24T07:22:49Z</time>
      </trkpt>
      <trkpt lat="44.59635" lon="2.38756">
        <ele>359.077</ele>
        <time>2013-06-24T07:23:07Z</time>
      </trkpt>
      <trkpt lat="44.59635" lon="2.38751">
        <ele>360.095</ele>
        <time>2013-06-24T07:23:23Z</time>
      </trkpt>
      <trkpt lat="44.59638" lon="2.38743">
        <ele>362.226</ele>
        <time>2013-06-24T07:23:38Z</time>
      </trkpt>
      <trkpt lat="44.59635" lon="2.38736">
        <ele>362.772</ele>
        <time>2013-06-24T07:23:51Z</time>
      </trkpt>
      <trkpt lat="44.59628" lon="2.38736">
        <ele>365.801</ele>
        <time>2013-06-24T07:24:07Z</time>
      </trkpt>
      <trkpt lat="44.59625" lon="2.38741">
        <ele>367.845</ele>
        <time>2013-06-24T07:24:24Z</time>
      </trkpt>
      <trkpt lat="44.59622" lon="2.38739">
        <ele>369.752</ele>
        <time>2013-06-24T07:24:40Z</time>
      </trkpt>
      <trkpt lat="44.5962" lon="2.38735">
        <ele>371.813</ele>
        <time>2013-06-24T07:24:55Z</time>
      </trkpt>
      <trkpt lat="44.59622" lon="2.38726">
        <ele>373.535</ele>
        <time>2013-06-24T07:25:10Z</time>
      </trkpt>
      <trkpt lat="44.59622" lon="2.3872">
        <ele>375.402</ele>
        <time>2013-06-24T07:25:24Z</time>
      </trkpt>
      <trkpt lat="44.59623" lon="2.38713">
        <ele>376.529</ele>
        <time>2013-06-24T07:25:44Z</time>
      </trkpt>
      <trkpt lat="44.59623" lon="2.38707">
        <ele>378.333</ele>
        <time>2013-06-24T07:25:58Z</time>
      </trkpt>
      <trkpt lat="44.59624" lon="2.38701">
        <ele>381.086</ele>
        <time>2013-06-24T07:26:16Z</time>
      </trkpt>
      <trkpt lat="44.59619" lon="2.38701">
        <ele>382.015</ele>
        <time>2013-06-24T07:26:32Z</time>
      </trkpt>
      <trkpt lat="44.59617" lon="2.387">
        <ele>382.309</ele>
        <time>2013-06-24T07:26:51Z</time>
      </trkpt>
      <trkpt lat="44.59613" lon="2.38708">
        <ele>382.456</ele>
        <time>2013-06-24T07:27:18Z</time>
      </trkpt>
      <trkpt lat="44.59609" lon="2.38715">
        <ele>381.879</ele>
        <time>2013-06-24T07:27:36Z</time>
      </trkpt>
      <trkpt lat="44.5962" lon="2.38717">
        <ele>383.137</ele>
        <time>2013-06-24T07:28:20Z</time>
      </trkpt>
      <trkpt lat="44.59606" lon="2.38726">
        <ele>383.688</ele>
        <time>2013-06-24T07:29:12Z</time>
      </trkpt>
      <trkpt lat="44.59613" lon="2.38708">
        <ele>383.41</ele>
        <time>2013-06-24T07:29:32Z</time>
      </trkpt>
      <trkpt lat="44.59614" lon="2.38706">
        <ele>383.318</ele>
        <time>2013-06-24T07:29:41Z</time>
      </trkpt>
      <trkpt lat="44.59613" lon="2.38707">
        <ele>383.855</ele>
        <time>2013-06-24T07:29:54Z</time>
      </trkpt>
      <trkpt lat="44.59603" lon="2.3873">
        <ele>383.762</ele>
        <time>2013-06-24T07:30:10Z</time>
      </trkpt>
      <trkpt lat="44.59603" lon="2.38716">
        <ele>384.088</ele>
        <time>2013-06-24T07:30:32Z</time>
      </trkpt>
      <trkpt lat="44.59603" lon="2.38712">
        <ele>383.96</ele>
        <time>2013-06-24T07:30:47Z</time>
      </trkpt>
      <trkpt lat="44.59605" lon="2.38709">
        <ele>384.266</ele>
        <time>2013-06-24T07:30:49Z</time>
      </trkpt>
      <trkpt lat="44.59609" lon="2.38715">
        <ele>383.676</ele>
        <time>2013-06-24T07:31:10Z</time>
      </trkpt>
      <trkpt lat="44.59612" lon="2.38716">
        <ele>383.603</ele>
        <time>2013-06-24T07:31:41Z</time>
      </trkpt>
      <trkpt lat="44.59601" lon="2.38703">
        <ele>384.284</ele>
        <time>2013-06-24T07:32:33Z</time>
      </trkpt>
      <trkpt lat="44.59614" lon="2.38709">
        <ele>383.762</ele>
        <time>2013-06-24T07:33:07Z</time>
      </trkpt>
      <trkpt lat="44.59614" lon="2.38696">
        <ele>381.984</ele>
        <time>2013-06-24T07:34:46Z</time>
      </trkpt>
      <trkpt lat="44.5961" lon="2.38715">
        <ele>382.522</ele>
        <time>2013-06-24T07:35:31Z</time>
      </trkpt>
      <trkpt lat="44.59613" lon="2.38697">
        <ele>383.068</ele>
        <time>2013-06-24T07:36:10Z</time>
      </trkpt>
      <trkpt lat="44.59613" lon="2.38688">
        <ele>384.322</ele>
        <time>2013-06-24T07:36:22Z</time>
      </trkpt>
      <trkpt lat="44.59612" lon="2.38682">
        <ele>386.445</ele>
        <time>2013-06-24T07:36:38Z</time>
      </trkpt>
      <trkpt lat="44.59607" lon="2.38686">
        <ele>388.466</ele>
        <time>2013-06-24T07:36:54Z</time>
      </trkpt>
      <trkpt lat="44.59605" lon="2.38695">
        <ele>390.153</ele>
        <time>2013-06-24T07:37:10Z</time>
      </trkpt>
      <trkpt lat="44.59603" lon="2.38701">
        <ele>390.68</ele>
        <time>2013-06-24T07:37:25Z</time>
      </trkpt>
      <trkpt lat="44.59604" lon="2.38699">
        <ele>390.927</ele>
        <time>2013-06-24T07:37:43Z</time>
      </trkpt>
      <trkpt lat="44.59601" lon="2.38701">
        <ele>390.913</ele>
        <time>2013-06-24T07:38:17Z</time>
      </trkpt>
      <trkpt lat="44.59602" lon="2.38702">
        <ele>390.921</ele>
        <time>2013-06-24T07:38:54Z</time>
      </trkpt>
      <trkpt lat="44.59602" lon="2.38701">
        <ele>391.086</ele>
        <time>2013-06-24T07:39:42Z</time>
      </trkpt>
      <trkpt lat="44.59598" lon="2.38706">
        <ele>391.026</ele>
        <time>2013-06-24T07:40:57Z</time>
      </trkpt>
      <trkpt lat="44.59593" lon="2.38711">
        <ele>393.053</ele>
        <time>2013-06-24T07:41:17Z</time>
      </trkpt>
      <trkpt lat="44.59589" lon="2.38725">
        <ele>395.766</ele>
        <time>2013-06-24T07:41:35Z</time>
      </trkpt>
      <trkpt lat="44.59583" lon="2.38733">
        <ele>396.919</ele>
        <time>2013-06-24T07:41:53Z</time>
      </trkpt>
      <trkpt lat="44.59583" lon="2.38738">
        <ele>398.95</ele>
        <time>2013-06-24T07:42:09Z</time>
      </trkpt>
      <trkpt lat="44.59579" lon="2.38746">
        <ele>401.816</ele>
        <time>2013-06-24T07:42:24Z</time>
      </trkpt>
      <trkpt lat="44.59575" lon="2.38757">
        <ele>402.343</ele>
        <time>2013-06-24T07:42:42Z</time>
      </trkpt>
      <trkpt lat="44.5957" lon="2.38764">
        <ele>404.53</ele>
        <time>2013-06-24T07:42:59Z</time>
      </trkpt>
      <trkpt lat="44.59568" lon="2.38773">
        <ele>406.14</ele>
        <time>2013-06-24T07:43:16Z</time>
      </trkpt>
      <trkpt lat="44.59565" lon="2.38781">
        <ele>407.865</ele>
        <time>2013-06-24T07:43:31Z</time>
      </trkpt>
      <trkpt lat="44.59565" lon="2.3879">
        <ele>410.247</ele>
        <time>2013-06-24T07:43:49Z</time>
      </trkpt>
      <trkpt lat="44.59565" lon="2.388">
        <ele>412.324</ele>
        <time>2013-06-24T07:44:06Z</time>
      </trkpt>
      <trkpt lat="44.59562" lon="2.38813">
        <ele>413.841</ele>
        <time>2013-06-24T07:44:23Z</time>
      </trkpt>
      <trkpt lat="44.59562" lon="2.38821">
        <ele>415.391</ele>
        <time>2013-06-24T07:44:38Z</time>
      </trkpt>
      <trkpt lat="44.59558" lon="2.38831">
        <ele>416.913</ele>
        <time>2013-06-24T07:44:52Z</time>
      </trkpt>
      <trkpt lat="44.59556" lon="2.38838">
        <ele>418.852</ele>
        <time>2013-06-24T07:45:10Z</time>
      </trkpt>
      <trkpt lat="44.59554" lon="2.38844">
        <ele>421.977</ele>
        <time>2013-06-24T07:45:24Z</time>
      </trkpt>
      <trkpt lat="44.59551" lon="2.38852">
        <ele>423.455</ele>
        <time>2013-06-24T07:45:41Z</time>
      </trkpt>
      <trkpt lat="44.59548" lon="2.3886">
        <ele>425.977</ele>
        <time>2013-06-24T07:46:00Z</time>
      </trkpt>
      <trkpt lat="44.59545" lon="2.38869">
        <ele>427.874</ele>
        <time>2013-06-24T07:46:17Z</time>
      </trkpt>
      <trkpt lat="44.59544" lon="2.38879">
        <ele>429.961</ele>
        <time>2013-06-24T07:46:34Z</time>
      </trkpt>
      <trkpt lat="44.59541" lon="2.38891">
        <ele>432.181</ele>
        <time>2013-06-24T07:46:50Z</time>
      </trkpt>
      <trkpt lat="44.59538" lon="2.38904">
        <ele>433.748</ele>
        <time>2013-06-24T07:47:08Z</time>
      </trkpt>
      <trkpt lat="44.5953" lon="2.38909">
        <ele>435.536</ele>
        <time>2013-06-24T07:47:26Z</time>
      </trkpt>
      <trkpt lat="44.59519" lon="2.38908">
        <ele>437.026</ele>
        <time>2013-06-24T07:47:45Z</time>
      </trkpt>
      <trkpt lat="44.59513" lon="2.38912">
        <ele>438.458</ele>
        <time>2013-06-24T07:47:58Z</time>
      </trkpt>
      <trkpt lat="44.59503" lon="2.38911">
        <ele>441.078</ele>
        <time>2013-06-24T07:48:15Z</time>
      </trkpt>
      <trkpt lat="44.59493" lon="2.3891">
        <ele>442.447</ele>
        <time>2013-06-24T07:48:32Z</time>
      </trkpt>
      <trkpt lat="44.59484" lon="2.38907">
        <ele>444.423</ele>
        <time>2013-06-24T07:48:49Z</time>
      </trkpt>
      <trkpt lat="44.59476" lon="2.38902">
        <ele>445.952</ele>
        <time>2013-06-24T07:49:04Z</time>
      </trkpt>
      <trkpt lat="44.59466" lon="2.38895">
        <ele>447.808</ele>
        <time>2013-06-24T07:49:21Z</time>
      </trkpt>
      <trkpt lat="44.59459" lon="2.38888">
        <ele>451.166</ele>
        <time>2013-06-24T07:49:40Z</time>
      </trkpt>
      <trkpt lat="44.59454" lon="2.38883">
        <ele>453.176</ele>
        <time>2013-06-24T07:49:54Z</time>
      </trkpt>
      <trkpt lat="44.59446" lon="2.38877">
        <ele>455.913</ele>
        <time>2013-06-24T07:50:12Z</time>
      </trkpt>
      <trkpt lat="44.59437" lon="2.38872">
        <ele>457.162</ele>
        <time>2013-06-24T07:50:30Z</time>
      </trkpt>
      <trkpt lat="44.59435" lon="2.3887">
        <ele>458.214</ele>
        <time>2013-06-24T07:50:47Z</time>
      </trkpt>
      <trkpt lat="44.59426" lon="2.38862">
        <ele>460.042</ele>
        <time>2013-06-24T07:51:07Z</time>
      </trkpt>
      <trkpt lat="44.59422" lon="2.3886">
        <ele>460.933</ele>
        <time>2013-06-24T07:51:20Z</time>
      </trkpt>
      <trkpt lat="44.59416" lon="2.38859">
        <ele>463.992</ele>
        <time>2013-06-24T07:51:34Z</time>
      </trkpt>
      <trkpt lat="44.59408" lon="2.38855">
        <ele>465.408</ele>
        <time>2013-06-24T07:51:51Z</time>
      </trkpt>
      <trkpt lat="44.59399" lon="2.38852">
        <ele>468.341</ele>
        <time>2013-06-24T07:52:09Z</time>
      </trkpt>
      <trkpt lat="44.59391" lon="2.38845">
        <ele>469.728</ele>
        <time>2013-06-24T07:52:25Z</time>
      </trkpt>
      <trkpt lat="44.59385" lon="2.38839">
        <ele>471.412</ele>
        <time>2013-06-24T07:52:41Z</time>
      </trkpt>
      <trkpt lat="44.59378" lon="2.38832">
        <ele>472.99</ele>
        <time>2013-06-24T07:52:55Z</time>
      </trkpt>
      <trkpt lat="44.59372" lon="2.38826">
        <ele>474.705</ele>
        <time>2013-06-24T07:53:14Z</time>
      </trkpt>
      <trkpt lat="44.59364" lon="2.38817">
        <ele>477.391</ele>
        <time>2013-06-24T07:53:32Z</time>
      </trkpt>
      <trkpt lat="44.59354" lon="2.38806">
        <ele>479.248</ele>
        <time>2013-06-24T07:53:50Z</time>
      </trkpt>
      <trkpt lat="44.59347" lon="2.38798">
        <ele>481.2</ele>
        <time>2013-06-24T07:54:07Z</time>
      </trkpt>
      <trkpt lat="44.59337" lon="2.3879">
        <ele>482.23</ele>
        <time>2013-06-24T07:54:25Z</time>
      </trkpt>
      <trkpt lat="44.59327" lon="2.38782">
        <ele>483.226</ele>
        <time>2013-06-24T07:54:41Z</time>
      </trkpt>
      <trkpt lat="44.59326" lon="2.38772">
        <ele>484.898</ele>
        <time>2013-06-24T07:54:58Z</time>
      </trkpt>
      <trkpt lat="44.59329" lon="2.38767">
        <ele>487.071</ele>
        <time>2013-06-24T07:55:23Z</time>
      </trkpt>
      <trkpt lat="44.59334" lon="2.3877">
        <ele>489.42</ele>
        <time>2013-06-24T07:55:38Z</time>
      </trkpt>
      <trkpt lat="44.59342" lon="2.38772">
        <ele>490.018</ele>
        <time>2013-06-24T07:55:57Z</time>
      </trkpt>
      <trkpt lat="44.59348" lon="2.38768">
        <ele>491.806</ele>
        <time>2013-06-24T07:56:13Z</time>
      </trkpt>
      <trkpt lat="44.59349" lon="2.38759">
        <ele>493.847</ele>
        <time>2013-06-24T07:56:29Z</time>
      </trkpt>
      <trkpt lat="44.59347" lon="2.38749">
        <ele>495.984</ele>
        <time>2013-06-24T07:56:44Z</time>
      </trkpt>
      <trkpt lat="44.5935" lon="2.38738">
        <ele>498.058</ele>
        <time>2013-06-24T07:57:01Z</time>
      </trkpt>
      <trkpt lat="44.59354" lon="2.38728">
        <ele>500.9</ele>
        <time>2013-06-24T07:57:19Z</time>
      </trkpt>
      <trkpt lat="44.59357" lon="2.38716">
        <ele>502.465</ele>
        <time>2013-06-24T07:57:38Z</time>
      </trkpt>
      <trkpt lat="44.59361" lon="2.38707">
        <ele>503.142</ele>
        <time>2013-06-24T07:57:55Z</time>
      </trkpt>
      <trkpt lat="44.59367" lon="2.38702">
        <ele>505.381</ele>
        <time>2013-06-24T07:58:12Z</time>
      </trkpt>
      <trkpt lat="44.59371" lon="2.38691">
        <ele>508.147</ele>
        <time>2013-06-24T07:58:31Z</time>
      </trkpt>
      <trkpt lat="44.59377" lon="2.3868">
        <ele>509.958</ele>
        <time>2013-06-24T07:58:50Z</time>
      </trkpt>
      <trkpt lat="44.59381" lon="2.38667">
        <ele>511.426</ele>
        <time>2013-06-24T07:59:07Z</time>
      </trkpt>
      <trkpt lat="44.59382" lon="2.38665">
        <ele>513.158</ele>
        <time>2013-06-24T07:59:10Z</time>
      </trkpt>
      <trkpt lat="44.59386" lon="2.38652">
        <ele>513.715</ele>
        <time>2013-06-24T07:59:27Z</time>
      </trkpt>
      <trkpt lat="44.59387" lon="2.38649">
        <ele>515.006</ele>
        <time>2013-06-24T07:59:32Z</time>
      </trkpt>
      <trkpt lat="44.59391" lon="2.38635">
        <ele>516.009</ele>
        <time>2013-06-24T07:59:50Z</time>
      </trkpt>
      <trkpt lat="44.59394" lon="2.38615">
        <ele>517.356</ele>
        <time>2013-06-24T08:00:10Z</time>
      </trkpt>
      <trkpt lat="44.59398" lon="2.38597">
        <ele>517.532</ele>
        <time>2013-06-24T08:00:30Z</time>
      </trkpt>
      <trkpt lat="44.59402" lon="2.38579">
        <ele>519.846</ele>
        <time>2013-06-24T08:00:51Z</time>
      </trkpt>
      <trkpt lat="44.59407" lon="2.38562">
        <ele>521.775</ele>
        <time>2013-06-24T08:01:10Z</time>
      </trkpt>
      <trkpt lat="44.59406" lon="2.3854">
        <ele>521.885</ele>
        <time>2013-06-24T08:01:29Z</time>
      </trkpt>
      <trkpt lat="44.59405" lon="2.38539">
        <ele>522.164</ele>
        <time>2013-06-24T08:01:30Z</time>
      </trkpt>
      <trkpt lat="44.59395" lon="2.38524">
        <ele>522.851</ele>
        <time>2013-06-24T08:01:47Z</time>
      </trkpt>
      <trkpt lat="44.59385" lon="2.38511">
        <ele>524.758</ele>
        <time>2013-06-24T08:02:05Z</time>
      </trkpt>
      <trkpt lat="44.59375" lon="2.38497">
        <ele>526.394</ele>
        <time>2013-06-24T08:02:24Z</time>
      </trkpt>
      <trkpt lat="44.59366" lon="2.38485">
        <ele>528.39</ele>
        <time>2013-06-24T08:02:43Z</time>
      </trkpt>
      <trkpt lat="44.59356" lon="2.38471">
        <ele>529.936</ele>
        <time>2013-06-24T08:03:03Z</time>
      </trkpt>
      <trkpt lat="44.59346" lon="2.38461">
        <ele>531.615</ele>
        <time>2013-06-24T08:03:21Z</time>
      </trkpt>
      <trkpt lat="44.59339" lon="2.38451">
        <ele>534.53</ele>
        <time>2013-06-24T08:03:38Z</time>
      </trkpt>
      <trkpt lat="44.59332" lon="2.38438">
        <ele>536.47</ele>
        <time>2013-06-24T08:03:57Z</time>
      </trkpt>
      <trkpt lat="44.59327" lon="2.38428">
        <ele>536.686</ele>
        <time>2013-06-24T08:04:14Z</time>
      </trkpt>
      <trkpt lat="44.5932" lon="2.38409">
        <ele>539.328</ele>
        <time>2013-06-24T08:04:36Z</time>
      </trkpt>
      <trkpt lat="44.59313" lon="2.38392">
        <ele>542.355</ele>
        <time>2013-06-24T08:04:54Z</time>
      </trkpt>
      <trkpt lat="44.5931" lon="2.38373">
        <ele>543.384</ele>
        <time>2013-06-24T08:05:13Z</time>
      </trkpt>
      <trkpt lat="44.5931" lon="2.38351">
        <ele>545.754</ele>
        <time>2013-06-24T08:05:34Z</time>
      </trkpt>
      <trkpt lat="44.5931" lon="2.3834">
        <ele>544.64</ele>
        <time>2013-06-24T08:05:53Z</time>
      </trkpt>
      <trkpt lat="44.5931" lon="2.3834">
        <ele>543.611</ele>
        <time>2013-06-24T08:06:07Z</time>
      </trkpt>
      <trkpt lat="44.59311" lon="2.38339">
        <ele>538.541</ele>
        <time>2013-06-24T08:06:29Z</time>
      </trkpt>
      <trkpt lat="44.59311" lon="2.38339">
        <ele>545.726</ele>
        <time>2013-06-24T08:06:30Z</time>
      </trkpt>
      <trkpt lat="44.59309" lon="2.38337">
        <ele>544.194</ele>
        <time>2013-06-24T08:07:08Z</time>
      </trkpt>
      <trkpt lat="44.59307" lon="2.38338">
        <ele>543.869</ele>
        <time>2013-06-24T08:09:07Z</time>
      </trkpt>
      <trkpt lat="44.59308" lon="2.38338">
        <ele>535.907</ele>
        <time>2013-06-24T08:09:41Z</time>
      </trkpt>
      <trkpt lat="44.59308" lon="2.38338">
        <ele>542.603</ele>
        <time>2013-06-24T08:09:42Z</time>
      </trkpt>
      <trkpt lat="44.59308" lon="2.38337">
        <ele>543.142</ele>
        <time>2013-06-24T08:10:07Z</time>
      </trkpt>
      <trkpt lat="44.59308" lon="2.38337">
        <ele>543.601</ele>
        <time>2013-06-24T08:10:41Z</time>
      </trkpt>
      <trkpt lat="44.59308" lon="2.38337">
        <ele>543.307</ele>
        <time>2013-06-24T08:11:13Z</time>
      </trkpt>
      <trkpt lat="44.59308" lon="2.38337">
        <ele>543.147</ele>
        <time>2013-06-24T08:11:52Z</time>
      </trkpt>
      <trkpt lat="44.59308" lon="2.38338">
        <ele>540.001</ele>
        <time>2013-06-24T08:12:14Z</time>
      </trkpt>
      <trkpt lat="44.59308" lon="2.38338">
        <ele>543.55</ele>
        <time>2013-06-24T08:12:15Z</time>
      </trkpt>
      <trkpt lat="44.59308" lon="2.38337">
        <ele>543.163</ele>
        <time>2013-06-24T08:12:49Z</time>
      </trkpt>
      <trkpt lat="44.59308" lon="2.38336">
        <ele>542.477</ele>
        <time>2013-06-24T08:13:28Z</time>
      </trkpt>
      <trkpt lat="44.59308" lon="2.38337">
        <ele>544.019</ele>
        <time>2013-06-24T08:13:54Z</time>
      </trkpt>
      <trkpt lat="44.59307" lon="2.38338">
        <ele>543.359</ele>
        <time>2013-06-24T08:14:20Z</time>
      </trkpt>
      <trkpt lat="44.59307" lon="2.38337">
        <ele>542.887</ele>
        <time>2013-06-24T08:14:46Z</time>
      </trkpt>
      <trkpt lat="44.59308" lon="2.38337">
        <ele>542.886</ele>
        <time>2013-06-24T08:15:13Z</time>
      </trkpt>
      <trkpt lat="44.59308" lon="2.38336">
        <ele>542.243</ele>
        <time>2013-06-24T08:15:33Z</time>
      </trkpt>
      <trkpt lat="44.59308" lon="2.38338">
        <ele>543.578</ele>
        <time>2013-06-24T08:16:54Z</time>
      </trkpt>
      <trkpt lat="44.59309" lon="2.38338">
        <ele>543.875</ele>
        <time>2013-06-24T08:17:30Z</time>
      </trkpt>
      <trkpt lat="44.59309" lon="2.38335">
        <ele>544.711</ele>
        <time>2013-06-24T08:17:56Z</time>
      </trkpt>
      <trkpt lat="44.59309" lon="2.38338">
        <ele>544.028</ele>
        <time>2013-06-24T08:18:38Z</time>
      </trkpt>
      <trkpt lat="44.5931" lon="2.38338">
        <ele>549.562</ele>
        <time>2013-06-24T08:19:18Z</time>
      </trkpt>
      <trkpt lat="44.5931" lon="2.38338">
        <ele>527.26</ele>
        <time>2013-06-24T08:19:19Z</time>
      </trkpt>
      <trkpt lat="44.5931" lon="2.38338">
        <ele>561.268</ele>
        <time>2013-06-24T08:19:20Z</time>
      </trkpt>
      <trkpt lat="44.5931" lon="2.38338">
        <ele>534.259</ele>
        <time>2013-06-24T08:19:21Z</time>
      </trkpt>
      <trkpt lat="44.5931" lon="2.38338">
        <ele>552.832</ele>
        <time>2013-06-24T08:19:22Z</time>
      </trkpt>
      <trkpt lat="44.59309" lon="2.38338">
        <ele>545.52</ele>
        <time>2013-06-24T08:19:23Z</time>
      </trkpt>
      <trkpt lat="44.5931" lon="2.38339">
        <ele>544.625</ele>
        <time>2013-06-24T08:19:25Z</time>
      </trkpt>
      <trkpt lat="44.59308" lon="2.38341">
        <ele>543.862</ele>
        <time>2013-06-24T08:20:12Z</time>
      </trkpt>
      <trkpt lat="44.59308" lon="2.3834">
        <ele>542.077</ele>
        <time>2013-06-24T08:25:35Z</time>
      </trkpt>
      <trkpt lat="44.59308" lon="2.38339">
        <ele>539.929</ele>
        <time>2013-06-24T08:25:51Z</time>
      </trkpt>
      <trkpt lat="44.59308" lon="2.38338">
        <ele>541.58</ele>
        <time>2013-06-24T08:26:19Z</time>
      </trkpt>
      <trkpt lat="44.59308" lon="2.38339">
        <ele>541.235</ele>
        <time>2013-06-24T08:29:18Z</time>
      </trkpt>
      <trkpt lat="44.5931" lon="2.3834">
        <ele>541.123</ele>
        <time>2013-06-24T08:29:55Z</time>
      </trkpt>
      <trkpt lat="44.5931" lon="2.3834">
        <ele>539.399</ele>
        <time>2013-06-24T08:31:18Z</time>
      </trkpt>
      <trkpt lat="44.5931" lon="2.3834">
        <ele>541.001</ele>
        <time>2013-06-24T08:31:20Z</time>
      </trkpt>
      <trkpt lat="44.5931" lon="2.3834">
        <ele>537.452</ele>
        <time>2013-06-24T08:31:25Z</time>
      </trkpt>
      <trkpt lat="44.5931" lon="2.3834">
        <ele>541.728</ele>
        <time>2013-06-24T08:31:31Z</time>
      </trkpt>
      <trkpt lat="44.5931" lon="2.3834">
        <ele>541.562</ele>
        <time>2013-06-24T08:31:32Z</time>
      </trkpt>
      <trkpt lat="44.5931" lon="2.38341">
        <ele>542.144</ele>
        <time>2013-06-24T08:31:46Z</time>
      </trkpt>
      <trkpt lat="44.5931" lon="2.3834">
        <ele>541.98</ele>
        <time>2013-06-24T08:32:11Z</time>
      </trkpt>
      <trkpt lat="44.59309" lon="2.38338">
        <ele>541.696</ele>
        <time>2013-06-24T08:32:29Z</time>
      </trkpt>
      <trkpt lat="44.59306" lon="2.38329">
        <ele>541.433</ele>
        <time>2013-06-24T08:32:43Z</time>
      </trkpt>
      <trkpt lat="44.59306" lon="2.38329">
        <ele>541.773</ele>
        <time>2013-06-24T08:33:35Z</time>
      </trkpt>
      <trkpt lat="44.59306" lon="2.38327">
        <ele>541.26</ele>
        <time>2013-06-24T08:34:05Z</time>
      </trkpt>
      <trkpt lat="44.59307" lon="2.38325">
        <ele>541.903</ele>
        <time>2013-06-24T08:34:51Z</time>
      </trkpt>
      <trkpt lat="44.59306" lon="2.38325">
        <ele>542.315</ele>
        <time>2013-06-24T08:36:00Z</time>
      </trkpt>
      <trkpt lat="44.59306" lon="2.38322">
        <ele>541.646</ele>
        <time>2013-06-24T08:36:07Z</time>
      </trkpt>
      <trkpt lat="44.59295" lon="2.38282">
        <ele>541.385</ele>
        <time>2013-06-24T08:36:31Z</time>
      </trkpt>
      <trkpt lat="44.5928" lon="2.38235">
        <ele>541.578</ele>
        <time>2013-06-24T08:36:59Z</time>
      </trkpt>
      <trkpt lat="44.59269" lon="2.38188">
        <ele>542.368</ele>
        <time>2013-06-24T08:37:26Z</time>
      </trkpt>
      <trkpt lat="44.59262" lon="2.38149">
        <ele>543.488</ele>
        <time>2013-06-24T08:37:49Z</time>
      </trkpt>
      <trkpt lat="44.59255" lon="2.381">
        <ele>545.08</ele>
        <time>2013-06-24T08:38:18Z</time>
      </trkpt>
      <trkpt lat="44.59249" lon="2.38064">
        <ele>548.35</ele>
        <time>2013-06-24T08:38:44Z</time>
      </trkpt>
      <trkpt lat="44.59245" lon="2.38038">
        <ele>551.616</ele>
        <time>2013-06-24T08:39:02Z</time>
      </trkpt>
      <trkpt lat="44.59235" lon="2.37998">
        <ele>553.455</ele>
        <time>2013-06-24T08:39:28Z</time>
      </trkpt>
      <trkpt lat="44.5923" lon="2.37982">
        <ele>554.236</ele>
        <time>2013-06-24T08:39:39Z</time>
      </trkpt>
      <trkpt lat="44.59222" lon="2.37953">
        <ele>553.283</ele>
        <time>2013-06-24T08:39:57Z</time>
      </trkpt>
      <trkpt lat="44.59215" lon="2.37923">
        <ele>554.017</ele>
        <time>2013-06-24T08:40:16Z</time>
      </trkpt>
      <trkpt lat="44.59217" lon="2.37914">
        <ele>554.443</ele>
        <time>2013-06-24T08:40:32Z</time>
      </trkpt>
      <trkpt lat="44.59241" lon="2.37893">
        <ele>552.891</ele>
        <time>2013-06-24T08:41:00Z</time>
      </trkpt>
      <trkpt lat="44.59258" lon="2.37882">
        <ele>552.769</ele>
        <time>2013-06-24T08:41:19Z</time>
      </trkpt>
      <trkpt lat="44.59272" lon="2.37862">
        <ele>552.299</ele>
        <time>2013-06-24T08:41:41Z</time>
      </trkpt>
      <trkpt lat="44.59273" lon="2.3786">
        <ele>552.164</ele>
        <time>2013-06-24T08:41:46Z</time>
      </trkpt>
      <trkpt lat="44.59285" lon="2.37835">
        <ele>551.564</ele>
        <time>2013-06-24T08:42:04Z</time>
      </trkpt>
      <trkpt lat="44.59296" lon="2.378">
        <ele>550.93</ele>
        <time>2013-06-24T08:42:29Z</time>
      </trkpt>
      <trkpt lat="44.59301" lon="2.37787">
        <ele>551.535</ele>
        <time>2013-06-24T08:42:46Z</time>
      </trkpt>
      <trkpt lat="44.59308" lon="2.37774">
        <ele>551.237</ele>
        <time>2013-06-24T08:43:06Z</time>
      </trkpt>
      <trkpt lat="44.59325" lon="2.37757">
        <ele>552.092</ele>
        <time>2013-06-24T08:43:25Z</time>
      </trkpt>
      <trkpt lat="44.59347" lon="2.37737">
        <ele>553.379</ele>
        <time>2013-06-24T08:43:47Z</time>
      </trkpt>
      <trkpt lat="44.59366" lon="2.37719">
        <ele>555.643</ele>
        <time>2013-06-24T08:44:10Z</time>
      </trkpt>
      <trkpt lat="44.59384" lon="2.37696">
        <ele>556.769</ele>
        <time>2013-06-24T08:44:34Z</time>
      </trkpt>
      <trkpt lat="44.59393" lon="2.3768">
        <ele>556.544</ele>
        <time>2013-06-24T08:44:52Z</time>
      </trkpt>
      <trkpt lat="44.59382" lon="2.37666">
        <ele>556.482</ele>
        <time>2013-06-24T08:45:10Z</time>
      </trkpt>
      <trkpt lat="44.59383" lon="2.37654">
        <ele>556.004</ele>
        <time>2013-06-24T08:45:29Z</time>
      </trkpt>
      <trkpt lat="44.59383" lon="2.37644">
        <ele>555.887</ele>
        <time>2013-06-24T08:45:53Z</time>
      </trkpt>
      <trkpt lat="44.5938" lon="2.37611">
        <ele>552.818</ele>
        <time>2013-06-24T08:46:18Z</time>
      </trkpt>
      <trkpt lat="44.59367" lon="2.37587">
        <ele>550.34</ele>
        <time>2013-06-24T08:46:42Z</time>
      </trkpt>
      <trkpt lat="44.59357" lon="2.37579">
        <ele>547.337</ele>
        <time>2013-06-24T08:46:56Z</time>
      </trkpt>
      <trkpt lat="44.59338" lon="2.37556">
        <ele>545.174</ele>
        <time>2013-06-24T08:47:23Z</time>
      </trkpt>
      <trkpt lat="44.59329" lon="2.37541">
        <ele>544.496</ele>
        <time>2013-06-24T08:47:37Z</time>
      </trkpt>
      <trkpt lat="44.5931" lon="2.37511">
        <ele>543.208</ele>
        <time>2013-06-24T08:48:05Z</time>
      </trkpt>
      <trkpt lat="44.59284" lon="2.37496">
        <ele>541.666</ele>
        <time>2013-06-24T08:48:31Z</time>
      </trkpt>
      <trkpt lat="44.59263" lon="2.3747">
        <ele>540.791</ele>
        <time>2013-06-24T08:48:57Z</time>
      </trkpt>
      <trkpt lat="44.59259" lon="2.37426">
        <ele>539.539</ele>
        <time>2013-06-24T08:49:26Z</time>
      </trkpt>
      <trkpt lat="44.59262" lon="2.37382">
        <ele>538.265</ele>
        <time>2013-06-24T08:49:55Z</time>
      </trkpt>
      <trkpt lat="44.59269" lon="2.3734">
        <ele>535.586</ele>
        <time>2013-06-24T08:50:23Z</time>
      </trkpt>
      <trkpt lat="44.59282" lon="2.37302">
        <ele>532.901</ele>
        <time>2013-06-24T08:50:51Z</time>
      </trkpt>
      <trkpt lat="44.59294" lon="2.37261">
        <ele>529.698</ele>
        <time>2013-06-24T08:51:20Z</time>
      </trkpt>
      <trkpt lat="44.59302" lon="2.37227">
        <ele>526.654</ele>
        <time>2013-06-24T08:51:43Z</time>
      </trkpt>
      <trkpt lat="44.59309" lon="2.3719">
        <ele>524.392</ele>
        <time>2013-06-24T08:52:09Z</time>
      </trkpt>
      <trkpt lat="44.59314" lon="2.37159">
        <ele>521.071</ele>
        <time>2013-06-24T08:52:30Z</time>
      </trkpt>
      <trkpt lat="44.59319" lon="2.37119">
        <ele>518.343</ele>
        <time>2013-06-24T08:52:59Z</time>
      </trkpt>
      <trkpt lat="44.59328" lon="2.3709">
        <ele>517.068</ele>
        <time>2013-06-24T08:53:21Z</time>
      </trkpt>
      <trkpt lat="44.59328" lon="2.37067">
        <ele>514.667</ele>
        <time>2013-06-24T08:53:38Z</time>
      </trkpt>
      <trkpt lat="44.59328" lon="2.3704">
        <ele>511.793</ele>
        <time>2013-06-24T08:53:58Z</time>
      </trkpt>
      <trkpt lat="44.59328" lon="2.37019">
        <ele>509.551</ele>
        <time>2013-06-24T08:54:14Z</time>
      </trkpt>
      <trkpt lat="44.59322" lon="2.36991">
        <ele>507.521</ele>
        <time>2013-06-24T08:54:34Z</time>
      </trkpt>
      <trkpt lat="44.59321" lon="2.36981">
        <ele>506.357</ele>
        <time>2013-06-24T08:54:41Z</time>
      </trkpt>
      <trkpt lat="44.59309" lon="2.36956">
        <ele>503.946</ele>
        <time>2013-06-24T08:55:01Z</time>
      </trkpt>
      <trkpt lat="44.59291" lon="2.36948">
        <ele>502.849</ele>
        <time>2013-06-24T08:55:18Z</time>
      </trkpt>
      <trkpt lat="44.59268" lon="2.36955">
        <ele>499.884</ele>
        <time>2013-06-24T08:55:38Z</time>
      </trkpt>
      <trkpt lat="44.59262" lon="2.36959">
        <ele>499.556</ele>
        <time>2013-06-24T08:55:44Z</time>
      </trkpt>
      <trkpt lat="44.5924" lon="2.36969">
        <ele>497.739</ele>
        <time>2013-06-24T08:56:05Z</time>
      </trkpt>
      <trkpt lat="44.5922" lon="2.36965">
        <ele>496.794</ele>
        <time>2013-06-24T08:56:26Z</time>
      </trkpt>
      <trkpt lat="44.59203" lon="2.36981">
        <ele>495.845</ele>
        <time>2013-06-24T08:56:43Z</time>
      </trkpt>
      <trkpt lat="44.59201" lon="2.36987">
        <ele>495.628</ele>
        <time>2013-06-24T08:57:03Z</time>
      </trkpt>
      <trkpt lat="44.59201" lon="2.36984">
        <ele>492.045</ele>
        <time>2013-06-24T08:57:31Z</time>
      </trkpt>
      <trkpt lat="44.59201" lon="2.36985">
        <ele>495.306</ele>
        <time>2013-06-24T08:57:34Z</time>
      </trkpt>
      <trkpt lat="44.59201" lon="2.36985">
        <ele>491.482</ele>
        <time>2013-06-24T08:57:35Z</time>
      </trkpt>
      <trkpt lat="44.59201" lon="2.36985">
        <ele>491.288</ele>
        <time>2013-06-24T08:57:36Z</time>
      </trkpt>
      <trkpt lat="44.59201" lon="2.36985">
        <ele>495.457</ele>
        <time>2013-06-24T08:57:42Z</time>
      </trkpt>
      <trkpt lat="44.59201" lon="2.36985">
        <ele>495.653</ele>
        <time>2013-06-24T08:57:43Z</time>
      </trkpt>
      <trkpt lat="44.59201" lon="2.36986">
        <ele>496.161</ele>
        <time>2013-06-24T08:57:55Z</time>
      </trkpt>
      <trkpt lat="44.59201" lon="2.36988">
        <ele>495.638</ele>
        <time>2013-06-24T08:58:28Z</time>
      </trkpt>
      <trkpt lat="44.59203" lon="2.36988">
        <ele>496.06</ele>
        <time>2013-06-24T08:59:11Z</time>
      </trkpt>
      <trkpt lat="44.59197" lon="2.36992">
        <ele>495.395</ele>
        <time>2013-06-24T08:59:39Z</time>
      </trkpt>
      <trkpt lat="44.59179" lon="2.37026">
        <ele>493.193</ele>
        <time>2013-06-24T09:00:06Z</time>
      </trkpt>
      <trkpt lat="44.59165" lon="2.37045">
        <ele>491.843</ele>
        <time>2013-06-24T09:00:24Z</time>
      </trkpt>
      <trkpt lat="44.59152" lon="2.37066">
        <ele>490.121</ele>
        <time>2013-06-24T09:00:43Z</time>
      </trkpt>
      <trkpt lat="44.59139" lon="2.37081">
        <ele>488.715</ele>
        <time>2013-06-24T09:00:58Z</time>
      </trkpt>
      <trkpt lat="44.59128" lon="2.37096">
        <ele>487.743</ele>
        <time>2013-06-24T09:01:12Z</time>
      </trkpt>
      <trkpt lat="44.59115" lon="2.37114">
        <ele>486.522</ele>
        <time>2013-06-24T09:01:28Z</time>
      </trkpt>
      <trkpt lat="44.59102" lon="2.37131">
        <ele>484.393</ele>
        <time>2013-06-24T09:01:45Z</time>
      </trkpt>
      <trkpt lat="44.59086" lon="2.37143">
        <ele>482.437</ele>
        <time>2013-06-24T09:02:02Z</time>
      </trkpt>
      <trkpt lat="44.59072" lon="2.37152">
        <ele>482.192</ele>
        <time>2013-06-24T09:02:16Z</time>
      </trkpt>
      <trkpt lat="44.59064" lon="2.37157">
        <ele>482.351</ele>
        <time>2013-06-24T09:02:23Z</time>
      </trkpt>
      <trkpt lat="44.5905" lon="2.37156">
        <ele>482.4</ele>
        <time>2013-06-24T09:02:39Z</time>
      </trkpt>
      <trkpt lat="44.59032" lon="2.37146">
        <ele>482.371</ele>
        <time>2013-06-24T09:02:58Z</time>
      </trkpt>
      <trkpt lat="44.59004" lon="2.37146">
        <ele>481.928</ele>
        <time>2013-06-24T09:03:18Z</time>
      </trkpt>
      <trkpt lat="44.58991" lon="2.37139">
        <ele>481.702</ele>
        <time>2013-06-24T09:03:34Z</time>
      </trkpt>
      <trkpt lat="44.58974" lon="2.37132">
        <ele>481.595</ele>
        <time>2013-06-24T09:03:51Z</time>
      </trkpt>
      <trkpt lat="44.58945" lon="2.37134">
        <ele>481.183</ele>
        <time>2013-06-24T09:04:15Z</time>
      </trkpt>
      <trkpt lat="44.58925" lon="2.37134">
        <ele>481.347</ele>
        <time>2013-06-24T09:04:31Z</time>
      </trkpt>
      <trkpt lat="44.58901" lon="2.37137">
        <ele>481.291</ele>
        <time>2013-06-24T09:04:51Z</time>
      </trkpt>
      <trkpt lat="44.58884" lon="2.37138">
        <ele>481.101</ele>
        <time>2013-06-24T09:05:09Z</time>
      </trkpt>
      <trkpt lat="44.58864" lon="2.37145">
        <ele>481.756</ele>
        <time>2013-06-24T09:05:24Z</time>
      </trkpt>
      <trkpt lat="44.58842" lon="2.37151">
        <ele>481.065</ele>
        <time>2013-06-24T09:05:45Z</time>
      </trkpt>
      <trkpt lat="44.58837" lon="2.37149">
        <ele>481.451</ele>
        <time>2013-06-24T09:05:54Z</time>
      </trkpt>
      <trkpt lat="44.58839" lon="2.37143">
        <ele>481.327</ele>
        <time>2013-06-24T09:05:59Z</time>
      </trkpt>
      <trkpt lat="44.58851" lon="2.37134">
        <ele>481.906</ele>
        <time>2013-06-24T09:06:16Z</time>
      </trkpt>
      <trkpt lat="44.58854" lon="2.37133">
        <ele>481.939</ele>
        <time>2013-06-24T09:06:19Z</time>
      </trkpt>
      <trkpt lat="44.58866" lon="2.37129">
        <ele>482.527</ele>
        <time>2013-06-24T09:06:33Z</time>
      </trkpt>
      <trkpt lat="44.58881" lon="2.37118">
        <ele>483.509</ele>
        <time>2013-06-24T09:06:53Z</time>
      </trkpt>
      <trkpt lat="44.58899" lon="2.37112">
        <ele>484.72</ele>
        <time>2013-06-24T09:07:13Z</time>
      </trkpt>
      <trkpt lat="44.58918" lon="2.37096">
        <ele>486.557</ele>
        <time>2013-06-24T09:07:34Z</time>
      </trkpt>
      <trkpt lat="44.58936" lon="2.37088">
        <ele>488.891</ele>
        <time>2013-06-24T09:07:53Z</time>
      </trkpt>
      <trkpt lat="44.58953" lon="2.37077">
        <ele>489.853</ele>
        <time>2013-06-24T09:08:11Z</time>
      </trkpt>
      <trkpt lat="44.58973" lon="2.37066">
        <ele>490.82</ele>
        <time>2013-06-24T09:08:32Z</time>
      </trkpt>
      <trkpt lat="44.58997" lon="2.37049">
        <ele>492.796</ele>
        <time>2013-06-24T09:08:58Z</time>
      </trkpt>
      <trkpt lat="44.59017" lon="2.37031">
        <ele>494.065</ele>
        <time>2013-06-24T09:09:19Z</time>
      </trkpt>
      <trkpt lat="44.59036" lon="2.37007">
        <ele>493.933</ele>
        <time>2013-06-24T09:09:42Z</time>
      </trkpt>
      <trkpt lat="44.59052" lon="2.3698">
        <ele>491.243</ele>
        <time>2013-06-24T09:10:06Z</time>
      </trkpt>
      <trkpt lat="44.59059" lon="2.36951">
        <ele>490.083</ele>
        <time>2013-06-24T09:10:25Z</time>
      </trkpt>
      <trkpt lat="44.59052" lon="2.36922">
        <ele>489.088</ele>
        <time>2013-06-24T09:10:44Z</time>
      </trkpt>
      <trkpt lat="44.59039" lon="2.36898">
        <ele>487.78</ele>
        <time>2013-06-24T09:11:05Z</time>
      </trkpt>
      <trkpt lat="44.59028" lon="2.36887">
        <ele>486.334</ele>
        <time>2013-06-24T09:11:21Z</time>
      </trkpt>
      <trkpt lat="44.59008" lon="2.3687">
        <ele>484.983</ele>
        <time>2013-06-24T09:11:42Z</time>
      </trkpt>
      <trkpt lat="44.59003" lon="2.36864">
        <ele>484.863</ele>
        <time>2013-06-24T09:11:50Z</time>
      </trkpt>
      <trkpt lat="44.58986" lon="2.36857">
        <ele>483.877</ele>
        <time>2013-06-24T09:12:04Z</time>
      </trkpt>
      <trkpt lat="44.58987" lon="2.36844">
        <ele>483.227</ele>
        <time>2013-06-24T09:12:17Z</time>
      </trkpt>
      <trkpt lat="44.59007" lon="2.36832">
        <ele>483.269</ele>
        <time>2013-06-24T09:12:33Z</time>
      </trkpt>
      <trkpt lat="44.59014" lon="2.36822">
        <ele>483.438</ele>
        <time>2013-06-24T09:12:47Z</time>
      </trkpt>
      <trkpt lat="44.59022" lon="2.36807">
        <ele>483.517</ele>
        <time>2013-06-24T09:13:05Z</time>
      </trkpt>
      <trkpt lat="44.59035" lon="2.36783">
        <ele>483.553</ele>
        <time>2013-06-24T09:13:26Z</time>
      </trkpt>
      <trkpt lat="44.59053" lon="2.3676">
        <ele>482.965</ele>
        <time>2013-06-24T09:13:50Z</time>
      </trkpt>
      <trkpt lat="44.59071" lon="2.36736">
        <ele>482.61</ele>
        <time>2013-06-24T09:14:11Z</time>
      </trkpt>
      <trkpt lat="44.59087" lon="2.36715">
        <ele>481.401</ele>
        <time>2013-06-24T09:14:31Z</time>
      </trkpt>
      <trkpt lat="44.59089" lon="2.36703">
        <ele>480.785</ele>
        <time>2013-06-24T09:14:49Z</time>
      </trkpt>
      <trkpt lat="44.59092" lon="2.367">
        <ele>480.334</ele>
        <time>2013-06-24T09:15:04Z</time>
      </trkpt>
      <trkpt lat="44.59093" lon="2.36688">
        <ele>480.463</ele>
        <time>2013-06-24T09:15:19Z</time>
      </trkpt>
      <trkpt lat="44.59094" lon="2.36678">
        <ele>481.411</ele>
        <time>2013-06-24T09:15:39Z</time>
      </trkpt>
      <trkpt lat="44.59097" lon="2.3668">
        <ele>481.505</ele>
        <time>2013-06-24T09:16:32Z</time>
      </trkpt>
      <trkpt lat="44.59095" lon="2.36681">
        <ele>481.435</ele>
        <time>2013-06-24T09:16:55Z</time>
      </trkpt>
      <trkpt lat="44.59091" lon="2.36667">
        <ele>482.318</ele>
        <time>2013-06-24T09:17:26Z</time>
      </trkpt>
      <trkpt lat="44.59082" lon="2.36647">
        <ele>483.588</ele>
        <time>2013-06-24T09:17:46Z</time>
      </trkpt>
      <trkpt lat="44.59074" lon="2.3663">
        <ele>486.217</ele>
        <time>2013-06-24T09:18:03Z</time>
      </trkpt>
      <trkpt lat="44.5907" lon="2.36611">
        <ele>487.398</ele>
        <time>2013-06-24T09:18:19Z</time>
      </trkpt>
      <trkpt lat="44.59061" lon="2.36592">
        <ele>489.462</ele>
        <time>2013-06-24T09:18:38Z</time>
      </trkpt>
      <trkpt lat="44.59046" lon="2.36591">
        <ele>491.223</ele>
        <time>2013-06-24T09:18:59Z</time>
      </trkpt>
      <trkpt lat="44.59027" lon="2.36592">
        <ele>493.708</ele>
        <time>2013-06-24T09:19:20Z</time>
      </trkpt>
      <trkpt lat="44.59009" lon="2.36595">
        <ele>496.089</ele>
        <time>2013-06-24T09:19:41Z</time>
      </trkpt>
      <trkpt lat="44.58995" lon="2.36598">
        <ele>497.772</ele>
        <time>2013-06-24T09:19:58Z</time>
      </trkpt>
      <trkpt lat="44.58981" lon="2.36604">
        <ele>499.019</ele>
        <time>2013-06-24T09:20:18Z</time>
      </trkpt>
      <trkpt lat="44.58969" lon="2.36609">
        <ele>500.676</ele>
        <time>2013-06-24T09:20:38Z</time>
      </trkpt>
      <trkpt lat="44.58956" lon="2.36614">
        <ele>502.332</ele>
        <time>2013-06-24T09:20:56Z</time>
      </trkpt>
      <trkpt lat="44.58942" lon="2.36605">
        <ele>503.333</ele>
        <time>2013-06-24T09:21:16Z</time>
      </trkpt>
      <trkpt lat="44.58947" lon="2.36592">
        <ele>505.364</ele>
        <time>2013-06-24T09:21:35Z</time>
      </trkpt>
      <trkpt lat="44.58945" lon="2.36571">
        <ele>505.872</ele>
        <time>2013-06-24T09:21:54Z</time>
      </trkpt>
      <trkpt lat="44.58934" lon="2.36554">
        <ele>507.599</ele>
        <time>2013-06-24T09:22:12Z</time>
      </trkpt>
      <trkpt lat="44.58923" lon="2.36541">
        <ele>510.946</ele>
        <time>2013-06-24T09:22:29Z</time>
      </trkpt>
      <trkpt lat="44.58914" lon="2.36527">
        <ele>511.672</ele>
        <time>2013-06-24T09:22:44Z</time>
      </trkpt>
      <trkpt lat="44.58913" lon="2.36527">
        <ele>511.771</ele>
        <time>2013-06-24T09:22:45Z</time>
      </trkpt>
      <trkpt lat="44.58905" lon="2.36513">
        <ele>513.051</ele>
        <time>2013-06-24T09:23:03Z</time>
      </trkpt>
      <trkpt lat="44.58903" lon="2.36509">
        <ele>513.664</ele>
        <time>2013-06-24T09:23:17Z</time>
      </trkpt>
      <trkpt lat="44.58906" lon="2.36505">
        <ele>514.709</ele>
        <time>2013-06-24T09:23:37Z</time>
      </trkpt>
      <trkpt lat="44.58918" lon="2.36508">
        <ele>515.852</ele>
        <time>2013-06-24T09:23:53Z</time>
      </trkpt>
      <trkpt lat="44.58932" lon="2.36507">
        <ele>518.308</ele>
        <time>2013-06-24T09:24:12Z</time>
      </trkpt>
      <trkpt lat="44.58949" lon="2.36506">
        <ele>519.743</ele>
        <time>2013-06-24T09:24:33Z</time>
      </trkpt>
      <trkpt lat="44.58964" lon="2.36497">
        <ele>520.343</ele>
        <time>2013-06-24T09:24:52Z</time>
      </trkpt>
      <trkpt lat="44.58974" lon="2.36488">
        <ele>520.651</ele>
        <time>2013-06-24T09:25:11Z</time>
      </trkpt>
      <trkpt lat="44.58971" lon="2.36487">
        <ele>520.232</ele>
        <time>2013-06-24T09:25:30Z</time>
      </trkpt>
      <trkpt lat="44.58971" lon="2.36483">
        <ele>520.681</ele>
        <time>2013-06-24T09:25:48Z</time>
      </trkpt>
      <trkpt lat="44.58971" lon="2.36479">
        <ele>519.777</ele>
        <time>2013-06-24T09:26:08Z</time>
      </trkpt>
      <trkpt lat="44.58967" lon="2.36479">
        <ele>520.4</ele>
        <time>2013-06-24T09:27:39Z</time>
      </trkpt>
      <trkpt lat="44.5897" lon="2.36479">
        <ele>520.77</ele>
        <time>2013-06-24T09:31:45Z</time>
      </trkpt>
      <trkpt lat="44.58972" lon="2.36486">
        <ele>521.364</ele>
        <time>2013-06-24T09:35:01Z</time>
      </trkpt>
      <trkpt lat="44.58974" lon="2.36485">
        <ele>520.837</ele>
        <time>2013-06-24T09:35:32Z</time>
      </trkpt>
      <trkpt lat="44.58974" lon="2.36482">
        <ele>522.369</ele>
        <time>2013-06-24T09:35:52Z</time>
      </trkpt>
      <trkpt lat="44.58973" lon="2.3648">
        <ele>522.32</ele>
        <time>2013-06-24T09:36:28Z</time>
      </trkpt>
      <trkpt lat="44.58963" lon="2.3648">
        <ele>523.439</ele>
        <time>2013-06-24T09:36:45Z</time>
      </trkpt>
      <trkpt lat="44.58948" lon="2.36477">
        <ele>525.789</ele>
        <time>2013-06-24T09:37:07Z</time>
      </trkpt>
      <trkpt lat="44.58932" lon="2.36471">
        <ele>528.184</ele>
        <time>2013-06-24T09:37:28Z</time>
      </trkpt>
      <trkpt lat="44.58926" lon="2.36466">
        <ele>528.909</ele>
        <time>2013-06-24T09:37:46Z</time>
      </trkpt>
      <trkpt lat="44.58925" lon="2.36469">
        <ele>529.134</ele>
        <time>2013-06-24T09:38:06Z</time>
      </trkpt>
      <trkpt lat="44.58925" lon="2.36469">
        <ele>529.506</ele>
        <time>2013-06-24T09:39:17Z</time>
      </trkpt>
      <trkpt lat="44.58924" lon="2.36467">
        <ele>529.62</ele>
        <time>2013-06-24T09:39:45Z</time>
      </trkpt>
      <trkpt lat="44.58924" lon="2.36464">
        <ele>529.871</ele>
        <time>2013-06-24T09:40:30Z</time>
      </trkpt>
      <trkpt lat="44.58918" lon="2.36463">
        <ele>530.095</ele>
        <time>2013-06-24T09:40:59Z</time>
      </trkpt>
      <trkpt lat="44.58914" lon="2.3646">
        <ele>530.388</ele>
        <time>2013-06-24T09:41:46Z</time>
      </trkpt>
      <trkpt lat="44.58907" lon="2.36458">
        <ele>531.477</ele>
        <time>2013-06-24T09:41:59Z</time>
      </trkpt>
      <trkpt lat="44.589" lon="2.36454">
        <ele>531.799</ele>
        <time>2013-06-24T09:42:13Z</time>
      </trkpt>
      <trkpt lat="44.58891" lon="2.36447">
        <ele>533.808</ele>
        <time>2013-06-24T09:42:27Z</time>
      </trkpt>
      <trkpt lat="44.5888" lon="2.3644">
        <ele>535.275</ele>
        <time>2013-06-24T09:42:43Z</time>
      </trkpt>
      <trkpt lat="44.58862" lon="2.36434">
        <ele>537.211</ele>
        <time>2013-06-24T09:43:03Z</time>
      </trkpt>
      <trkpt lat="44.5885" lon="2.36425">
        <ele>538.761</ele>
        <time>2013-06-24T09:43:18Z</time>
      </trkpt>
      <trkpt lat="44.58827" lon="2.36417">
        <ele>540.367</ele>
        <time>2013-06-24T09:43:36Z</time>
      </trkpt>
      <trkpt lat="44.58809" lon="2.36413">
        <ele>542.058</ele>
        <time>2013-06-24T09:43:54Z</time>
      </trkpt>
      <trkpt lat="44.58787" lon="2.36413">
        <ele>543.879</ele>
        <time>2013-06-24T09:44:16Z</time>
      </trkpt>
      <trkpt lat="44.58766" lon="2.36413">
        <ele>546.139</ele>
        <time>2013-06-24T09:44:40Z</time>
      </trkpt>
      <trkpt lat="44.58749" lon="2.36413">
        <ele>549.37</ele>
        <time>2013-06-24T09:45:00Z</time>
      </trkpt>
      <trkpt lat="44.58738" lon="2.36412">
        <ele>551.274</ele>
        <time>2013-06-24T09:45:17Z</time>
      </trkpt>
      <trkpt lat="44.58724" lon="2.36412">
        <ele>553.363</ele>
        <time>2013-06-24T09:45:39Z</time>
      </trkpt>
      <trkpt lat="44.58714" lon="2.36415">
        <ele>556.899</ele>
        <time>2013-06-24T09:45:57Z</time>
      </trkpt>
      <trkpt lat="44.58707" lon="2.36415">
        <ele>556.659</ele>
        <time>2013-06-24T09:46:22Z</time>
      </trkpt>
      <trkpt lat="44.58705" lon="2.36415">
        <ele>557.124</ele>
        <time>2013-06-24T09:46:36Z</time>
      </trkpt>
      <trkpt lat="44.58707" lon="2.36417">
        <ele>557.633</ele>
        <time>2013-06-24T09:47:47Z</time>
      </trkpt>
      <trkpt lat="44.58708" lon="2.36403">
        <ele>557.579</ele>
        <time>2013-06-24T09:48:14Z</time>
      </trkpt>
      <trkpt lat="44.58712" lon="2.36397">
        <ele>557.789</ele>
        <time>2013-06-24T09:48:21Z</time>
      </trkpt>
      <trkpt lat="44.58733" lon="2.36373">
        <ele>557.385</ele>
        <time>2013-06-24T09:48:48Z</time>
      </trkpt>
      <trkpt lat="44.58751" lon="2.3635">
        <ele>557.026</ele>
        <time>2013-06-24T09:49:13Z</time>
      </trkpt>
      <trkpt lat="44.58777" lon="2.36321">
        <ele>556.297</ele>
        <time>2013-06-24T09:49:44Z</time>
      </trkpt>
      <trkpt lat="44.58799" lon="2.3629">
        <ele>555.997</ele>
        <time>2013-06-24T09:50:14Z</time>
      </trkpt>
      <trkpt lat="44.58818" lon="2.36262">
        <ele>556.431</ele>
        <time>2013-06-24T09:50:41Z</time>
      </trkpt>
      <trkpt lat="44.58838" lon="2.36227">
        <ele>555.014</ele>
        <time>2013-06-24T09:51:10Z</time>
      </trkpt>
      <trkpt lat="44.58855" lon="2.3618">
        <ele>555.662</ele>
        <time>2013-06-24T09:51:44Z</time>
      </trkpt>
      <trkpt lat="44.58851" lon="2.36137">
        <ele>555.761</ele>
        <time>2013-06-24T09:52:12Z</time>
      </trkpt>
      <trkpt lat="44.58854" lon="2.36087">
        <ele>557.066</ele>
        <time>2013-06-24T09:52:44Z</time>
      </trkpt>
      <trkpt lat="44.58858" lon="2.36037">
        <ele>558.032</ele>
        <time>2013-06-24T09:53:16Z</time>
      </trkpt>
      <trkpt lat="44.58864" lon="2.35979">
        <ele>559.067</ele>
        <time>2013-06-24T09:53:53Z</time>
      </trkpt>
      <trkpt lat="44.58869" lon="2.35928">
        <ele>560.137</ele>
        <time>2013-06-24T09:54:25Z</time>
      </trkpt>
      <trkpt lat="44.58875" lon="2.35871">
        <ele>559.711</ele>
        <time>2013-06-24T09:55:01Z</time>
      </trkpt>
      <trkpt lat="44.5888" lon="2.35814">
        <ele>558.939</ele>
        <time>2013-06-24T09:55:37Z</time>
      </trkpt>
      <trkpt lat="44.5888" lon="2.3577">
        <ele>558.505</ele>
        <time>2013-06-24T09:56:05Z</time>
      </trkpt>
      <trkpt lat="44.58882" lon="2.35738">
        <ele>559.454</ele>
        <time>2013-06-24T09:56:26Z</time>
      </trkpt>
      <trkpt lat="44.5888" lon="2.35685">
        <ele>559.451</ele>
        <time>2013-06-24T09:56:57Z</time>
      </trkpt>
      <trkpt lat="44.58875" lon="2.35633">
        <ele>559.426</ele>
        <time>2013-06-24T09:57:29Z</time>
      </trkpt>
      <trkpt lat="44.58869" lon="2.35568">
        <ele>557.264</ele>
        <time>2013-06-24T09:58:08Z</time>
      </trkpt>
      <trkpt lat="44.58865" lon="2.35512">
        <ele>555.813</ele>
        <time>2013-06-24T09:58:42Z</time>
      </trkpt>
      <trkpt lat="44.58857" lon="2.35456">
        <ele>555.99</ele>
        <time>2013-06-24T09:59:16Z</time>
      </trkpt>
      <trkpt lat="44.58853" lon="2.35407">
        <ele>555.851</ele>
        <time>2013-06-24T09:59:45Z</time>
      </trkpt>
      <trkpt lat="44.5885" lon="2.35353">
        <ele>554.866</ele>
        <time>2013-06-24T10:00:17Z</time>
      </trkpt>
      <trkpt lat="44.58856" lon="2.35301">
        <ele>555.077</ele>
        <time>2013-06-24T10:00:48Z</time>
      </trkpt>
      <trkpt lat="44.58866" lon="2.35243">
        <ele>555.347</ele>
        <time>2013-06-24T10:01:24Z</time>
      </trkpt>
      <trkpt lat="44.58874" lon="2.35206">
        <ele>552.645</ele>
        <time>2013-06-24T10:01:49Z</time>
      </trkpt>
      <trkpt lat="44.58882" lon="2.35188">
        <ele>552.085</ele>
        <time>2013-06-24T10:02:12Z</time>
      </trkpt>
      <trkpt lat="44.58878" lon="2.35183">
        <ele>551.268</ele>
        <time>2013-06-24T10:02:49Z</time>
      </trkpt>
      <trkpt lat="44.58875" lon="2.35183">
        <ele>551.57</ele>
        <time>2013-06-24T10:03:26Z</time>
      </trkpt>
      <trkpt lat="44.58876" lon="2.35183">
        <ele>547.883</ele>
        <time>2013-06-24T10:03:47Z</time>
      </trkpt>
      <trkpt lat="44.58876" lon="2.35184">
        <ele>554.011</ele>
        <time>2013-06-24T10:03:48Z</time>
      </trkpt>
      <trkpt lat="44.58874" lon="2.35181">
        <ele>550.861</ele>
        <time>2013-06-24T10:04:01Z</time>
      </trkpt>
      <trkpt lat="44.58874" lon="2.35181">
        <ele>550.531</ele>
        <time>2013-06-24T10:04:26Z</time>
      </trkpt>
      <trkpt lat="44.58877" lon="2.35183">
        <ele>550.484</ele>
        <time>2013-06-24T10:04:56Z</time>
      </trkpt>
      <trkpt lat="44.58884" lon="2.35191">
        <ele>550.561</ele>
        <time>2013-06-24T10:05:23Z</time>
      </trkpt>
      <trkpt lat="44.58883" lon="2.35187">
        <ele>550.863</ele>
        <time>2013-06-24T10:05:50Z</time>
      </trkpt>
      <trkpt lat="44.5889" lon="2.35194">
        <ele>551.283</ele>
        <time>2013-06-24T10:06:22Z</time>
      </trkpt>
      <trkpt lat="44.58886" lon="2.35192">
        <ele>551.014</ele>
        <time>2013-06-24T10:06:43Z</time>
      </trkpt>
      <trkpt lat="44.58882" lon="2.35191">
        <ele>547.067</ele>
        <time>2013-06-24T10:07:00Z</time>
      </trkpt>
      <trkpt lat="44.58883" lon="2.3519">
        <ele>555.006</ele>
        <time>2013-06-24T10:07:01Z</time>
      </trkpt>
      <trkpt lat="44.58882" lon="2.3519">
        <ele>550.6</ele>
        <time>2013-06-24T10:07:02Z</time>
      </trkpt>
      <trkpt lat="44.58876" lon="2.35181">
        <ele>550.227</ele>
        <time>2013-06-24T10:07:28Z</time>
      </trkpt>
      <trkpt lat="44.58882" lon="2.35184">
        <ele>552.671</ele>
        <time>2013-06-24T10:07:48Z</time>
      </trkpt>
      <trkpt lat="44.58881" lon="2.35181">
        <ele>551.981</ele>
        <time>2013-06-24T10:08:22Z</time>
      </trkpt>
      <trkpt lat="44.58884" lon="2.3517">
        <ele>551.603</ele>
        <time>2013-06-24T10:08:43Z</time>
      </trkpt>
      <trkpt lat="44.5889" lon="2.3514">
        <ele>550.694</ele>
        <time>2013-06-24T10:09:06Z</time>
      </trkpt>
      <trkpt lat="44.58891" lon="2.3511">
        <ele>550.245</ele>
        <time>2013-06-24T10:09:28Z</time>
      </trkpt>
      <trkpt lat="44.58894" lon="2.35068">
        <ele>549.662</ele>
        <time>2013-06-24T10:09:55Z</time>
      </trkpt>
      <trkpt lat="44.58898" lon="2.3503">
        <ele>549.588</ele>
        <time>2013-06-24T10:10:18Z</time>
      </trkpt>
      <trkpt lat="44.58902" lon="2.34991">
        <ele>549.942</ele>
        <time>2013-06-24T10:10:42Z</time>
      </trkpt>
      <trkpt lat="44.58907" lon="2.34948">
        <ele>550.468</ele>
        <time>2013-06-24T10:11:08Z</time>
      </trkpt>
      <trkpt lat="44.58906" lon="2.34905">
        <ele>549.834</ele>
        <time>2013-06-24T10:11:36Z</time>
      </trkpt>
      <trkpt lat="44.58895" lon="2.3487">
        <ele>549.871</ele>
        <time>2013-06-24T10:12:02Z</time>
      </trkpt>
      <trkpt lat="44.58881" lon="2.34833">
        <ele>548.19</ele>
        <time>2013-06-24T10:12:28Z</time>
      </trkpt>
      <trkpt lat="44.58864" lon="2.34791">
        <ele>546.763</ele>
        <time>2013-06-24T10:12:58Z</time>
      </trkpt>
      <trkpt lat="44.58843" lon="2.34749">
        <ele>545.176</ele>
        <time>2013-06-24T10:13:31Z</time>
      </trkpt>
      <trkpt lat="44.58836" lon="2.34739">
        <ele>543.198</ele>
        <time>2013-06-24T10:13:40Z</time>
      </trkpt>
      <trkpt lat="44.58823" lon="2.34723">
        <ele>542.293</ele>
        <time>2013-06-24T10:13:57Z</time>
      </trkpt>
      <trkpt lat="44.5881" lon="2.34725">
        <ele>539.66</ele>
        <time>2013-06-24T10:14:11Z</time>
      </trkpt>
      <trkpt lat="44.58799" lon="2.34731">
        <ele>537.106</ele>
        <time>2013-06-24T10:14:28Z</time>
      </trkpt>
      <trkpt lat="44.58783" lon="2.34728">
        <ele>534.102</ele>
        <time>2013-06-24T10:14:46Z</time>
      </trkpt>
      <trkpt lat="44.58771" lon="2.34715">
        <ele>531.074</ele>
        <time>2013-06-24T10:15:02Z</time>
      </trkpt>
      <trkpt lat="44.58762" lon="2.34703">
        <ele>528.612</ele>
        <time>2013-06-24T10:15:18Z</time>
      </trkpt>
      <trkpt lat="44.58753" lon="2.34691">
        <ele>526.959</ele>
        <time>2013-06-24T10:15:31Z</time>
      </trkpt>
      <trkpt lat="44.58743" lon="2.34674">
        <ele>523.563</ele>
        <time>2013-06-24T10:15:46Z</time>
      </trkpt>
      <trkpt lat="44.58733" lon="2.34653">
        <ele>521.755</ele>
        <time>2013-06-24T10:16:04Z</time>
      </trkpt>
      <trkpt lat="44.58723" lon="2.34629">
        <ele>519.495</ele>
        <time>2013-06-24T10:16:24Z</time>
      </trkpt>
      <trkpt lat="44.58719" lon="2.34615">
        <ele>517.377</ele>
        <time>2013-06-24T10:16:34Z</time>
      </trkpt>
      <trkpt lat="44.58719" lon="2.34587">
        <ele>514.202</ele>
        <time>2013-06-24T10:16:54Z</time>
      </trkpt>
      <trkpt lat="44.58721" lon="2.34558">
        <ele>511.936</ele>
        <time>2013-06-24T10:17:16Z</time>
      </trkpt>
      <trkpt lat="44.58725" lon="2.34541">
        <ele>508.896</ele>
        <time>2013-06-24T10:17:29Z</time>
      </trkpt>
      <trkpt lat="44.58726" lon="2.3454">
        <ele>508.643</ele>
        <time>2013-06-24T10:17:30Z</time>
      </trkpt>
      <trkpt lat="44.58732" lon="2.34519">
        <ele>505.571</ele>
        <time>2013-06-24T10:17:49Z</time>
      </trkpt>
      <trkpt lat="44.58743" lon="2.34499">
        <ele>503.669</ele>
        <time>2013-06-24T10:18:05Z</time>
      </trkpt>
      <trkpt lat="44.58748" lon="2.34479">
        <ele>500.639</ele>
        <time>2013-06-24T10:18:22Z</time>
      </trkpt>
      <trkpt lat="44.58749" lon="2.34461">
        <ele>499.468</ele>
        <time>2013-06-24T10:18:39Z</time>
      </trkpt>
      <trkpt lat="44.58751" lon="2.3444">
        <ele>496.073</ele>
        <time>2013-06-24T10:18:56Z</time>
      </trkpt>
      <trkpt lat="44.58753" lon="2.34433">
        <ele>494.738</ele>
        <time>2013-06-24T10:19:01Z</time>
      </trkpt>
      <trkpt lat="44.58756" lon="2.34426">
        <ele>493.664</ele>
        <time>2013-06-24T10:19:07Z</time>
      </trkpt>
      <trkpt lat="44.58757" lon="2.34407">
        <ele>490.879</ele>
        <time>2013-06-24T10:19:22Z</time>
      </trkpt>
      <trkpt lat="44.58761" lon="2.34386">
        <ele>488.876</ele>
        <time>2013-06-24T10:19:38Z</time>
      </trkpt>
      <trkpt lat="44.58765" lon="2.34368">
        <ele>486.268</ele>
        <time>2013-06-24T10:19:53Z</time>
      </trkpt>
      <trkpt lat="44.58766" lon="2.3435">
        <ele>484.833</ele>
        <time>2013-06-24T10:20:09Z</time>
      </trkpt>
      <trkpt lat="44.58766" lon="2.34335">
        <ele>484.538</ele>
        <time>2013-06-24T10:20:22Z</time>
      </trkpt>
      <trkpt lat="44.58763" lon="2.34316">
        <ele>481.524</ele>
        <time>2013-06-24T10:20:38Z</time>
      </trkpt>
      <trkpt lat="44.58766" lon="2.34294">
        <ele>479.575</ele>
        <time>2013-06-24T10:20:57Z</time>
      </trkpt>
      <trkpt lat="44.58763" lon="2.3427">
        <ele>477.175</ele>
        <time>2013-06-24T10:21:14Z</time>
      </trkpt>
      <trkpt lat="44.58763" lon="2.34246">
        <ele>475.655</ele>
        <time>2013-06-24T10:21:31Z</time>
      </trkpt>
      <trkpt lat="44.58768" lon="2.34223">
        <ele>475.473</ele>
        <time>2013-06-24T10:21:46Z</time>
      </trkpt>
      <trkpt lat="44.58768" lon="2.34221">
        <ele>475.107</ele>
        <time>2013-06-24T10:21:47Z</time>
      </trkpt>
      <trkpt lat="44.58776" lon="2.34196">
        <ele>473.694</ele>
        <time>2013-06-24T10:22:06Z</time>
      </trkpt>
      <trkpt lat="44.58777" lon="2.3418">
        <ele>472.476</ele>
        <time>2013-06-24T10:22:21Z</time>
      </trkpt>
      <trkpt lat="44.58778" lon="2.34156">
        <ele>470.458</ele>
        <time>2013-06-24T10:22:38Z</time>
      </trkpt>
      <trkpt lat="44.58777" lon="2.3415">
        <ele>471.17</ele>
        <time>2013-06-24T10:22:42Z</time>
      </trkpt>
      <trkpt lat="44.58774" lon="2.34117">
        <ele>471.338</ele>
        <time>2013-06-24T10:23:05Z</time>
      </trkpt>
      <trkpt lat="44.58782" lon="2.34089">
        <ele>471.521</ele>
        <time>2013-06-24T10:23:24Z</time>
      </trkpt>
      <trkpt lat="44.58783" lon="2.34085">
        <ele>471.679</ele>
        <time>2013-06-24T10:23:27Z</time>
      </trkpt>
      <trkpt lat="44.58788" lon="2.34053">
        <ele>472.033</ele>
        <time>2013-06-24T10:23:48Z</time>
      </trkpt>
      <trkpt lat="44.58792" lon="2.34037">
        <ele>472.552</ele>
        <time>2013-06-24T10:24:07Z</time>
      </trkpt>
      <trkpt lat="44.58799" lon="2.34002">
        <ele>472.708</ele>
        <time>2013-06-24T10:24:32Z</time>
      </trkpt>
      <trkpt lat="44.58806" lon="2.33974">
        <ele>474.59</ele>
        <time>2013-06-24T10:24:54Z</time>
      </trkpt>
      <trkpt lat="44.58814" lon="2.33948">
        <ele>477.302</ele>
        <time>2013-06-24T10:25:17Z</time>
      </trkpt>
      <trkpt lat="44.58819" lon="2.33932">
        <ele>478.66</ele>
        <time>2013-06-24T10:25:40Z</time>
      </trkpt>
      <trkpt lat="44.58829" lon="2.33923">
        <ele>481.158</ele>
        <time>2013-06-24T10:25:59Z</time>
      </trkpt>
      <trkpt lat="44.58834" lon="2.33919">
        <ele>480.328</ele>
        <time>2013-06-24T10:26:06Z</time>
      </trkpt>
      <trkpt lat="44.58858" lon="2.33911">
        <ele>480.47</ele>
        <time>2013-06-24T10:26:30Z</time>
      </trkpt>
      <trkpt lat="44.58882" lon="2.339">
        <ele>480.649</ele>
        <time>2013-06-24T10:26:54Z</time>
      </trkpt>
      <trkpt lat="44.589" lon="2.33892">
        <ele>481.962</ele>
        <time>2013-06-24T10:27:12Z</time>
      </trkpt>
      <trkpt lat="44.58927" lon="2.33879">
        <ele>480.72</ele>
        <time>2013-06-24T10:27:39Z</time>
      </trkpt>
      <trkpt lat="44.58932" lon="2.33881">
        <ele>480.354</ele>
        <time>2013-06-24T10:28:04Z</time>
      </trkpt>
      <trkpt lat="44.58948" lon="2.33879">
        <ele>478.11</ele>
        <time>2013-06-24T10:28:20Z</time>
      </trkpt>
      <trkpt lat="44.58968" lon="2.33879">
        <ele>475.762</ele>
        <time>2013-06-24T10:28:38Z</time>
      </trkpt>
      <trkpt lat="44.58972" lon="2.33878">
        <ele>474.183</ele>
        <time>2013-06-24T10:28:42Z</time>
      </trkpt>
      <trkpt lat="44.58985" lon="2.33874">
        <ele>474.46</ele>
        <time>2013-06-24T10:28:53Z</time>
      </trkpt>
      <trkpt lat="44.59003" lon="2.33865">
        <ele>473.52</ele>
        <time>2013-06-24T10:29:10Z</time>
      </trkpt>
      <trkpt lat="44.59024" lon="2.33847">
        <ele>474.446</ele>
        <time>2013-06-24T10:29:33Z</time>
      </trkpt>
      <trkpt lat="44.59043" lon="2.33833">
        <ele>476.356</ele>
        <time>2013-06-24T10:29:56Z</time>
      </trkpt>
      <trkpt lat="44.59062" lon="2.33823">
        <ele>477.416</ele>
        <time>2013-06-24T10:30:16Z</time>
      </trkpt>
      <trkpt lat="44.59081" lon="2.33811">
        <ele>478.663</ele>
        <time>2013-06-24T10:30:37Z</time>
      </trkpt>
      <trkpt lat="44.59094" lon="2.338">
        <ele>479.081</ele>
        <time>2013-06-24T10:30:52Z</time>
      </trkpt>
      <trkpt lat="44.59109" lon="2.33786">
        <ele>479.528</ele>
        <time>2013-06-24T10:31:10Z</time>
      </trkpt>
      <trkpt lat="44.59118" lon="2.33772">
        <ele>480.203</ele>
        <time>2013-06-24T10:31:27Z</time>
      </trkpt>
      <trkpt lat="44.59122" lon="2.33763">
        <ele>478.51</ele>
        <time>2013-06-24T10:31:35Z</time>
      </trkpt>
      <trkpt lat="44.59129" lon="2.3375">
        <ele>476.412</ele>
        <time>2013-06-24T10:31:48Z</time>
      </trkpt>
      <trkpt lat="44.59142" lon="2.33732">
        <ele>475.767</ele>
        <time>2013-06-24T10:32:10Z</time>
      </trkpt>
      <trkpt lat="44.59142" lon="2.33729">
        <ele>475.743</ele>
        <time>2013-06-24T10:33:01Z</time>
      </trkpt>
      <trkpt lat="44.59144" lon="2.33728">
        <ele>474.765</ele>
        <time>2013-06-24T10:33:42Z</time>
      </trkpt>
      <trkpt lat="44.59145" lon="2.3373">
        <ele>475.164</ele>
        <time>2013-06-24T10:34:52Z</time>
      </trkpt>
      <trkpt lat="44.59139" lon="2.33727">
        <ele>475.25</ele>
        <time>2013-06-24T10:36:06Z</time>
      </trkpt>
      <trkpt lat="44.59151" lon="2.33724">
        <ele>477.195</ele>
        <time>2013-06-24T10:36:44Z</time>
      </trkpt>
      <trkpt lat="44.59164" lon="2.33713">
        <ele>476.878</ele>
        <time>2013-06-24T10:37:04Z</time>
      </trkpt>
      <trkpt lat="44.59173" lon="2.337">
        <ele>475.107</ele>
        <time>2013-06-24T10:37:21Z</time>
      </trkpt>
      <trkpt lat="44.59183" lon="2.33685">
        <ele>473.954</ele>
        <time>2013-06-24T10:37:42Z</time>
      </trkpt>
      <trkpt lat="44.59191" lon="2.33677">
        <ele>470.586</ele>
        <time>2013-06-24T10:37:55Z</time>
      </trkpt>
      <trkpt lat="44.59193" lon="2.33662">
        <ele>468.252</ele>
        <time>2013-06-24T10:38:10Z</time>
      </trkpt>
      <trkpt lat="44.59192" lon="2.33643">
        <ele>467.082</ele>
        <time>2013-06-24T10:38:27Z</time>
      </trkpt>
      <trkpt lat="44.59193" lon="2.33636">
        <ele>463.87</ele>
        <time>2013-06-24T10:38:38Z</time>
      </trkpt>
      <trkpt lat="44.59192" lon="2.33624">
        <ele>460.864</ele>
        <time>2013-06-24T10:38:55Z</time>
      </trkpt>
      <trkpt lat="44.59193" lon="2.3362">
        <ele>458.535</ele>
        <time>2013-06-24T10:39:08Z</time>
      </trkpt>
      <trkpt lat="44.59189" lon="2.3362">
        <ele>456.758</ele>
        <time>2013-06-24T10:39:18Z</time>
      </trkpt>
      <trkpt lat="44.59182" lon="2.33616">
        <ele>453.751</ele>
        <time>2013-06-24T10:39:30Z</time>
      </trkpt>
      <trkpt lat="44.59168" lon="2.33602">
        <ele>451.363</ele>
        <time>2013-06-24T10:39:47Z</time>
      </trkpt>
      <trkpt lat="44.5916" lon="2.33588">
        <ele>448.237</ele>
        <time>2013-06-24T10:40:02Z</time>
      </trkpt>
      <trkpt lat="44.59152" lon="2.33577">
        <ele>446.488</ele>
        <time>2013-06-24T10:40:15Z</time>
      </trkpt>
      <trkpt lat="44.59147" lon="2.33568">
        <ele>444.985</ele>
        <time>2013-06-24T10:40:29Z</time>
      </trkpt>
      <trkpt lat="44.59142" lon="2.33556">
        <ele>442.734</ele>
        <time>2013-06-24T10:40:44Z</time>
      </trkpt>
      <trkpt lat="44.59133" lon="2.33544">
        <ele>441.255</ele>
        <time>2013-06-24T10:40:59Z</time>
      </trkpt>
      <trkpt lat="44.59123" lon="2.33532">
        <ele>439.392</ele>
        <time>2013-06-24T10:41:11Z</time>
      </trkpt>
      <trkpt lat="44.59118" lon="2.33518">
        <ele>435.913</ele>
        <time>2013-06-24T10:41:25Z</time>
      </trkpt>
      <trkpt lat="44.59115" lon="2.33502">
        <ele>432.863</ele>
        <time>2013-06-24T10:41:44Z</time>
      </trkpt>
      <trkpt lat="44.59111" lon="2.33485">
        <ele>429.848</ele>
        <time>2013-06-24T10:42:02Z</time>
      </trkpt>
      <trkpt lat="44.59105" lon="2.33476">
        <ele>428.457</ele>
        <time>2013-06-24T10:42:15Z</time>
      </trkpt>
      <trkpt lat="44.59098" lon="2.33465">
        <ele>425.433</ele>
        <time>2013-06-24T10:42:29Z</time>
      </trkpt>
      <trkpt lat="44.59092" lon="2.33456">
        <ele>423.444</ele>
        <time>2013-06-24T10:42:46Z</time>
      </trkpt>
      <trkpt lat="44.59085" lon="2.33464">
        <ele>421.666</ele>
        <time>2013-06-24T10:43:02Z</time>
      </trkpt>
      <trkpt lat="44.59074" lon="2.33478">
        <ele>419.724</ele>
        <time>2013-06-24T10:43:20Z</time>
      </trkpt>
      <trkpt lat="44.59066" lon="2.33487">
        <ele>417.682</ele>
        <time>2013-06-24T10:43:36Z</time>
      </trkpt>
      <trkpt lat="44.59052" lon="2.33498">
        <ele>415.345</ele>
        <time>2013-06-24T10:43:53Z</time>
      </trkpt>
      <trkpt lat="44.59036" lon="2.33503">
        <ele>412.589</ele>
        <time>2013-06-24T10:44:10Z</time>
      </trkpt>
      <trkpt lat="44.59019" lon="2.33513">
        <ele>409.222</ele>
        <time>2013-06-24T10:44:31Z</time>
      </trkpt>
      <trkpt lat="44.59018" lon="2.33514">
        <ele>409.209</ele>
        <time>2013-06-24T10:44:32Z</time>
      </trkpt>
      <trkpt lat="44.59006" lon="2.33518">
        <ele>407.901</ele>
        <time>2013-06-24T10:44:46Z</time>
      </trkpt>
      <trkpt lat="44.59001" lon="2.33507">
        <ele>404.682</ele>
        <time>2013-06-24T10:45:00Z</time>
      </trkpt>
      <trkpt lat="44.59" lon="2.33491">
        <ele>402.546</ele>
        <time>2013-06-24T10:45:17Z</time>
      </trkpt>
      <trkpt lat="44.59006" lon="2.33473">
        <ele>400.244</ele>
        <time>2013-06-24T10:45:35Z</time>
      </trkpt>
      <trkpt lat="44.59012" lon="2.33466">
        <ele>398.26</ele>
        <time>2013-06-24T10:45:49Z</time>
      </trkpt>
      <trkpt lat="44.59007" lon="2.33465">
        <ele>395.948</ele>
        <time>2013-06-24T10:46:03Z</time>
      </trkpt>
      <trkpt lat="44.58994" lon="2.33473">
        <ele>393.738</ele>
        <time>2013-06-24T10:46:20Z</time>
      </trkpt>
      <trkpt lat="44.58986" lon="2.33483">
        <ele>391.366</ele>
        <time>2013-06-24T10:46:37Z</time>
      </trkpt>
      <trkpt lat="44.58987" lon="2.33494">
        <ele>389.207</ele>
        <time>2013-06-24T10:46:52Z</time>
      </trkpt>
      <trkpt lat="44.58983" lon="2.33509">
        <ele>387.037</ele>
        <time>2013-06-24T10:47:06Z</time>
      </trkpt>
      <trkpt lat="44.58974" lon="2.33515">
        <ele>386.012</ele>
        <time>2013-06-24T10:47:18Z</time>
      </trkpt>
      <trkpt lat="44.58965" lon="2.33522">
        <ele>385.785</ele>
        <time>2013-06-24T10:47:32Z</time>
      </trkpt>
      <trkpt lat="44.5895" lon="2.33527">
        <ele>385.687</ele>
        <time>2013-06-24T10:47:45Z</time>
      </trkpt>
      <trkpt lat="44.58939" lon="2.33532">
        <ele>385.92</ele>
        <time>2013-06-24T10:48:01Z</time>
      </trkpt>
      <trkpt lat="44.58925" lon="2.33532">
        <ele>386.154</ele>
        <time>2013-06-24T10:48:14Z</time>
      </trkpt>
      <trkpt lat="44.58907" lon="2.33546">
        <ele>385.988</ele>
        <time>2013-06-24T10:48:35Z</time>
      </trkpt>
      <trkpt lat="44.58908" lon="2.33547">
        <ele>386.749</ele>
        <time>2013-06-24T10:49:05Z</time>
      </trkpt>
      <trkpt lat="44.58901" lon="2.33538">
        <ele>387.792</ele>
        <time>2013-06-24T10:49:26Z</time>
      </trkpt>
      <trkpt lat="44.5891" lon="2.33518">
        <ele>387.99</ele>
        <time>2013-06-24T10:50:17Z</time>
      </trkpt>
      <trkpt lat="44.58908" lon="2.33531">
        <ele>388.095</ele>
        <time>2013-06-24T10:51:39Z</time>
      </trkpt>
      <trkpt lat="44.58914" lon="2.33531">
        <ele>389.09</ele>
        <time>2013-06-24T10:52:48Z</time>
      </trkpt>
      <trkpt lat="44.58912" lon="2.33515">
        <ele>390.212</ele>
        <time>2013-06-24T10:54:25Z</time>
      </trkpt>
      <trkpt lat="44.58911" lon="2.33513">
        <ele>391.598</ele>
        <time>2013-06-24T10:55:16Z</time>
      </trkpt>
      <trkpt lat="44.58918" lon="2.33509">
        <ele>392.255</ele>
        <time>2013-06-24T10:56:04Z</time>
      </trkpt>
      <trkpt lat="44.58912" lon="2.33508">
        <ele>392.664</ele>
        <time>2013-06-24T10:56:38Z</time>
      </trkpt>
      <trkpt lat="44.58913" lon="2.33519">
        <ele>392.481</ele>
        <time>2013-06-24T10:57:10Z</time>
      </trkpt>
      <trkpt lat="44.58913" lon="2.33509">
        <ele>393.332</ele>
        <time>2013-06-24T10:57:47Z</time>
      </trkpt>
      <trkpt lat="44.58911" lon="2.33522">
        <ele>394.019</ele>
        <time>2013-06-24T10:58:11Z</time>
      </trkpt>
      <trkpt lat="44.58907" lon="2.3354">
        <ele>394.639</ele>
        <time>2013-06-24T10:58:55Z</time>
      </trkpt>
      <trkpt lat="44.58905" lon="2.33547">
        <ele>395.099</ele>
        <time>2013-06-24T10:59:23Z</time>
      </trkpt>
      <trkpt lat="44.58909" lon="2.33552">
        <ele>395.225</ele>
        <time>2013-06-24T10:59:48Z</time>
      </trkpt>
      <trkpt lat="44.58899" lon="2.33556">
        <ele>395.516</ele>
        <time>2013-06-24T11:00:20Z</time>
      </trkpt>
      <trkpt lat="44.58903" lon="2.33554">
        <ele>395.903</ele>
        <time>2013-06-24T11:00:39Z</time>
      </trkpt>
      <trkpt lat="44.58898" lon="2.33531">
        <ele>395.79</ele>
        <time>2013-06-24T11:01:08Z</time>
      </trkpt>
      <trkpt lat="44.58893" lon="2.33534">
        <ele>396.111</ele>
        <time>2013-06-24T11:01:29Z</time>
      </trkpt>
      <trkpt lat="44.58903" lon="2.33523">
        <ele>397.318</ele>
        <time>2013-06-24T11:01:46Z</time>
      </trkpt>
      <trkpt lat="44.58913" lon="2.33514">
        <ele>400.242</ele>
        <time>2013-06-24T11:02:03Z</time>
      </trkpt>
      <trkpt lat="44.58926" lon="2.33511">
        <ele>402.281</ele>
        <time>2013-06-24T11:02:19Z</time>
      </trkpt>
      <trkpt lat="44.5893" lon="2.33501">
        <ele>403.061</ele>
        <time>2013-06-24T11:02:31Z</time>
      </trkpt>
      <trkpt lat="44.58932" lon="2.33493">
        <ele>405.342</ele>
        <time>2013-06-24T11:02:53Z</time>
      </trkpt>
      <trkpt lat="44.58932" lon="2.33482">
        <ele>408.688</ele>
        <time>2013-06-24T11:03:13Z</time>
      </trkpt>
      <trkpt lat="44.58935" lon="2.33458">
        <ele>411.76</ele>
        <time>2013-06-24T11:03:37Z</time>
      </trkpt>
      <trkpt lat="44.58939" lon="2.33447">
        <ele>412.509</ele>
        <time>2013-06-24T11:03:51Z</time>
      </trkpt>
      <trkpt lat="44.58945" lon="2.33437">
        <ele>414.453</ele>
        <time>2013-06-24T11:04:04Z</time>
      </trkpt>
      <trkpt lat="44.58951" lon="2.33424">
        <ele>414.997</ele>
        <time>2013-06-24T11:04:17Z</time>
      </trkpt>
      <trkpt lat="44.58955" lon="2.33412">
        <ele>416.949</ele>
        <time>2013-06-24T11:04:29Z</time>
      </trkpt>
      <trkpt lat="44.58963" lon="2.33398">
        <ele>418.457</ele>
        <time>2013-06-24T11:04:55Z</time>
      </trkpt>
      <trkpt lat="44.58968" lon="2.33386">
        <ele>420.489</ele>
        <time>2013-06-24T11:05:13Z</time>
      </trkpt>
      <trkpt lat="44.58975" lon="2.33373">
        <ele>423.051</ele>
        <time>2013-06-24T11:05:30Z</time>
      </trkpt>
      <trkpt lat="44.58974" lon="2.33366">
        <ele>424.93</ele>
        <time>2013-06-24T11:05:47Z</time>
      </trkpt>
      <trkpt lat="44.5897" lon="2.33362">
        <ele>425.483</ele>
        <time>2013-06-24T11:06:00Z</time>
      </trkpt>
      <trkpt lat="44.58959" lon="2.33349">
        <ele>424.326</ele>
        <time>2013-06-24T11:06:17Z</time>
      </trkpt>
      <trkpt lat="44.58948" lon="2.33338">
        <ele>424.209</ele>
        <time>2013-06-24T11:06:31Z</time>
      </trkpt>
      <trkpt lat="44.58943" lon="2.33326">
        <ele>423.858</ele>
        <time>2013-06-24T11:06:42Z</time>
      </trkpt>
      <trkpt lat="44.58937" lon="2.33313">
        <ele>424.409</ele>
        <time>2013-06-24T11:06:56Z</time>
      </trkpt>
      <trkpt lat="44.58934" lon="2.33303">
        <ele>425.284</ele>
        <time>2013-06-24T11:07:06Z</time>
      </trkpt>
      <trkpt lat="44.58926" lon="2.33288">
        <ele>424.995</ele>
        <time>2013-06-24T11:07:20Z</time>
      </trkpt>
      <trkpt lat="44.58919" lon="2.33276">
        <ele>425.303</ele>
        <time>2013-06-24T11:07:32Z</time>
      </trkpt>
      <trkpt lat="44.58914" lon="2.33267">
        <ele>425.517</ele>
        <time>2013-06-24T11:07:43Z</time>
      </trkpt>
      <trkpt lat="44.58912" lon="2.33259">
        <ele>425.095</ele>
        <time>2013-06-24T11:07:49Z</time>
      </trkpt>
      <trkpt lat="44.58912" lon="2.33236">
        <ele>424.986</ele>
        <time>2013-06-24T11:08:07Z</time>
      </trkpt>
      <trkpt lat="44.58917" lon="2.3321">
        <ele>425.934</ele>
        <time>2013-06-24T11:08:28Z</time>
      </trkpt>
      <trkpt lat="44.58917" lon="2.33197">
        <ele>425.435</ele>
        <time>2013-06-24T11:08:41Z</time>
      </trkpt>
      <trkpt lat="44.58909" lon="2.33187">
        <ele>425.516</ele>
        <time>2013-06-24T11:08:55Z</time>
      </trkpt>
      <trkpt lat="44.58902" lon="2.3318">
        <ele>425.936</ele>
        <time>2013-06-24T11:09:05Z</time>
      </trkpt>
      <trkpt lat="44.58892" lon="2.33169">
        <ele>427.262</ele>
        <time>2013-06-24T11:09:22Z</time>
      </trkpt>
      <trkpt lat="44.58884" lon="2.33159">
        <ele>428.174</ele>
        <time>2013-06-24T11:09:34Z</time>
      </trkpt>
      <trkpt lat="44.58879" lon="2.3315">
        <ele>428.833</ele>
        <time>2013-06-24T11:09:45Z</time>
      </trkpt>
      <trkpt lat="44.58873" lon="2.33139">
        <ele>430.226</ele>
        <time>2013-06-24T11:09:57Z</time>
      </trkpt>
      <trkpt lat="44.58864" lon="2.33127">
        <ele>431.627</ele>
        <time>2013-06-24T11:10:12Z</time>
      </trkpt>
      <trkpt lat="44.58858" lon="2.33114">
        <ele>431.672</ele>
        <time>2013-06-24T11:10:27Z</time>
      </trkpt>
      <trkpt lat="44.58851" lon="2.33101">
        <ele>432.356</ele>
        <time>2013-06-24T11:10:42Z</time>
      </trkpt>
      <trkpt lat="44.58845" lon="2.33089">
        <ele>433.699</ele>
        <time>2013-06-24T11:10:55Z</time>
      </trkpt>
      <trkpt lat="44.58839" lon="2.33073">
        <ele>434.408</ele>
        <time>2013-06-24T11:11:11Z</time>
      </trkpt>
      <trkpt lat="44.58832" lon="2.33063">
        <ele>435.856</ele>
        <time>2013-06-24T11:11:25Z</time>
      </trkpt>
      <trkpt lat="44.58824" lon="2.33053">
        <ele>437.559</ele>
        <time>2013-06-24T11:11:36Z</time>
      </trkpt>
      <trkpt lat="44.58817" lon="2.33042">
        <ele>438.299</ele>
        <time>2013-06-24T11:11:50Z</time>
      </trkpt>
      <trkpt lat="44.58809" lon="2.3303">
        <ele>438.539</ele>
        <time>2013-06-24T11:12:05Z</time>
      </trkpt>
      <trkpt lat="44.58799" lon="2.33017">
        <ele>439.688</ele>
        <time>2013-06-24T11:12:21Z</time>
      </trkpt>
      <trkpt lat="44.58793" lon="2.33004">
        <ele>440.367</ele>
        <time>2013-06-24T11:12:36Z</time>
      </trkpt>
      <trkpt lat="44.58787" lon="2.32992">
        <ele>440.945</ele>
        <time>2013-06-24T11:12:48Z</time>
      </trkpt>
      <trkpt lat="44.58786" lon="2.32975">
        <ele>441.681</ele>
        <time>2013-06-24T11:13:03Z</time>
      </trkpt>
      <trkpt lat="44.58787" lon="2.32958">
        <ele>442.549</ele>
        <time>2013-06-24T11:13:16Z</time>
      </trkpt>
      <trkpt lat="44.58784" lon="2.32946">
        <ele>443.325</ele>
        <time>2013-06-24T11:13:27Z</time>
      </trkpt>
      <trkpt lat="44.5878" lon="2.32928">
        <ele>445.007</ele>
        <time>2013-06-24T11:13:45Z</time>
      </trkpt>
      <trkpt lat="44.58774" lon="2.3292">
        <ele>445.739</ele>
        <time>2013-06-24T11:13:57Z</time>
      </trkpt>
      <trkpt lat="44.58768" lon="2.32912">
        <ele>446.128</ele>
        <time>2013-06-24T11:14:09Z</time>
      </trkpt>
      <trkpt lat="44.5876" lon="2.32904">
        <ele>448.618</ele>
        <time>2013-06-24T11:14:22Z</time>
      </trkpt>
      <trkpt lat="44.5875" lon="2.32896">
        <ele>450.494</ele>
        <time>2013-06-24T11:14:37Z</time>
      </trkpt>
      <trkpt lat="44.58742" lon="2.32889">
        <ele>451.451</ele>
        <time>2013-06-24T11:14:49Z</time>
      </trkpt>
      <trkpt lat="44.58733" lon="2.3288">
        <ele>452.474</ele>
        <time>2013-06-24T11:15:02Z</time>
      </trkpt>
      <trkpt lat="44.58725" lon="2.32875">
        <ele>453.394</ele>
        <time>2013-06-24T11:15:13Z</time>
      </trkpt>
      <trkpt lat="44.5872" lon="2.32868">
        <ele>454.303</ele>
        <time>2013-06-24T11:15:24Z</time>
      </trkpt>
      <trkpt lat="44.58713" lon="2.32857">
        <ele>455.222</ele>
        <time>2013-06-24T11:15:39Z</time>
      </trkpt>
      <trkpt lat="44.58708" lon="2.32845">
        <ele>455.152</ele>
        <time>2013-06-24T11:15:51Z</time>
      </trkpt>
      <trkpt lat="44.587" lon="2.32837">
        <ele>456.362</ele>
        <time>2013-06-24T11:16:06Z</time>
      </trkpt>
      <trkpt lat="44.58691" lon="2.32828">
        <ele>458.806</ele>
        <time>2013-06-24T11:16:22Z</time>
      </trkpt>
      <trkpt lat="44.58681" lon="2.3282">
        <ele>459.114</ele>
        <time>2013-06-24T11:16:36Z</time>
      </trkpt>
      <trkpt lat="44.58671" lon="2.32813">
        <ele>460.443</ele>
        <time>2013-06-24T11:16:52Z</time>
      </trkpt>
      <trkpt lat="44.58666" lon="2.32805">
        <ele>461.724</ele>
        <time>2013-06-24T11:17:06Z</time>
      </trkpt>
      <trkpt lat="44.58657" lon="2.32804">
        <ele>462.599</ele>
        <time>2013-06-24T11:17:18Z</time>
      </trkpt>
      <trkpt lat="44.58647" lon="2.32802">
        <ele>463.932</ele>
        <time>2013-06-24T11:17:32Z</time>
      </trkpt>
      <trkpt lat="44.58632" lon="2.32803">
        <ele>464.821</ele>
        <time>2013-06-24T11:17:50Z</time>
      </trkpt>
      <trkpt lat="44.58625" lon="2.32799">
        <ele>464.68</ele>
        <time>2013-06-24T11:17:59Z</time>
      </trkpt>
      <trkpt lat="44.58611" lon="2.32798">
        <ele>466.863</ele>
        <time>2013-06-24T11:18:18Z</time>
      </trkpt>
      <trkpt lat="44.58601" lon="2.32796">
        <ele>468.286</ele>
        <time>2013-06-24T11:18:30Z</time>
      </trkpt>
      <trkpt lat="44.58591" lon="2.32789">
        <ele>469.213</ele>
        <time>2013-06-24T11:18:44Z</time>
      </trkpt>
      <trkpt lat="44.58589" lon="2.32776">
        <ele>470.028</ele>
        <time>2013-06-24T11:19:02Z</time>
      </trkpt>
      <trkpt lat="44.5858" lon="2.32771">
        <ele>470.611</ele>
        <time>2013-06-24T11:19:13Z</time>
      </trkpt>
      <trkpt lat="44.58575" lon="2.32746">
        <ele>472.544</ele>
        <time>2013-06-24T11:19:33Z</time>
      </trkpt>
      <trkpt lat="44.5858" lon="2.32727">
        <ele>473.267</ele>
        <time>2013-06-24T11:19:53Z</time>
      </trkpt>
      <trkpt lat="44.58586" lon="2.32706">
        <ele>474.393</ele>
        <time>2013-06-24T11:20:12Z</time>
      </trkpt>
      <trkpt lat="44.58594" lon="2.32689">
        <ele>475.328</ele>
        <time>2013-06-24T11:20:25Z</time>
      </trkpt>
      <trkpt lat="44.58602" lon="2.32667">
        <ele>475.409</ele>
        <time>2013-06-24T11:20:43Z</time>
      </trkpt>
      <trkpt lat="44.58606" lon="2.32651">
        <ele>474.876</ele>
        <time>2013-06-24T11:20:59Z</time>
      </trkpt>
      <trkpt lat="44.58609" lon="2.32639">
        <ele>474.317</ele>
        <time>2013-06-24T11:21:12Z</time>
      </trkpt>
      <trkpt lat="44.5861" lon="2.32622">
        <ele>471.722</ele>
        <time>2013-06-24T11:21:28Z</time>
      </trkpt>
      <trkpt lat="44.58611" lon="2.32607">
        <ele>470.593</ele>
        <time>2013-06-24T11:21:44Z</time>
      </trkpt>
      <trkpt lat="44.58618" lon="2.32598">
        <ele>470.531</ele>
        <time>2013-06-24T11:22:04Z</time>
      </trkpt>
      <trkpt lat="44.58616" lon="2.32597">
        <ele>468.858</ele>
        <time>2013-06-24T11:22:21Z</time>
      </trkpt>
      <trkpt lat="44.58618" lon="2.32597">
        <ele>468.981</ele>
        <time>2013-06-24T11:23:18Z</time>
      </trkpt>
      <trkpt lat="44.58622" lon="2.3259">
        <ele>467.826</ele>
        <time>2013-06-24T11:23:48Z</time>
      </trkpt>
      <trkpt lat="44.5862" lon="2.32589">
        <ele>469.052</ele>
        <time>2013-06-24T11:24:29Z</time>
      </trkpt>
      <trkpt lat="44.58618" lon="2.32592">
        <ele>468.603</ele>
        <time>2013-06-24T11:30:04Z</time>
      </trkpt>
      <trkpt lat="44.58621" lon="2.32585">
        <ele>469.548</ele>
        <time>2013-06-24T11:30:41Z</time>
      </trkpt>
      <trkpt lat="44.5862" lon="2.32587">
        <ele>469.292</ele>
        <time>2013-06-24T11:31:07Z</time>
      </trkpt>
      <trkpt lat="44.58622" lon="2.3258">
        <ele>468.45</ele>
        <time>2013-06-24T11:31:19Z</time>
      </trkpt>
      <trkpt lat="44.58617" lon="2.32566">
        <ele>465.409</ele>
        <time>2013-06-24T11:31:37Z</time>
      </trkpt>
      <trkpt lat="44.5861" lon="2.32555">
        <ele>462.273</ele>
        <time>2013-06-24T11:31:49Z</time>
      </trkpt>
      <trkpt lat="44.5861" lon="2.32554">
        <ele>462.422</ele>
        <time>2013-06-24T11:31:50Z</time>
      </trkpt>
      <trkpt lat="44.586" lon="2.32545">
        <ele>460.4</ele>
        <time>2013-06-24T11:32:04Z</time>
      </trkpt>
      <trkpt lat="44.58595" lon="2.32535">
        <ele>458.38</ele>
        <time>2013-06-24T11:32:16Z</time>
      </trkpt>
      <trkpt lat="44.58585" lon="2.32529">
        <ele>456.195</ele>
        <time>2013-06-24T11:32:33Z</time>
      </trkpt>
      <trkpt lat="44.58572" lon="2.32516">
        <ele>454.561</ele>
        <time>2013-06-24T11:32:47Z</time>
      </trkpt>
      <trkpt lat="44.58552" lon="2.32513">
        <ele>452.395</ele>
        <time>2013-06-24T11:32:59Z</time>
      </trkpt>
      <trkpt lat="44.58548" lon="2.32512">
        <ele>453.078</ele>
        <time>2013-06-24T11:33:11Z</time>
      </trkpt>
      <trkpt lat="44.5855" lon="2.32522">
        <ele>456.194</ele>
        <time>2013-06-24T11:33:35Z</time>
      </trkpt>
      <trkpt lat="44.58556" lon="2.32512">
        <ele>458.875</ele>
        <time>2013-06-24T11:34:04Z</time>
      </trkpt>
      <trkpt lat="44.58562" lon="2.32506">
        <ele>461.877</ele>
        <time>2013-06-24T11:34:26Z</time>
      </trkpt>
      <trkpt lat="44.58568" lon="2.32506">
        <ele>465.244</ele>
        <time>2013-06-24T11:34:59Z</time>
      </trkpt>
      <trkpt lat="44.58571" lon="2.32506">
        <ele>468.287</ele>
        <time>2013-06-24T11:35:17Z</time>
      </trkpt>
      <trkpt lat="44.58576" lon="2.32492">
        <ele>471.531</ele>
        <time>2013-06-24T11:35:37Z</time>
      </trkpt>
      <trkpt lat="44.5859" lon="2.32469">
        <ele>474.965</ele>
        <time>2013-06-24T11:36:11Z</time>
      </trkpt>
      <trkpt lat="44.58597" lon="2.32463">
        <ele>476.315</ele>
        <time>2013-06-24T11:36:26Z</time>
      </trkpt>
      <trkpt lat="44.58608" lon="2.32449">
        <ele>478.593</ele>
        <time>2013-06-24T11:36:41Z</time>
      </trkpt>
      <trkpt lat="44.58622" lon="2.32436">
        <ele>479.913</ele>
        <time>2013-06-24T11:36:59Z</time>
      </trkpt>
      <trkpt lat="44.58634" lon="2.3242">
        <ele>481.989</ele>
        <time>2013-06-24T11:37:21Z</time>
      </trkpt>
      <trkpt lat="44.58645" lon="2.32404">
        <ele>484.738</ele>
        <time>2013-06-24T11:37:47Z</time>
      </trkpt>
      <trkpt lat="44.58658" lon="2.32386">
        <ele>486.295</ele>
        <time>2013-06-24T11:38:10Z</time>
      </trkpt>
      <trkpt lat="44.58663" lon="2.32373">
        <ele>488.612</ele>
        <time>2013-06-24T11:38:28Z</time>
      </trkpt>
      <trkpt lat="44.58667" lon="2.32353">
        <ele>491.191</ele>
        <time>2013-06-24T11:38:46Z</time>
      </trkpt>
      <trkpt lat="44.58673" lon="2.32339">
        <ele>492.748</ele>
        <time>2013-06-24T11:39:03Z</time>
      </trkpt>
      <trkpt lat="44.58672" lon="2.32325">
        <ele>493.288</ele>
        <time>2013-06-24T11:39:21Z</time>
      </trkpt>
      <trkpt lat="44.58674" lon="2.32314">
        <ele>494.691</ele>
        <time>2013-06-24T11:39:33Z</time>
      </trkpt>
      <trkpt lat="44.58673" lon="2.32299">
        <ele>496.302</ele>
        <time>2013-06-24T11:39:48Z</time>
      </trkpt>
      <trkpt lat="44.5867" lon="2.32282">
        <ele>497.84</ele>
        <time>2013-06-24T11:40:08Z</time>
      </trkpt>
      <trkpt lat="44.58663" lon="2.32271">
        <ele>500.885</ele>
        <time>2013-06-24T11:40:25Z</time>
      </trkpt>
      <trkpt lat="44.58658" lon="2.32257">
        <ele>502.531</ele>
        <time>2013-06-24T11:40:42Z</time>
      </trkpt>
      <trkpt lat="44.58653" lon="2.32247">
        <ele>504.135</ele>
        <time>2013-06-24T11:40:57Z</time>
      </trkpt>
      <trkpt lat="44.58645" lon="2.32237">
        <ele>504.805</ele>
        <time>2013-06-24T11:41:14Z</time>
      </trkpt>
      <trkpt lat="44.58637" lon="2.32216">
        <ele>507.703</ele>
        <time>2013-06-24T11:41:35Z</time>
      </trkpt>
      <trkpt lat="44.58628" lon="2.32196">
        <ele>507.662</ele>
        <time>2013-06-24T11:41:56Z</time>
      </trkpt>
      <trkpt lat="44.58621" lon="2.32191">
        <ele>508.797</ele>
        <time>2013-06-24T11:42:11Z</time>
      </trkpt>
      <trkpt lat="44.58619" lon="2.32191">
        <ele>507.769</ele>
        <time>2013-06-24T11:42:40Z</time>
      </trkpt>
      <trkpt lat="44.58618" lon="2.32194">
        <ele>507.705</ele>
        <time>2013-06-24T11:43:30Z</time>
      </trkpt>
      <trkpt lat="44.58619" lon="2.32192">
        <ele>507.9</ele>
        <time>2013-06-24T11:48:32Z</time>
      </trkpt>
      <trkpt lat="44.58619" lon="2.32192">
        <ele>502.936</ele>
        <time>2013-06-24T11:50:16Z</time>
      </trkpt>
      <trkpt lat="44.58619" lon="2.32192">
        <ele>506.265</ele>
        <time>2013-06-24T11:50:17Z</time>
      </trkpt>
      <trkpt lat="44.58619" lon="2.32191">
        <ele>505.256</ele>
        <time>2013-06-24T11:50:21Z</time>
      </trkpt>
      <trkpt lat="44.58619" lon="2.32192">
        <ele>505.98</ele>
        <time>2013-06-24T11:52:27Z</time>
      </trkpt>
      <trkpt lat="44.5862" lon="2.32194">
        <ele>505.029</ele>
        <time>2013-06-24T11:52:42Z</time>
      </trkpt>
      <trkpt lat="44.5862" lon="2.32195">
        <ele>508.601</ele>
        <time>2013-06-24T11:52:54Z</time>
      </trkpt>
      <trkpt lat="44.5862" lon="2.32195">
        <ele>506.625</ele>
        <time>2013-06-24T11:52:55Z</time>
      </trkpt>
      <trkpt lat="44.5862" lon="2.32196">
        <ele>504.699</ele>
        <time>2013-06-24T11:52:57Z</time>
      </trkpt>
      <trkpt lat="44.58623" lon="2.32195">
        <ele>504.438</ele>
        <time>2013-06-24T11:57:03Z</time>
      </trkpt>
      <trkpt lat="44.58623" lon="2.32197">
        <ele>503.734</ele>
        <time>2013-06-24T11:57:29Z</time>
      </trkpt>
      <trkpt lat="44.58623" lon="2.32194">
        <ele>505.338</ele>
        <time>2013-06-24T11:58:32Z</time>
      </trkpt>
      <trkpt lat="44.58623" lon="2.32195">
        <ele>505.391</ele>
        <time>2013-06-24T11:59:07Z</time>
      </trkpt>
      <trkpt lat="44.58623" lon="2.32195">
        <ele>504.696</ele>
        <time>2013-06-24T12:07:28Z</time>
      </trkpt>
      <trkpt lat="44.58622" lon="2.32196">
        <ele>504.378</ele>
        <time>2013-06-24T12:14:17Z</time>
      </trkpt>
      <trkpt lat="44.58622" lon="2.32196">
        <ele>508.175</ele>
        <time>2013-06-24T12:14:18Z</time>
      </trkpt>
      <trkpt lat="44.58622" lon="2.32196">
        <ele>507.257</ele>
        <time>2013-06-24T12:14:19Z</time>
      </trkpt>
      <trkpt lat="44.58622" lon="2.32196">
        <ele>506.062</ele>
        <time>2013-06-24T12:15:18Z</time>
      </trkpt>
      <trkpt lat="44.58622" lon="2.32195">
        <ele>505.89</ele>
        <time>2013-06-24T12:18:06Z</time>
      </trkpt>
      <trkpt lat="44.58622" lon="2.32194">
        <ele>504.229</ele>
        <time>2013-06-24T12:18:17Z</time>
      </trkpt>
      <trkpt lat="44.58622" lon="2.32194">
        <ele>507.764</ele>
        <time>2013-06-24T12:18:19Z</time>
      </trkpt>
      <trkpt lat="44.58622" lon="2.32194">
        <ele>502.088</ele>
        <time>2013-06-24T12:18:20Z</time>
      </trkpt>
      <trkpt lat="44.58622" lon="2.32194">
        <ele>507.827</ele>
        <time>2013-06-24T12:18:21Z</time>
      </trkpt>
      <trkpt lat="44.58622" lon="2.32194">
        <ele>504.757</ele>
        <time>2013-06-24T12:18:24Z</time>
      </trkpt>
      <trkpt lat="44.58622" lon="2.32194">
        <ele>499.858</ele>
        <time>2013-06-24T12:19:12Z</time>
      </trkpt>
      <trkpt lat="44.58622" lon="2.32194">
        <ele>508.009</ele>
        <time>2013-06-24T12:19:13Z</time>
      </trkpt>
      <trkpt lat="44.58622" lon="2.32194">
        <ele>507.491</ele>
        <time>2013-06-24T12:19:14Z</time>
      </trkpt>
      <trkpt lat="44.58622" lon="2.32194">
        <ele>505.02</ele>
        <time>2013-06-24T12:19:16Z</time>
      </trkpt>
      <trkpt lat="44.58622" lon="2.32194">
        <ele>503.829</ele>
        <time>2013-06-24T12:20:00Z</time>
      </trkpt>
      <trkpt lat="44.58622" lon="2.32195">
        <ele>505.973</ele>
        <time>2013-06-24T12:20:59Z</time>
      </trkpt>
      <trkpt lat="44.58621" lon="2.32195">
        <ele>505.738</ele>
        <time>2013-06-24T12:21:32Z</time>
      </trkpt>
      <trkpt lat="44.5862" lon="2.32193">
        <ele>505.868</ele>
        <time>2013-06-24T12:21:54Z</time>
      </trkpt>
      <trkpt lat="44.58619" lon="2.32196">
        <ele>506.014</ele>
        <time>2013-06-24T12:22:28Z</time>
      </trkpt>
      <trkpt lat="44.58618" lon="2.32191">
        <ele>506.118</ele>
        <time>2013-06-24T12:22:41Z</time>
      </trkpt>
      <trkpt lat="44.58618" lon="2.32185">
        <ele>504.993</ele>
        <time>2013-06-24T12:22:55Z</time>
      </trkpt>
      <trkpt lat="44.58599" lon="2.32162">
        <ele>507.552</ele>
        <time>2013-06-24T12:23:23Z</time>
      </trkpt>
      <trkpt lat="44.58587" lon="2.3215">
        <ele>508.671</ele>
        <time>2013-06-24T12:23:42Z</time>
      </trkpt>
      <trkpt lat="44.58575" lon="2.32133">
        <ele>510.596</ele>
        <time>2013-06-24T12:24:02Z</time>
      </trkpt>
      <trkpt lat="44.58559" lon="2.32107">
        <ele>511.92</ele>
        <time>2013-06-24T12:24:25Z</time>
      </trkpt>
      <trkpt lat="44.58543" lon="2.32082">
        <ele>512.704</ele>
        <time>2013-06-24T12:24:50Z</time>
      </trkpt>
      <trkpt lat="44.58529" lon="2.32053">
        <ele>513.821</ele>
        <time>2013-06-24T12:25:15Z</time>
      </trkpt>
      <trkpt lat="44.58517" lon="2.32027">
        <ele>514.646</ele>
        <time>2013-06-24T12:25:40Z</time>
      </trkpt>
      <trkpt lat="44.5851" lon="2.32001">
        <ele>517.184</ele>
        <time>2013-06-24T12:26:03Z</time>
      </trkpt>
      <trkpt lat="44.58501" lon="2.3198">
        <ele>520.274</ele>
        <time>2013-06-24T12:26:24Z</time>
      </trkpt>
      <trkpt lat="44.5849" lon="2.31966">
        <ele>521.997</ele>
        <time>2013-06-24T12:26:44Z</time>
      </trkpt>
      <trkpt lat="44.58478" lon="2.31955">
        <ele>524.309</ele>
        <time>2013-06-24T12:27:05Z</time>
      </trkpt>
      <trkpt lat="44.58478" lon="2.31955">
        <ele>523.797</ele>
        <time>2013-06-24T12:27:31Z</time>
      </trkpt>
      <trkpt lat="44.58479" lon="2.31955">
        <ele>523.919</ele>
        <time>2013-06-24T12:27:57Z</time>
      </trkpt>
      <trkpt lat="44.5848" lon="2.31956">
        <ele>524.365</ele>
        <time>2013-06-24T12:29:10Z</time>
      </trkpt>
      <trkpt lat="44.58473" lon="2.31955">
        <ele>524.84</ele>
        <time>2013-06-24T12:29:56Z</time>
      </trkpt>
      <trkpt lat="44.58468" lon="2.31954">
        <ele>525.115</ele>
        <time>2013-06-24T12:30:12Z</time>
      </trkpt>
      <trkpt lat="44.58454" lon="2.31948">
        <ele>524.26</ele>
        <time>2013-06-24T12:30:33Z</time>
      </trkpt>
      <trkpt lat="44.58441" lon="2.31944">
        <ele>523.388</ele>
        <time>2013-06-24T12:30:55Z</time>
      </trkpt>
      <trkpt lat="44.58425" lon="2.31943">
        <ele>520.948</ele>
        <time>2013-06-24T12:31:16Z</time>
      </trkpt>
      <trkpt lat="44.58418" lon="2.31941">
        <ele>520.187</ele>
        <time>2013-06-24T12:31:34Z</time>
      </trkpt>
      <trkpt lat="44.58409" lon="2.31947">
        <ele>518.648</ele>
        <time>2013-06-24T12:31:51Z</time>
      </trkpt>
      <trkpt lat="44.58399" lon="2.31952">
        <ele>517.939</ele>
        <time>2013-06-24T12:32:14Z</time>
      </trkpt>
      <trkpt lat="44.5839" lon="2.31955">
        <ele>517.327</ele>
        <time>2013-06-24T12:32:54Z</time>
      </trkpt>
      <trkpt lat="44.58376" lon="2.31961">
        <ele>516.312</ele>
        <time>2013-06-24T12:33:14Z</time>
      </trkpt>
      <trkpt lat="44.58356" lon="2.31975">
        <ele>514.94</ele>
        <time>2013-06-24T12:33:37Z</time>
      </trkpt>
      <trkpt lat="44.58339" lon="2.32">
        <ele>514.215</ele>
        <time>2013-06-24T12:34:01Z</time>
      </trkpt>
      <trkpt lat="44.58317" lon="2.32024">
        <ele>512.959</ele>
        <time>2013-06-24T12:34:28Z</time>
      </trkpt>
      <trkpt lat="44.5829" lon="2.32041">
        <ele>512.203</ele>
        <time>2013-06-24T12:34:56Z</time>
      </trkpt>
      <trkpt lat="44.5827" lon="2.32056">
        <ele>511.81</ele>
        <time>2013-06-24T12:35:18Z</time>
      </trkpt>
      <trkpt lat="44.58251" lon="2.32069">
        <ele>511.301</ele>
        <time>2013-06-24T12:35:39Z</time>
      </trkpt>
      <trkpt lat="44.58234" lon="2.32071">
        <ele>511.382</ele>
        <time>2013-06-24T12:35:56Z</time>
      </trkpt>
      <trkpt lat="44.58231" lon="2.32071">
        <ele>511.346</ele>
        <time>2013-06-24T12:35:59Z</time>
      </trkpt>
      <trkpt lat="44.58219" lon="2.32068">
        <ele>511.543</ele>
        <time>2013-06-24T12:36:07Z</time>
      </trkpt>
      <trkpt lat="44.58198" lon="2.32065">
        <ele>511.912</ele>
        <time>2013-06-24T12:36:25Z</time>
      </trkpt>
      <trkpt lat="44.58175" lon="2.32055">
        <ele>513.033</ele>
        <time>2013-06-24T12:36:47Z</time>
      </trkpt>
      <trkpt lat="44.58161" lon="2.32042">
        <ele>512.847</ele>
        <time>2013-06-24T12:37:07Z</time>
      </trkpt>
      <trkpt lat="44.58154" lon="2.32031">
        <ele>512.526</ele>
        <time>2013-06-24T12:37:20Z</time>
      </trkpt>
      <trkpt lat="44.58152" lon="2.32018">
        <ele>513.241</ele>
        <time>2013-06-24T12:37:35Z</time>
      </trkpt>
      <trkpt lat="44.58132" lon="2.31997">
        <ele>514.485</ele>
        <time>2013-06-24T12:37:49Z</time>
      </trkpt>
      <trkpt lat="44.5812" lon="2.31982">
        <ele>515.537</ele>
        <time>2013-06-24T12:38:07Z</time>
      </trkpt>
      <trkpt lat="44.58124" lon="2.31984">
        <ele>515.112</ele>
        <time>2013-06-24T12:38:27Z</time>
      </trkpt>
      <trkpt lat="44.58126" lon="2.31994">
        <ele>515.031</ele>
        <time>2013-06-24T12:39:06Z</time>
      </trkpt>
      <trkpt lat="44.58125" lon="2.31991">
        <ele>515.339</ele>
        <time>2013-06-24T12:39:36Z</time>
      </trkpt>
      <trkpt lat="44.58128" lon="2.31993">
        <ele>514.33</ele>
        <time>2013-06-24T12:40:04Z</time>
      </trkpt>
      <trkpt lat="44.58135" lon="2.31988">
        <ele>514.432</ele>
        <time>2013-06-24T12:40:57Z</time>
      </trkpt>
      <trkpt lat="44.58129" lon="2.32">
        <ele>514.323</ele>
        <time>2013-06-24T12:42:03Z</time>
      </trkpt>
      <trkpt lat="44.58133" lon="2.31994">
        <ele>514.101</ele>
        <time>2013-06-24T12:42:54Z</time>
      </trkpt>
      <trkpt lat="44.58137" lon="2.31984">
        <ele>514.817</ele>
        <time>2013-06-24T12:43:41Z</time>
      </trkpt>
      <trkpt lat="44.5813" lon="2.31995">
        <ele>514.945</ele>
        <time>2013-06-24T12:44:13Z</time>
      </trkpt>
      <trkpt lat="44.58132" lon="2.3199">
        <ele>515.306</ele>
        <time>2013-06-24T12:45:01Z</time>
      </trkpt>
      <trkpt lat="44.58134" lon="2.31991">
        <ele>515.046</ele>
        <time>2013-06-24T12:45:32Z</time>
      </trkpt>
      <trkpt lat="44.5813" lon="2.32003">
        <ele>515.328</ele>
        <time>2013-06-24T12:46:13Z</time>
      </trkpt>
      <trkpt lat="44.58135" lon="2.31994">
        <ele>515.484</ele>
        <time>2013-06-24T12:47:08Z</time>
      </trkpt>
      <trkpt lat="44.58136" lon="2.31993">
        <ele>516.084</ele>
        <time>2013-06-24T12:47:36Z</time>
      </trkpt>
      <trkpt lat="44.58141" lon="2.31994">
        <ele>516.178</ele>
        <time>2013-06-24T12:48:08Z</time>
      </trkpt>
      <trkpt lat="44.58145" lon="2.31994">
        <ele>516.106</ele>
        <time>2013-06-24T12:48:29Z</time>
      </trkpt>
      <trkpt lat="44.58137" lon="2.31991">
        <ele>516.411</ele>
        <time>2013-06-24T12:48:52Z</time>
      </trkpt>
      <trkpt lat="44.58133" lon="2.31989">
        <ele>515.894</ele>
        <time>2013-06-24T12:49:35Z</time>
      </trkpt>
      <trkpt lat="44.58131" lon="2.31985">
        <ele>517.192</ele>
        <time>2013-06-24T12:50:32Z</time>
      </trkpt>
      <trkpt lat="44.58122" lon="2.31984">
        <ele>517.385</ele>
        <time>2013-06-24T12:51:02Z</time>
      </trkpt>
      <trkpt lat="44.58127" lon="2.31983">
        <ele>517.378</ele>
        <time>2013-06-24T12:51:22Z</time>
      </trkpt>
      <trkpt lat="44.58128" lon="2.31986">
        <ele>517.751</ele>
        <time>2013-06-24T12:51:43Z</time>
      </trkpt>
      <trkpt lat="44.58133" lon="2.31989">
        <ele>517.342</ele>
        <time>2013-06-24T12:52:00Z</time>
      </trkpt>
      <trkpt lat="44.5814" lon="2.31989">
        <ele>518.049</ele>
        <time>2013-06-24T12:52:45Z</time>
      </trkpt>
      <trkpt lat="44.58139" lon="2.31991">
        <ele>517.897</ele>
        <time>2013-06-24T12:53:13Z</time>
      </trkpt>
      <trkpt lat="44.58144" lon="2.31993">
        <ele>518.016</ele>
        <time>2013-06-24T12:53:41Z</time>
      </trkpt>
      <trkpt lat="44.58134" lon="2.31992">
        <ele>517.996</ele>
        <time>2013-06-24T12:54:09Z</time>
      </trkpt>
      <trkpt lat="44.58122" lon="2.31981">
        <ele>518.97</ele>
        <time>2013-06-24T12:54:28Z</time>
      </trkpt>
      <trkpt lat="44.58121" lon="2.31982">
        <ele>518.736</ele>
        <time>2013-06-24T12:55:06Z</time>
      </trkpt>
      <trkpt lat="44.58125" lon="2.31978">
        <ele>517.929</ele>
        <time>2013-06-24T12:55:43Z</time>
      </trkpt>
      <trkpt lat="44.58131" lon="2.31986">
        <ele>518.393</ele>
        <time>2013-06-24T12:56:21Z</time>
      </trkpt>
      <trkpt lat="44.58136" lon="2.31979">
        <ele>518.532</ele>
        <time>2013-06-24T12:57:44Z</time>
      </trkpt>
      <trkpt lat="44.5813" lon="2.31977">
        <ele>518.807</ele>
        <time>2013-06-24T12:58:52Z</time>
      </trkpt>
      <trkpt lat="44.58124" lon="2.31982">
        <ele>518.769</ele>
        <time>2013-06-24T12:59:44Z</time>
      </trkpt>
      <trkpt lat="44.58116" lon="2.31988">
        <ele>519.192</ele>
        <time>2013-06-24T12:59:59Z</time>
      </trkpt>
      <trkpt lat="44.58109" lon="2.31995">
        <ele>520.008</ele>
        <time>2013-06-24T13:00:14Z</time>
      </trkpt>
      <trkpt lat="44.58098" lon="2.32008">
        <ele>521.958</ele>
        <time>2013-06-24T13:00:32Z</time>
      </trkpt>
      <trkpt lat="44.58081" lon="2.32022">
        <ele>520.154</ele>
        <time>2013-06-24T13:00:55Z</time>
      </trkpt>
      <trkpt lat="44.58074" lon="2.32027">
        <ele>520.003</ele>
        <time>2013-06-24T13:01:11Z</time>
      </trkpt>
      <trkpt lat="44.58065" lon="2.32044">
        <ele>520.003</ele>
        <time>2013-06-24T13:01:30Z</time>
      </trkpt>
      <trkpt lat="44.58055" lon="2.32067">
        <ele>519.556</ele>
        <time>2013-06-24T13:01:51Z</time>
      </trkpt>
      <trkpt lat="44.58047" lon="2.32088">
        <ele>518.671</ele>
        <time>2013-06-24T13:02:09Z</time>
      </trkpt>
      <trkpt lat="44.58046" lon="2.32089">
        <ele>518.732</ele>
        <time>2013-06-24T13:02:10Z</time>
      </trkpt>
      <trkpt lat="44.58035" lon="2.32108">
        <ele>518.473</ele>
        <time>2013-06-24T13:02:29Z</time>
      </trkpt>
      <trkpt lat="44.58026" lon="2.3213">
        <ele>518.835</ele>
        <time>2013-06-24T13:02:48Z</time>
      </trkpt>
      <trkpt lat="44.58017" lon="2.3215">
        <ele>518.709</ele>
        <time>2013-06-24T13:03:06Z</time>
      </trkpt>
      <trkpt lat="44.58008" lon="2.32168">
        <ele>518.107</ele>
        <time>2013-06-24T13:03:23Z</time>
      </trkpt>
      <trkpt lat="44.57996" lon="2.32186">
        <ele>517.455</ele>
        <time>2013-06-24T13:03:43Z</time>
      </trkpt>
      <trkpt lat="44.57986" lon="2.32193">
        <ele>517.091</ele>
        <time>2013-06-24T13:03:57Z</time>
      </trkpt>
      <trkpt lat="44.57979" lon="2.322">
        <ele>516.487</ele>
        <time>2013-06-24T13:04:08Z</time>
      </trkpt>
      <trkpt lat="44.57967" lon="2.32205">
        <ele>516.32</ele>
        <time>2013-06-24T13:04:21Z</time>
      </trkpt>
      <trkpt lat="44.57963" lon="2.32207">
        <ele>515.66</ele>
        <time>2013-06-24T13:04:25Z</time>
      </trkpt>
      <trkpt lat="44.57955" lon="2.32212">
        <ele>514.45</ele>
        <time>2013-06-24T13:04:32Z</time>
      </trkpt>
      <trkpt lat="44.57949" lon="2.32221">
        <ele>512.939</ele>
        <time>2013-06-24T13:04:47Z</time>
      </trkpt>
      <trkpt lat="44.57934" lon="2.32226">
        <ele>512.159</ele>
        <time>2013-06-24T13:05:00Z</time>
      </trkpt>
      <trkpt lat="44.57926" lon="2.32233">
        <ele>511.826</ele>
        <time>2013-06-24T13:05:14Z</time>
      </trkpt>
      <trkpt lat="44.57923" lon="2.32234">
        <ele>510.788</ele>
        <time>2013-06-24T13:05:17Z</time>
      </trkpt>
      <trkpt lat="44.57913" lon="2.32241">
        <ele>510.602</ele>
        <time>2013-06-24T13:05:29Z</time>
      </trkpt>
      <trkpt lat="44.57899" lon="2.32257">
        <ele>508.338</ele>
        <time>2013-06-24T13:05:44Z</time>
      </trkpt>
      <trkpt lat="44.57896" lon="2.32263">
        <ele>508.197</ele>
        <time>2013-06-24T13:05:57Z</time>
      </trkpt>
      <trkpt lat="44.57884" lon="2.32266">
        <ele>506.247</ele>
        <time>2013-06-24T13:06:12Z</time>
      </trkpt>
      <trkpt lat="44.57872" lon="2.32275">
        <ele>505.304</ele>
        <time>2013-06-24T13:06:25Z</time>
      </trkpt>
      <trkpt lat="44.57869" lon="2.32285">
        <ele>504.574</ele>
        <time>2013-06-24T13:06:40Z</time>
      </trkpt>
      <trkpt lat="44.57866" lon="2.32291">
        <ele>503.839</ele>
        <time>2013-06-24T13:06:47Z</time>
      </trkpt>
      <trkpt lat="44.5787" lon="2.32309">
        <ele>503.057</ele>
        <time>2013-06-24T13:06:59Z</time>
      </trkpt>
      <trkpt lat="44.57867" lon="2.32325">
        <ele>503.314</ele>
        <time>2013-06-24T13:07:14Z</time>
      </trkpt>
      <trkpt lat="44.57859" lon="2.32352">
        <ele>502.354</ele>
        <time>2013-06-24T13:07:33Z</time>
      </trkpt>
      <trkpt lat="44.57854" lon="2.32359">
        <ele>501.874</ele>
        <time>2013-06-24T13:07:40Z</time>
      </trkpt>
      <trkpt lat="44.57844" lon="2.32372">
        <ele>501.725</ele>
        <time>2013-06-24T13:07:53Z</time>
      </trkpt>
      <trkpt lat="44.57821" lon="2.32391">
        <ele>501.242</ele>
        <time>2013-06-24T13:08:17Z</time>
      </trkpt>
      <trkpt lat="44.57806" lon="2.32396">
        <ele>500.603</ele>
        <time>2013-06-24T13:08:32Z</time>
      </trkpt>
      <trkpt lat="44.57782" lon="2.32398">
        <ele>498.28</ele>
        <time>2013-06-24T13:08:53Z</time>
      </trkpt>
      <trkpt lat="44.57762" lon="2.32413">
        <ele>497.483</ele>
        <time>2013-06-24T13:09:15Z</time>
      </trkpt>
      <trkpt lat="44.57749" lon="2.32434">
        <ele>496.852</ele>
        <time>2013-06-24T13:09:39Z</time>
      </trkpt>
      <trkpt lat="44.57747" lon="2.3244">
        <ele>497.144</ele>
        <time>2013-06-24T13:09:44Z</time>
      </trkpt>
      <trkpt lat="44.57732" lon="2.32451">
        <ele>496.075</ele>
        <time>2013-06-24T13:10:01Z</time>
      </trkpt>
      <trkpt lat="44.57704" lon="2.32446">
        <ele>495.544</ele>
        <time>2013-06-24T13:10:26Z</time>
      </trkpt>
      <trkpt lat="44.57679" lon="2.32444">
        <ele>493.019</ele>
        <time>2013-06-24T13:10:52Z</time>
      </trkpt>
      <trkpt lat="44.57656" lon="2.32438">
        <ele>491.805</ele>
        <time>2013-06-24T13:11:12Z</time>
      </trkpt>
      <trkpt lat="44.5763" lon="2.32425">
        <ele>491.86</ele>
        <time>2013-06-24T13:11:38Z</time>
      </trkpt>
      <trkpt lat="44.57608" lon="2.32414">
        <ele>491.98</ele>
        <time>2013-06-24T13:12:02Z</time>
      </trkpt>
      <trkpt lat="44.5759" lon="2.32419">
        <ele>489.545</ele>
        <time>2013-06-24T13:12:23Z</time>
      </trkpt>
      <trkpt lat="44.57584" lon="2.3242">
        <ele>489.328</ele>
        <time>2013-06-24T13:12:30Z</time>
      </trkpt>
      <trkpt lat="44.57569" lon="2.32408">
        <ele>488.906</ele>
        <time>2013-06-24T13:12:48Z</time>
      </trkpt>
      <trkpt lat="44.57558" lon="2.32396">
        <ele>488.194</ele>
        <time>2013-06-24T13:13:03Z</time>
      </trkpt>
      <trkpt lat="44.57543" lon="2.3238">
        <ele>485.046</ele>
        <time>2013-06-24T13:13:20Z</time>
      </trkpt>
      <trkpt lat="44.57524" lon="2.3236">
        <ele>483.673</ele>
        <time>2013-06-24T13:13:40Z</time>
      </trkpt>
      <trkpt lat="44.57512" lon="2.32348">
        <ele>483.289</ele>
        <time>2013-06-24T13:13:54Z</time>
      </trkpt>
      <trkpt lat="44.57488" lon="2.32345">
        <ele>480.702</ele>
        <time>2013-06-24T13:14:19Z</time>
      </trkpt>
      <trkpt lat="44.57463" lon="2.32347">
        <ele>478.732</ele>
        <time>2013-06-24T13:14:46Z</time>
      </trkpt>
      <trkpt lat="44.57452" lon="2.3235">
        <ele>478.466</ele>
        <time>2013-06-24T13:15:04Z</time>
      </trkpt>
      <trkpt lat="44.57438" lon="2.32354">
        <ele>477.516</ele>
        <time>2013-06-24T13:15:21Z</time>
      </trkpt>
      <trkpt lat="44.57419" lon="2.32364">
        <ele>475.847</ele>
        <time>2013-06-24T13:15:40Z</time>
      </trkpt>
      <trkpt lat="44.57411" lon="2.32379">
        <ele>474.251</ele>
        <time>2013-06-24T13:15:57Z</time>
      </trkpt>
      <trkpt lat="44.57401" lon="2.32395">
        <ele>472.822</ele>
        <time>2013-06-24T13:16:13Z</time>
      </trkpt>
      <trkpt lat="44.57395" lon="2.32409">
        <ele>471.299</ele>
        <time>2013-06-24T13:16:26Z</time>
      </trkpt>
      <trkpt lat="44.57396" lon="2.32425">
        <ele>470.906</ele>
        <time>2013-06-24T13:16:42Z</time>
      </trkpt>
      <trkpt lat="44.57395" lon="2.32438">
        <ele>472.485</ele>
        <time>2013-06-24T13:16:54Z</time>
      </trkpt>
      <trkpt lat="44.57399" lon="2.32456">
        <ele>474.008</ele>
        <time>2013-06-24T13:17:10Z</time>
      </trkpt>
      <trkpt lat="44.5739" lon="2.32469">
        <ele>475.205</ele>
        <time>2013-06-24T13:17:23Z</time>
      </trkpt>
      <trkpt lat="44.57389" lon="2.32486">
        <ele>475.815</ele>
        <time>2013-06-24T13:17:35Z</time>
      </trkpt>
      <trkpt lat="44.57385" lon="2.32502">
        <ele>476.566</ele>
        <time>2013-06-24T13:17:48Z</time>
      </trkpt>
      <trkpt lat="44.57381" lon="2.32516">
        <ele>477.265</ele>
        <time>2013-06-24T13:17:59Z</time>
      </trkpt>
      <trkpt lat="44.57375" lon="2.32534">
        <ele>477.855</ele>
        <time>2013-06-24T13:18:14Z</time>
      </trkpt>
      <trkpt lat="44.57366" lon="2.32546">
        <ele>478.419</ele>
        <time>2013-06-24T13:18:26Z</time>
      </trkpt>
      <trkpt lat="44.57363" lon="2.32554">
        <ele>479.209</ele>
        <time>2013-06-24T13:18:33Z</time>
      </trkpt>
      <trkpt lat="44.57348" lon="2.32567">
        <ele>480.815</ele>
        <time>2013-06-24T13:18:48Z</time>
      </trkpt>
      <trkpt lat="44.57344" lon="2.32578">
        <ele>481.503</ele>
        <time>2013-06-24T13:19:02Z</time>
      </trkpt>
      <trkpt lat="44.57332" lon="2.32588">
        <ele>482.384</ele>
        <time>2013-06-24T13:19:16Z</time>
      </trkpt>
      <trkpt lat="44.57313" lon="2.326">
        <ele>483.916</ele>
        <time>2013-06-24T13:19:32Z</time>
      </trkpt>
      <trkpt lat="44.57304" lon="2.32613">
        <ele>485.546</ele>
        <time>2013-06-24T13:19:47Z</time>
      </trkpt>
      <trkpt lat="44.57303" lon="2.32624">
        <ele>487.225</ele>
        <time>2013-06-24T13:20:02Z</time>
      </trkpt>
      <trkpt lat="44.57296" lon="2.32629">
        <ele>488.501</ele>
        <time>2013-06-24T13:20:14Z</time>
      </trkpt>
      <trkpt lat="44.57287" lon="2.32643">
        <ele>490.118</ele>
        <time>2013-06-24T13:20:29Z</time>
      </trkpt>
      <trkpt lat="44.57281" lon="2.32653">
        <ele>491.269</ele>
        <time>2013-06-24T13:20:41Z</time>
      </trkpt>
      <trkpt lat="44.57278" lon="2.32664">
        <ele>492.492</ele>
        <time>2013-06-24T13:20:52Z</time>
      </trkpt>
      <trkpt lat="44.57271" lon="2.32677">
        <ele>493.874</ele>
        <time>2013-06-24T13:21:06Z</time>
      </trkpt>
      <trkpt lat="44.57264" lon="2.32688">
        <ele>494.745</ele>
        <time>2013-06-24T13:21:18Z</time>
      </trkpt>
      <trkpt lat="44.57259" lon="2.32704">
        <ele>496.617</ele>
        <time>2013-06-24T13:21:35Z</time>
      </trkpt>
      <trkpt lat="44.57252" lon="2.32716">
        <ele>496.891</ele>
        <time>2013-06-24T13:21:53Z</time>
      </trkpt>
      <trkpt lat="44.57251" lon="2.32718">
        <ele>497.208</ele>
        <time>2013-06-24T13:22:08Z</time>
      </trkpt>
      <trkpt lat="44.5725" lon="2.32719">
        <ele>496.452</ele>
        <time>2013-06-24T13:22:10Z</time>
      </trkpt>
      <trkpt lat="44.57244" lon="2.32727">
        <ele>498.134</ele>
        <time>2013-06-24T13:22:24Z</time>
      </trkpt>
      <trkpt lat="44.57241" lon="2.32743">
        <ele>499.41</ele>
        <time>2013-06-24T13:22:42Z</time>
      </trkpt>
      <trkpt lat="44.57228" lon="2.32754">
        <ele>500.244</ele>
        <time>2013-06-24T13:22:57Z</time>
      </trkpt>
      <trkpt lat="44.57216" lon="2.32756">
        <ele>501.24</ele>
        <time>2013-06-24T13:23:10Z</time>
      </trkpt>
      <trkpt lat="44.57207" lon="2.32759">
        <ele>502.307</ele>
        <time>2013-06-24T13:23:24Z</time>
      </trkpt>
      <trkpt lat="44.57198" lon="2.32762">
        <ele>503.057</ele>
        <time>2013-06-24T13:23:36Z</time>
      </trkpt>
      <trkpt lat="44.57188" lon="2.32764">
        <ele>503.61</ele>
        <time>2013-06-24T13:23:50Z</time>
      </trkpt>
      <trkpt lat="44.57172" lon="2.32768">
        <ele>504.867</ele>
        <time>2013-06-24T13:24:07Z</time>
      </trkpt>
      <trkpt lat="44.57159" lon="2.32772">
        <ele>506.29</ele>
        <time>2013-06-24T13:24:23Z</time>
      </trkpt>
      <trkpt lat="44.57142" lon="2.32771">
        <ele>508.352</ele>
        <time>2013-06-24T13:24:40Z</time>
      </trkpt>
      <trkpt lat="44.57133" lon="2.32771">
        <ele>509.353</ele>
        <time>2013-06-24T13:24:54Z</time>
      </trkpt>
      <trkpt lat="44.57119" lon="2.32769">
        <ele>510.77</ele>
        <time>2013-06-24T13:25:12Z</time>
      </trkpt>
      <trkpt lat="44.57107" lon="2.32771">
        <ele>512.735</ele>
        <time>2013-06-24T13:25:25Z</time>
      </trkpt>
      <trkpt lat="44.57098" lon="2.32768">
        <ele>514.759</ele>
        <time>2013-06-24T13:25:41Z</time>
      </trkpt>
      <trkpt lat="44.57088" lon="2.32767">
        <ele>515.741</ele>
        <time>2013-06-24T13:25:53Z</time>
      </trkpt>
      <trkpt lat="44.57074" lon="2.32767">
        <ele>517.852</ele>
        <time>2013-06-24T13:26:07Z</time>
      </trkpt>
      <trkpt lat="44.57073" lon="2.32766">
        <ele>518.105</ele>
        <time>2013-06-24T13:26:08Z</time>
      </trkpt>
      <trkpt lat="44.5706" lon="2.32756">
        <ele>519.19</ele>
        <time>2013-06-24T13:26:22Z</time>
      </trkpt>
      <trkpt lat="44.57045" lon="2.32745">
        <ele>520.582</ele>
        <time>2013-06-24T13:26:36Z</time>
      </trkpt>
      <trkpt lat="44.57037" lon="2.32735">
        <ele>521.688</ele>
        <time>2013-06-24T13:26:51Z</time>
      </trkpt>
      <trkpt lat="44.5703" lon="2.32731">
        <ele>522.536</ele>
        <time>2013-06-24T13:27:07Z</time>
      </trkpt>
      <trkpt lat="44.5702" lon="2.32732">
        <ele>523.773</ele>
        <time>2013-06-24T13:27:19Z</time>
      </trkpt>
      <trkpt lat="44.57015" lon="2.32729">
        <ele>525.011</ele>
        <time>2013-06-24T13:27:34Z</time>
      </trkpt>
      <trkpt lat="44.57007" lon="2.32733">
        <ele>526.202</ele>
        <time>2013-06-24T13:27:48Z</time>
      </trkpt>
      <trkpt lat="44.56997" lon="2.32734">
        <ele>528.625</ele>
        <time>2013-06-24T13:28:05Z</time>
      </trkpt>
      <trkpt lat="44.56987" lon="2.32731">
        <ele>529.648</ele>
        <time>2013-06-24T13:28:27Z</time>
      </trkpt>
      <trkpt lat="44.56977" lon="2.32736">
        <ele>531.479</ele>
        <time>2013-06-24T13:28:41Z</time>
      </trkpt>
      <trkpt lat="44.56964" lon="2.32741">
        <ele>532.37</ele>
        <time>2013-06-24T13:28:54Z</time>
      </trkpt>
      <trkpt lat="44.56951" lon="2.32743">
        <ele>533.045</ele>
        <time>2013-06-24T13:29:12Z</time>
      </trkpt>
      <trkpt lat="44.56941" lon="2.32742">
        <ele>533.547</ele>
        <time>2013-06-24T13:29:28Z</time>
      </trkpt>
      <trkpt lat="44.56927" lon="2.32745">
        <ele>535.484</ele>
        <time>2013-06-24T13:29:44Z</time>
      </trkpt>
      <trkpt lat="44.56911" lon="2.3275">
        <ele>536.591</ele>
        <time>2013-06-24T13:30:01Z</time>
      </trkpt>
      <trkpt lat="44.56898" lon="2.32746">
        <ele>537.384</ele>
        <time>2013-06-24T13:30:19Z</time>
      </trkpt>
      <trkpt lat="44.56891" lon="2.3273">
        <ele>539.645</ele>
        <time>2013-06-24T13:30:35Z</time>
      </trkpt>
      <trkpt lat="44.56897" lon="2.3272">
        <ele>539.412</ele>
        <time>2013-06-24T13:30:51Z</time>
      </trkpt>
      <trkpt lat="44.56909" lon="2.32718">
        <ele>539.515</ele>
        <time>2013-06-24T13:31:08Z</time>
      </trkpt>
      <trkpt lat="44.5692" lon="2.32714">
        <ele>540.076</ele>
        <time>2013-06-24T13:31:23Z</time>
      </trkpt>
      <trkpt lat="44.56932" lon="2.32703">
        <ele>542.021</ele>
        <time>2013-06-24T13:31:40Z</time>
      </trkpt>
      <trkpt lat="44.56942" lon="2.3269">
        <ele>543.537</ele>
        <time>2013-06-24T13:31:55Z</time>
      </trkpt>
      <trkpt lat="44.56954" lon="2.32678">
        <ele>544.986</ele>
        <time>2013-06-24T13:32:13Z</time>
      </trkpt>
      <trkpt lat="44.56965" lon="2.32665">
        <ele>546.052</ele>
        <time>2013-06-24T13:32:27Z</time>
      </trkpt>
      <trkpt lat="44.56979" lon="2.32656">
        <ele>547.546</ele>
        <time>2013-06-24T13:32:44Z</time>
      </trkpt>
      <trkpt lat="44.5699" lon="2.32651">
        <ele>548.102</ele>
        <time>2013-06-24T13:32:58Z</time>
      </trkpt>
      <trkpt lat="44.57006" lon="2.32644">
        <ele>549.299</ele>
        <time>2013-06-24T13:33:15Z</time>
      </trkpt>
      <trkpt lat="44.57025" lon="2.32639">
        <ele>550.383</ele>
        <time>2013-06-24T13:33:37Z</time>
      </trkpt>
      <trkpt lat="44.57041" lon="2.32629">
        <ele>552.488</ele>
        <time>2013-06-24T13:33:59Z</time>
      </trkpt>
      <trkpt lat="44.57051" lon="2.32616">
        <ele>553.173</ele>
        <time>2013-06-24T13:34:16Z</time>
      </trkpt>
      <trkpt lat="44.57068" lon="2.32595">
        <ele>554.904</ele>
        <time>2013-06-24T13:34:41Z</time>
      </trkpt>
      <trkpt lat="44.5708" lon="2.32568">
        <ele>556.855</ele>
        <time>2013-06-24T13:35:07Z</time>
      </trkpt>
      <trkpt lat="44.57084" lon="2.32537">
        <ele>558.901</ele>
        <time>2013-06-24T13:35:34Z</time>
      </trkpt>
      <trkpt lat="44.57085" lon="2.32528">
        <ele>559.613</ele>
        <time>2013-06-24T13:35:51Z</time>
      </trkpt>
      <trkpt lat="44.57085" lon="2.32522">
        <ele>559.274</ele>
        <time>2013-06-24T13:36:13Z</time>
      </trkpt>
      <trkpt lat="44.5709" lon="2.32522">
        <ele>558.993</ele>
        <time>2013-06-24T13:36:34Z</time>
      </trkpt>
      <trkpt lat="44.5709" lon="2.3252">
        <ele>555.76</ele>
        <time>2013-06-24T13:39:17Z</time>
      </trkpt>
      <trkpt lat="44.5709" lon="2.3252">
        <ele>559.993</ele>
        <time>2013-06-24T13:39:18Z</time>
      </trkpt>
      <trkpt lat="44.5709" lon="2.3252">
        <ele>556.568</ele>
        <time>2013-06-24T13:39:23Z</time>
      </trkpt>
      <trkpt lat="44.5709" lon="2.32525">
        <ele>556.974</ele>
        <time>2013-06-24T13:40:57Z</time>
      </trkpt>
      <trkpt lat="44.57087" lon="2.32528">
        <ele>557.51</ele>
        <time>2013-06-24T13:45:33Z</time>
      </trkpt>
      <trkpt lat="44.57086" lon="2.32526">
        <ele>557.405</ele>
        <time>2013-06-24T13:46:22Z</time>
      </trkpt>
      <trkpt lat="44.57087" lon="2.32525">
        <ele>558.106</ele>
        <time>2013-06-24T13:46:37Z</time>
      </trkpt>
      <trkpt lat="44.57088" lon="2.32526">
        <ele>557.483</ele>
        <time>2013-06-24T13:47:16Z</time>
      </trkpt>
      <trkpt lat="44.57086" lon="2.32523">
        <ele>557.914</ele>
        <time>2013-06-24T13:47:41Z</time>
      </trkpt>
      <trkpt lat="44.57084" lon="2.32515">
        <ele>558.17</ele>
        <time>2013-06-24T13:48:00Z</time>
      </trkpt>
      <trkpt lat="44.57081" lon="2.3251">
        <ele>558.54</ele>
        <time>2013-06-24T13:48:14Z</time>
      </trkpt>
      <trkpt lat="44.57075" lon="2.32503">
        <ele>558.991</ele>
        <time>2013-06-24T13:48:30Z</time>
      </trkpt>
      <trkpt lat="44.57062" lon="2.32509">
        <ele>559.804</ele>
        <time>2013-06-24T13:48:48Z</time>
      </trkpt>
      <trkpt lat="44.57047" lon="2.32518">
        <ele>560.867</ele>
        <time>2013-06-24T13:49:08Z</time>
      </trkpt>
      <trkpt lat="44.57029" lon="2.32532">
        <ele>561.888</ele>
        <time>2013-06-24T13:49:31Z</time>
      </trkpt>
      <trkpt lat="44.57013" lon="2.32541">
        <ele>562.518</ele>
        <time>2013-06-24T13:49:51Z</time>
      </trkpt>
      <trkpt lat="44.57003" lon="2.32547">
        <ele>562.461</ele>
        <time>2013-06-24T13:50:10Z</time>
      </trkpt>
      <trkpt lat="44.56984" lon="2.32556">
        <ele>563.947</ele>
        <time>2013-06-24T13:50:32Z</time>
      </trkpt>
      <trkpt lat="44.56957" lon="2.32559">
        <ele>565.713</ele>
        <time>2013-06-24T13:50:59Z</time>
      </trkpt>
      <trkpt lat="44.56934" lon="2.3255">
        <ele>566.367</ele>
        <time>2013-06-24T13:51:22Z</time>
      </trkpt>
      <trkpt lat="44.56907" lon="2.32537">
        <ele>568.594</ele>
        <time>2013-06-24T13:51:50Z</time>
      </trkpt>
      <trkpt lat="44.56881" lon="2.32523">
        <ele>569.478</ele>
        <time>2013-06-24T13:52:18Z</time>
      </trkpt>
      <trkpt lat="44.56852" lon="2.32508">
        <ele>571.154</ele>
        <time>2013-06-24T13:52:48Z</time>
      </trkpt>
      <trkpt lat="44.56822" lon="2.32491">
        <ele>572.388</ele>
        <time>2013-06-24T13:53:19Z</time>
      </trkpt>
      <trkpt lat="44.56797" lon="2.32468">
        <ele>574.262</ele>
        <time>2013-06-24T13:53:49Z</time>
      </trkpt>
      <trkpt lat="44.56775" lon="2.32442">
        <ele>576.358</ele>
        <time>2013-06-24T13:54:17Z</time>
      </trkpt>
      <trkpt lat="44.56769" lon="2.32434">
        <ele>577.495</ele>
        <time>2013-06-24T13:54:25Z</time>
      </trkpt>
      <trkpt lat="44.56747" lon="2.32403">
        <ele>577.839</ele>
        <time>2013-06-24T13:54:56Z</time>
      </trkpt>
      <trkpt lat="44.5672" lon="2.32381">
        <ele>579.743</ele>
        <time>2013-06-24T13:55:27Z</time>
      </trkpt>
      <trkpt lat="44.56688" lon="2.32362">
        <ele>583.099</ele>
        <time>2013-06-24T13:56:01Z</time>
      </trkpt>
      <trkpt lat="44.56662" lon="2.32346">
        <ele>584.673</ele>
        <time>2013-06-24T13:56:30Z</time>
      </trkpt>
      <trkpt lat="44.56651" lon="2.32341">
        <ele>585.696</ele>
        <time>2013-06-24T13:56:45Z</time>
      </trkpt>
      <trkpt lat="44.56644" lon="2.32335">
        <ele>585.878</ele>
        <time>2013-06-24T13:57:07Z</time>
      </trkpt>
      <trkpt lat="44.56631" lon="2.32327">
        <ele>585.653</ele>
        <time>2013-06-24T13:57:24Z</time>
      </trkpt>
      <trkpt lat="44.56614" lon="2.32317">
        <ele>586.979</ele>
        <time>2013-06-24T13:57:45Z</time>
      </trkpt>
      <trkpt lat="44.56606" lon="2.32309">
        <ele>587.885</ele>
        <time>2013-06-24T13:58:06Z</time>
      </trkpt>
      <trkpt lat="44.56607" lon="2.323">
        <ele>588.131</ele>
        <time>2013-06-24T13:58:26Z</time>
      </trkpt>
      <trkpt lat="44.5661" lon="2.32294">
        <ele>588.553</ele>
        <time>2013-06-24T13:58:45Z</time>
      </trkpt>
      <trkpt lat="44.56607" lon="2.32292">
        <ele>588.695</ele>
        <time>2013-06-24T13:59:36Z</time>
      </trkpt>
      <trkpt lat="44.56605" lon="2.32268">
        <ele>588.743</ele>
        <time>2013-06-24T13:59:53Z</time>
      </trkpt>
      <trkpt lat="44.56607" lon="2.32232">
        <ele>587.873</ele>
        <time>2013-06-24T14:00:18Z</time>
      </trkpt>
      <trkpt lat="44.56609" lon="2.32199">
        <ele>588.831</ele>
        <time>2013-06-24T14:00:40Z</time>
      </trkpt>
      <trkpt lat="44.56614" lon="2.32162">
        <ele>589.323</ele>
        <time>2013-06-24T14:01:05Z</time>
      </trkpt>
      <trkpt lat="44.56621" lon="2.32114">
        <ele>588.432</ele>
        <time>2013-06-24T14:01:37Z</time>
      </trkpt>
      <trkpt lat="44.56625" lon="2.32112">
        <ele>589.141</ele>
        <time>2013-06-24T14:01:53Z</time>
      </trkpt>
      <trkpt lat="44.56625" lon="2.32111">
        <ele>588.948</ele>
        <time>2013-06-24T14:02:24Z</time>
      </trkpt>
      <trkpt lat="44.56625" lon="2.3211">
        <ele>588.654</ele>
        <time>2013-06-24T14:02:44Z</time>
      </trkpt>
      <trkpt lat="44.56625" lon="2.32093">
        <ele>588.854</ele>
        <time>2013-06-24T14:03:08Z</time>
      </trkpt>
      <trkpt lat="44.56629" lon="2.32062">
        <ele>588.947</ele>
        <time>2013-06-24T14:03:31Z</time>
      </trkpt>
      <trkpt lat="44.56635" lon="2.32026">
        <ele>589.393</ele>
        <time>2013-06-24T14:03:55Z</time>
      </trkpt>
      <trkpt lat="44.56646" lon="2.31973">
        <ele>588.458</ele>
        <time>2013-06-24T14:04:31Z</time>
      </trkpt>
      <trkpt lat="44.56663" lon="2.31948">
        <ele>588.249</ele>
        <time>2013-06-24T14:04:54Z</time>
      </trkpt>
      <trkpt lat="44.56687" lon="2.31932">
        <ele>584.987</ele>
        <time>2013-06-24T14:05:19Z</time>
      </trkpt>
      <trkpt lat="44.56716" lon="2.31914">
        <ele>584.857</ele>
        <time>2013-06-24T14:05:47Z</time>
      </trkpt>
      <trkpt lat="44.5675" lon="2.31888">
        <ele>583.647</ele>
        <time>2013-06-24T14:06:22Z</time>
      </trkpt>
      <trkpt lat="44.56777" lon="2.31852">
        <ele>581.769</ele>
        <time>2013-06-24T14:06:56Z</time>
      </trkpt>
      <trkpt lat="44.56797" lon="2.3182">
        <ele>581.012</ele>
        <time>2013-06-24T14:07:24Z</time>
      </trkpt>
      <trkpt lat="44.5682" lon="2.31791">
        <ele>580.852</ele>
        <time>2013-06-24T14:07:53Z</time>
      </trkpt>
      <trkpt lat="44.56845" lon="2.31783">
        <ele>581.686</ele>
        <time>2013-06-24T14:08:18Z</time>
      </trkpt>
      <trkpt lat="44.56872" lon="2.31785">
        <ele>583.142</ele>
        <time>2013-06-24T14:08:44Z</time>
      </trkpt>
      <trkpt lat="44.56905" lon="2.31785">
        <ele>581.816</ele>
        <time>2013-06-24T14:09:14Z</time>
      </trkpt>
      <trkpt lat="44.56938" lon="2.31782">
        <ele>581.102</ele>
        <time>2013-06-24T14:09:45Z</time>
      </trkpt>
      <trkpt lat="44.5696" lon="2.31762">
        <ele>580.689</ele>
        <time>2013-06-24T14:10:11Z</time>
      </trkpt>
      <trkpt lat="44.56968" lon="2.3174">
        <ele>579.672</ele>
        <time>2013-06-24T14:10:34Z</time>
      </trkpt>
      <trkpt lat="44.56968" lon="2.31741">
        <ele>579.354</ele>
        <time>2013-06-24T14:10:51Z</time>
      </trkpt>
      <trkpt lat="44.56968" lon="2.3174">
        <ele>579.524</ele>
        <time>2013-06-24T14:12:20Z</time>
      </trkpt>
      <trkpt lat="44.56967" lon="2.3174">
        <ele>579.197</ele>
        <time>2013-06-24T14:12:45Z</time>
      </trkpt>
      <trkpt lat="44.56963" lon="2.31739">
        <ele>579.617</ele>
        <time>2013-06-24T14:13:10Z</time>
      </trkpt>
      <trkpt lat="44.56962" lon="2.31738">
        <ele>579.055</ele>
        <time>2013-06-24T14:13:12Z</time>
      </trkpt>
      <trkpt lat="44.5693" lon="2.3172">
        <ele>576.877</ele>
        <time>2013-06-24T14:13:42Z</time>
      </trkpt>
      <trkpt lat="44.56898" lon="2.317">
        <ele>575.991</ele>
        <time>2013-06-24T14:14:13Z</time>
      </trkpt>
      <trkpt lat="44.5688" lon="2.31674">
        <ele>573.912</ele>
        <time>2013-06-24T14:14:41Z</time>
      </trkpt>
      <trkpt lat="44.56871" lon="2.31631">
        <ele>572.833</ele>
        <time>2013-06-24T14:15:10Z</time>
      </trkpt>
      <trkpt lat="44.56867" lon="2.31588">
        <ele>570.25</ele>
        <time>2013-06-24T14:15:37Z</time>
      </trkpt>
      <trkpt lat="44.56858" lon="2.31546">
        <ele>567.953</ele>
        <time>2013-06-24T14:16:05Z</time>
      </trkpt>
      <trkpt lat="44.56844" lon="2.31494">
        <ele>565.584</ele>
        <time>2013-06-24T14:16:40Z</time>
      </trkpt>
      <trkpt lat="44.56822" lon="2.31447">
        <ele>563.384</ele>
        <time>2013-06-24T14:17:16Z</time>
      </trkpt>
      <trkpt lat="44.568" lon="2.3141">
        <ele>561.185</ele>
        <time>2013-06-24T14:17:46Z</time>
      </trkpt>
      <trkpt lat="44.56784" lon="2.31358">
        <ele>560.034</ele>
        <time>2013-06-24T14:18:21Z</time>
      </trkpt>
      <trkpt lat="44.56772" lon="2.31313">
        <ele>559.997</ele>
        <time>2013-06-24T14:18:51Z</time>
      </trkpt>
      <trkpt lat="44.56768" lon="2.31268">
        <ele>560.064</ele>
        <time>2013-06-24T14:19:20Z</time>
      </trkpt>
      <trkpt lat="44.56764" lon="2.31213">
        <ele>561.125</ele>
        <time>2013-06-24T14:19:56Z</time>
      </trkpt>
      <trkpt lat="44.56745" lon="2.31179">
        <ele>562.929</ele>
        <time>2013-06-24T14:20:24Z</time>
      </trkpt>
      <trkpt lat="44.56718" lon="2.31148">
        <ele>563.345</ele>
        <time>2013-06-24T14:20:56Z</time>
      </trkpt>
      <trkpt lat="44.56687" lon="2.31114">
        <ele>563.135</ele>
        <time>2013-06-24T14:21:31Z</time>
      </trkpt>
      <trkpt lat="44.56663" lon="2.3108">
        <ele>561.757</ele>
        <time>2013-06-24T14:22:03Z</time>
      </trkpt>
      <trkpt lat="44.56642" lon="2.31042">
        <ele>560.788</ele>
        <time>2013-06-24T14:22:34Z</time>
      </trkpt>
      <trkpt lat="44.56626" lon="2.31024">
        <ele>559.645</ele>
        <time>2013-06-24T14:23:01Z</time>
      </trkpt>
      <trkpt lat="44.56615" lon="2.31009">
        <ele>560.301</ele>
        <time>2013-06-24T14:23:21Z</time>
      </trkpt>
      <trkpt lat="44.56592" lon="2.30975">
        <ele>560.118</ele>
        <time>2013-06-24T14:23:52Z</time>
      </trkpt>
      <trkpt lat="44.56578" lon="2.30943">
        <ele>556.952</ele>
        <time>2013-06-24T14:24:18Z</time>
      </trkpt>
      <trkpt lat="44.56571" lon="2.30923">
        <ele>555.321</ele>
        <time>2013-06-24T14:24:33Z</time>
      </trkpt>
      <trkpt lat="44.56563" lon="2.30882">
        <ele>551.756</ele>
        <time>2013-06-24T14:25:02Z</time>
      </trkpt>
      <trkpt lat="44.5656" lon="2.30832">
        <ele>550.216</ele>
        <time>2013-06-24T14:25:35Z</time>
      </trkpt>
      <trkpt lat="44.5656" lon="2.30827">
        <ele>549.963</ele>
        <time>2013-06-24T14:25:52Z</time>
      </trkpt>
      <trkpt lat="44.56558" lon="2.30828">
        <ele>549.934</ele>
        <time>2013-06-24T14:26:47Z</time>
      </trkpt>
      <trkpt lat="44.56557" lon="2.30848">
        <ele>550.892</ele>
        <time>2013-06-24T14:27:09Z</time>
      </trkpt>
      <trkpt lat="44.56557" lon="2.30867">
        <ele>551.317</ele>
        <time>2013-06-24T14:27:28Z</time>
      </trkpt>
      <trkpt lat="44.56556" lon="2.3087">
        <ele>551.362</ele>
        <time>2013-06-24T14:27:56Z</time>
      </trkpt>
      <trkpt lat="44.56555" lon="2.30871">
        <ele>551.143</ele>
        <time>2013-06-24T14:28:13Z</time>
      </trkpt>
      <trkpt lat="44.56557" lon="2.30869">
        <ele>551.735</ele>
        <time>2013-06-24T14:29:00Z</time>
      </trkpt>
      <trkpt lat="44.56558" lon="2.30869">
        <ele>551.508</ele>
        <time>2013-06-24T14:29:34Z</time>
      </trkpt>
      <trkpt lat="44.56558" lon="2.30847">
        <ele>550.999</ele>
        <time>2013-06-24T14:30:07Z</time>
      </trkpt>
      <trkpt lat="44.56565" lon="2.30809">
        <ele>548.671</ele>
        <time>2013-06-24T14:30:34Z</time>
      </trkpt>
      <trkpt lat="44.56582" lon="2.30776">
        <ele>548.058</ele>
        <time>2013-06-24T14:31:01Z</time>
      </trkpt>
      <trkpt lat="44.56597" lon="2.30744">
        <ele>545.395</ele>
        <time>2013-06-24T14:31:26Z</time>
      </trkpt>
      <trkpt lat="44.56614" lon="2.30706">
        <ele>544.549</ele>
        <time>2013-06-24T14:31:56Z</time>
      </trkpt>
      <trkpt lat="44.56623" lon="2.30685">
        <ele>543.15</ele>
        <time>2013-06-24T14:32:14Z</time>
      </trkpt>
      <trkpt lat="44.5664" lon="2.30648">
        <ele>541.877</ele>
        <time>2013-06-24T14:32:43Z</time>
      </trkpt>
      <trkpt lat="44.56651" lon="2.30611">
        <ele>540.918</ele>
        <time>2013-06-24T14:33:10Z</time>
      </trkpt>
      <trkpt lat="44.56653" lon="2.3058">
        <ele>538.713</ele>
        <time>2013-06-24T14:33:32Z</time>
      </trkpt>
      <trkpt lat="44.5665" lon="2.30566">
        <ele>538.076</ele>
        <time>2013-06-24T14:33:50Z</time>
      </trkpt>
      <trkpt lat="44.56644" lon="2.30521">
        <ele>536.414</ele>
        <time>2013-06-24T14:34:20Z</time>
      </trkpt>
      <trkpt lat="44.5664" lon="2.30486">
        <ele>534.552</ele>
        <time>2013-06-24T14:34:42Z</time>
      </trkpt>
      <trkpt lat="44.56634" lon="2.30438">
        <ele>532.577</ele>
        <time>2013-06-24T14:35:13Z</time>
      </trkpt>
      <trkpt lat="44.56623" lon="2.30388">
        <ele>531.784</ele>
        <time>2013-06-24T14:35:45Z</time>
      </trkpt>
      <trkpt lat="44.56616" lon="2.30346">
        <ele>529.994</ele>
        <time>2013-06-24T14:36:13Z</time>
      </trkpt>
      <trkpt lat="44.56609" lon="2.30317">
        <ele>529.356</ele>
        <time>2013-06-24T14:36:35Z</time>
      </trkpt>
      <trkpt lat="44.56609" lon="2.30313">
        <ele>529.247</ele>
        <time>2013-06-24T14:37:11Z</time>
      </trkpt>
      <trkpt lat="44.56609" lon="2.3028">
        <ele>528.246</ele>
        <time>2013-06-24T14:37:38Z</time>
      </trkpt>
      <trkpt lat="44.56608" lon="2.30275">
        <ele>528.053</ele>
        <time>2013-06-24T14:37:41Z</time>
      </trkpt>
      <trkpt lat="44.56614" lon="2.30222">
        <ele>525.849</ele>
        <time>2013-06-24T14:38:16Z</time>
      </trkpt>
      <trkpt lat="44.56619" lon="2.30189">
        <ele>522.758</ele>
        <time>2013-06-24T14:38:38Z</time>
      </trkpt>
      <trkpt lat="44.56627" lon="2.30146">
        <ele>519.857</ele>
        <time>2013-06-24T14:39:08Z</time>
      </trkpt>
      <trkpt lat="44.56632" lon="2.30106">
        <ele>516.895</ele>
        <time>2013-06-24T14:39:37Z</time>
      </trkpt>
      <trkpt lat="44.56635" lon="2.30088">
        <ele>515.295</ele>
        <time>2013-06-24T14:39:57Z</time>
      </trkpt>
      <trkpt lat="44.56646" lon="2.3005">
        <ele>511.62</ele>
        <time>2013-06-24T14:40:24Z</time>
      </trkpt>
      <trkpt lat="44.56656" lon="2.30012">
        <ele>508.317</ele>
        <time>2013-06-24T14:40:51Z</time>
      </trkpt>
      <trkpt lat="44.56667" lon="2.2997">
        <ele>506.675</ele>
        <time>2013-06-24T14:41:21Z</time>
      </trkpt>
      <trkpt lat="44.5667" lon="2.29924">
        <ele>504.207</ele>
        <time>2013-06-24T14:41:52Z</time>
      </trkpt>
      <trkpt lat="44.56661" lon="2.29885">
        <ele>503.068</ele>
        <time>2013-06-24T14:42:18Z</time>
      </trkpt>
      <trkpt lat="44.56662" lon="2.29838">
        <ele>501.352</ele>
        <time>2013-06-24T14:42:50Z</time>
      </trkpt>
      <trkpt lat="44.56661" lon="2.29836">
        <ele>501.209</ele>
        <time>2013-06-24T14:43:13Z</time>
      </trkpt>
      <trkpt lat="44.56663" lon="2.2983">
        <ele>501.186</ele>
        <time>2013-06-24T14:43:34Z</time>
      </trkpt>
      <trkpt lat="44.56667" lon="2.29823">
        <ele>499.909</ele>
        <time>2013-06-24T14:43:49Z</time>
      </trkpt>
      <trkpt lat="44.56675" lon="2.29802">
        <ele>498.155</ele>
        <time>2013-06-24T14:44:07Z</time>
      </trkpt>
      <trkpt lat="44.56691" lon="2.29766">
        <ele>495.416</ele>
        <time>2013-06-24T14:44:35Z</time>
      </trkpt>
      <trkpt lat="44.56711" lon="2.29724">
        <ele>493.438</ele>
        <time>2013-06-24T14:45:08Z</time>
      </trkpt>
      <trkpt lat="44.56717" lon="2.29711">
        <ele>490.743</ele>
        <time>2013-06-24T14:45:18Z</time>
      </trkpt>
      <trkpt lat="44.56721" lon="2.29702">
        <ele>491.853</ele>
        <time>2013-06-24T14:45:25Z</time>
      </trkpt>
      <trkpt lat="44.56731" lon="2.29681">
        <ele>488.558</ele>
        <time>2013-06-24T14:45:41Z</time>
      </trkpt>
      <trkpt lat="44.56746" lon="2.29642">
        <ele>485.809</ele>
        <time>2013-06-24T14:46:10Z</time>
      </trkpt>
      <trkpt lat="44.56753" lon="2.29591">
        <ele>484.78</ele>
        <time>2013-06-24T14:46:42Z</time>
      </trkpt>
      <trkpt lat="44.56755" lon="2.2955">
        <ele>484.872</ele>
        <time>2013-06-24T14:47:08Z</time>
      </trkpt>
      <trkpt lat="44.5676" lon="2.29507">
        <ele>483.773</ele>
        <time>2013-06-24T14:47:38Z</time>
      </trkpt>
      <trkpt lat="44.5676" lon="2.29495">
        <ele>483.608</ele>
        <time>2013-06-24T14:48:26Z</time>
      </trkpt>
      <trkpt lat="44.5676" lon="2.29491">
        <ele>483.301</ele>
        <time>2013-06-24T14:48:43Z</time>
      </trkpt>
      <trkpt lat="44.56762" lon="2.29483">
        <ele>483.703</ele>
        <time>2013-06-24T14:48:58Z</time>
      </trkpt>
      <trkpt lat="44.56768" lon="2.29446">
        <ele>483.657</ele>
        <time>2013-06-24T14:49:23Z</time>
      </trkpt>
      <trkpt lat="44.56779" lon="2.29405">
        <ele>483.971</ele>
        <time>2013-06-24T14:49:50Z</time>
      </trkpt>
      <trkpt lat="44.56797" lon="2.29353">
        <ele>483.306</ele>
        <time>2013-06-24T14:50:25Z</time>
      </trkpt>
      <trkpt lat="44.56816" lon="2.29297">
        <ele>481.273</ele>
        <time>2013-06-24T14:51:02Z</time>
      </trkpt>
      <trkpt lat="44.56831" lon="2.29253">
        <ele>481.779</ele>
        <time>2013-06-24T14:51:32Z</time>
      </trkpt>
      <trkpt lat="44.56841" lon="2.29217">
        <ele>480.056</ele>
        <time>2013-06-24T14:51:58Z</time>
      </trkpt>
      <trkpt lat="44.56844" lon="2.29197">
        <ele>479.42</ele>
        <time>2013-06-24T14:52:12Z</time>
      </trkpt>
      <trkpt lat="44.5685" lon="2.29155">
        <ele>477.359</ele>
        <time>2013-06-24T14:52:41Z</time>
      </trkpt>
      <trkpt lat="44.5685" lon="2.2912">
        <ele>474.198</ele>
        <time>2013-06-24T14:53:05Z</time>
      </trkpt>
      <trkpt lat="44.56856" lon="2.29078">
        <ele>472.971</ele>
        <time>2013-06-24T14:53:32Z</time>
      </trkpt>
      <trkpt lat="44.56869" lon="2.29037">
        <ele>470.957</ele>
        <time>2013-06-24T14:54:01Z</time>
      </trkpt>
      <trkpt lat="44.56882" lon="2.29008">
        <ele>467.89</ele>
        <time>2013-06-24T14:54:23Z</time>
      </trkpt>
      <trkpt lat="44.56892" lon="2.28969">
        <ele>465.076</ele>
        <time>2013-06-24T14:54:51Z</time>
      </trkpt>
      <trkpt lat="44.56903" lon="2.28933">
        <ele>461.947</ele>
        <time>2013-06-24T14:55:17Z</time>
      </trkpt>
      <trkpt lat="44.56903" lon="2.28931">
        <ele>461.88</ele>
        <time>2013-06-24T14:55:18Z</time>
      </trkpt>
      <trkpt lat="44.56909" lon="2.28895">
        <ele>458.718</ele>
        <time>2013-06-24T14:55:43Z</time>
      </trkpt>
      <trkpt lat="44.56915" lon="2.28864">
        <ele>456.777</ele>
        <time>2013-06-24T14:56:05Z</time>
      </trkpt>
      <trkpt lat="44.56916" lon="2.28831">
        <ele>453.704</ele>
        <time>2013-06-24T14:56:28Z</time>
      </trkpt>
      <trkpt lat="44.56906" lon="2.28788">
        <ele>450.559</ele>
        <time>2013-06-24T14:56:57Z</time>
      </trkpt>
      <trkpt lat="44.56889" lon="2.28749">
        <ele>448.875</ele>
        <time>2013-06-24T14:57:26Z</time>
      </trkpt>
      <trkpt lat="44.5687" lon="2.28725">
        <ele>446.24</ele>
        <time>2013-06-24T14:57:51Z</time>
      </trkpt>
      <trkpt lat="44.56846" lon="2.28694">
        <ele>442.775</ele>
        <time>2013-06-24T14:58:19Z</time>
      </trkpt>
      <trkpt lat="44.56833" lon="2.28655">
        <ele>442.522</ele>
        <time>2013-06-24T14:58:46Z</time>
      </trkpt>
      <trkpt lat="44.56828" lon="2.28621">
        <ele>441.564</ele>
        <time>2013-06-24T14:59:09Z</time>
      </trkpt>
      <trkpt lat="44.56827" lon="2.28582">
        <ele>441.01</ele>
        <time>2013-06-24T14:59:34Z</time>
      </trkpt>
      <trkpt lat="44.56832" lon="2.28537">
        <ele>440.551</ele>
        <time>2013-06-24T15:00:03Z</time>
      </trkpt>
      <trkpt lat="44.5684" lon="2.28495">
        <ele>440.193</ele>
        <time>2013-06-24T15:00:32Z</time>
      </trkpt>
      <trkpt lat="44.56845" lon="2.28495">
        <ele>439.881</ele>
        <time>2013-06-24T15:00:38Z</time>
      </trkpt>
      <trkpt lat="44.5685" lon="2.28496">
        <ele>439.181</ele>
        <time>2013-06-24T15:00:57Z</time>
      </trkpt>
      <trkpt lat="44.5685" lon="2.28496">
        <ele>438.85</ele>
        <time>2013-06-24T15:01:11Z</time>
      </trkpt>
      <trkpt lat="44.5685" lon="2.28496">
        <ele>438.957</ele>
        <time>2013-06-24T15:02:07Z</time>
      </trkpt>
      <trkpt lat="44.56856" lon="2.28494">
        <ele>438.585</ele>
        <time>2013-06-24T15:02:36Z</time>
      </trkpt>
      <trkpt lat="44.56854" lon="2.28498">
        <ele>438.138</ele>
        <time>2013-06-24T15:03:41Z</time>
      </trkpt>
      <trkpt lat="44.56847" lon="2.28493">
        <ele>438.081</ele>
        <time>2013-06-24T15:06:33Z</time>
      </trkpt>
      <trkpt lat="44.56848" lon="2.28494">
        <ele>439.508</ele>
        <time>2013-06-24T15:07:05Z</time>
      </trkpt>
      <trkpt lat="44.56849" lon="2.28494">
        <ele>439.457</ele>
        <time>2013-06-24T15:07:23Z</time>
      </trkpt>
      <trkpt lat="44.56849" lon="2.28491">
        <ele>439.218</ele>
        <time>2013-06-24T15:07:47Z</time>
      </trkpt>
      <trkpt lat="44.56849" lon="2.28478">
        <ele>439.097</ele>
        <time>2013-06-24T15:08:03Z</time>
      </trkpt>
      <trkpt lat="44.56852" lon="2.2844">
        <ele>437.866</ele>
        <time>2013-06-24T15:08:28Z</time>
      </trkpt>
      <trkpt lat="44.56861" lon="2.28392">
        <ele>436.256</ele>
        <time>2013-06-24T15:08:58Z</time>
      </trkpt>
      <trkpt lat="44.5687" lon="2.28344">
        <ele>436.286</ele>
        <time>2013-06-24T15:09:28Z</time>
      </trkpt>
      <trkpt lat="44.56879" lon="2.28305">
        <ele>436.495</ele>
        <time>2013-06-24T15:09:54Z</time>
      </trkpt>
      <trkpt lat="44.56889" lon="2.28263">
        <ele>436.947</ele>
        <time>2013-06-24T15:10:21Z</time>
      </trkpt>
      <trkpt lat="44.56899" lon="2.28229">
        <ele>437.218</ele>
        <time>2013-06-24T15:10:44Z</time>
      </trkpt>
      <trkpt lat="44.56921" lon="2.28198">
        <ele>438.081</ele>
        <time>2013-06-24T15:11:10Z</time>
      </trkpt>
      <trkpt lat="44.56938" lon="2.2817">
        <ele>438.178</ele>
        <time>2013-06-24T15:11:34Z</time>
      </trkpt>
      <trkpt lat="44.5696" lon="2.28133">
        <ele>437.029</ele>
        <time>2013-06-24T15:12:04Z</time>
      </trkpt>
      <trkpt lat="44.56975" lon="2.28113">
        <ele>436.129</ele>
        <time>2013-06-24T15:12:26Z</time>
      </trkpt>
      <trkpt lat="44.56994" lon="2.28082">
        <ele>435.358</ele>
        <time>2013-06-24T15:12:51Z</time>
      </trkpt>
      <trkpt lat="44.57007" lon="2.28056">
        <ele>431.967</ele>
        <time>2013-06-24T15:13:11Z</time>
      </trkpt>
      <trkpt lat="44.57014" lon="2.28023">
        <ele>428.919</ele>
        <time>2013-06-24T15:13:32Z</time>
      </trkpt>
      <trkpt lat="44.57014" lon="2.28022">
        <ele>429.171</ele>
        <time>2013-06-24T15:13:33Z</time>
      </trkpt>
      <trkpt lat="44.5702" lon="2.27981">
        <ele>427.153</ele>
        <time>2013-06-24T15:13:59Z</time>
      </trkpt>
      <trkpt lat="44.57024" lon="2.27954">
        <ele>424.99</ele>
        <time>2013-06-24T15:14:25Z</time>
      </trkpt>
      <trkpt lat="44.57029" lon="2.27931">
        <ele>422.693</ele>
        <time>2013-06-24T15:15:27Z</time>
      </trkpt>
      <trkpt lat="44.5704" lon="2.27905">
        <ele>419.678</ele>
        <time>2013-06-24T15:15:47Z</time>
      </trkpt>
      <trkpt lat="44.57052" lon="2.27881">
        <ele>416.539</ele>
        <time>2013-06-24T15:16:06Z</time>
      </trkpt>
      <trkpt lat="44.57074" lon="2.27843">
        <ele>414.305</ele>
        <time>2013-06-24T15:16:35Z</time>
      </trkpt>
      <trkpt lat="44.57095" lon="2.2781">
        <ele>413.422</ele>
        <time>2013-06-24T15:17:04Z</time>
      </trkpt>
      <trkpt lat="44.57107" lon="2.27789">
        <ele>413.168</ele>
        <time>2013-06-24T15:17:21Z</time>
      </trkpt>
      <trkpt lat="44.57127" lon="2.27757">
        <ele>411.708</ele>
        <time>2013-06-24T15:17:46Z</time>
      </trkpt>
      <trkpt lat="44.57144" lon="2.27725">
        <ele>410.804</ele>
        <time>2013-06-24T15:18:11Z</time>
      </trkpt>
      <trkpt lat="44.5716" lon="2.27694">
        <ele>408.36</ele>
        <time>2013-06-24T15:18:35Z</time>
      </trkpt>
      <trkpt lat="44.57174" lon="2.27666">
        <ele>407.63</ele>
        <time>2013-06-24T15:18:55Z</time>
      </trkpt>
      <trkpt lat="44.5719" lon="2.27632">
        <ele>406.382</ele>
        <time>2013-06-24T15:19:19Z</time>
      </trkpt>
      <trkpt lat="44.57208" lon="2.27602">
        <ele>406.136</ele>
        <time>2013-06-24T15:19:44Z</time>
      </trkpt>
      <trkpt lat="44.57224" lon="2.27581">
        <ele>405.028</ele>
        <time>2013-06-24T15:20:04Z</time>
      </trkpt>
      <trkpt lat="44.57242" lon="2.27555">
        <ele>402.888</ele>
        <time>2013-06-24T15:20:29Z</time>
      </trkpt>
      <trkpt lat="44.57258" lon="2.27528">
        <ele>401.487</ele>
        <time>2013-06-24T15:20:52Z</time>
      </trkpt>
      <trkpt lat="44.57274" lon="2.27496">
        <ele>400.415</ele>
        <time>2013-06-24T15:21:17Z</time>
      </trkpt>
      <trkpt lat="44.5729" lon="2.2746">
        <ele>399.362</ele>
        <time>2013-06-24T15:21:43Z</time>
      </trkpt>
      <trkpt lat="44.573" lon="2.27433">
        <ele>398.575</ele>
        <time>2013-06-24T15:22:02Z</time>
      </trkpt>
      <trkpt lat="44.57308" lon="2.2741">
        <ele>397.397</ele>
        <time>2013-06-24T15:22:20Z</time>
      </trkpt>
      <trkpt lat="44.57322" lon="2.27376">
        <ele>395.189</ele>
        <time>2013-06-24T15:22:44Z</time>
      </trkpt>
      <trkpt lat="44.57342" lon="2.27345">
        <ele>393.018</ele>
        <time>2013-06-24T15:23:12Z</time>
      </trkpt>
      <trkpt lat="44.57346" lon="2.27342">
        <ele>392.281</ele>
        <time>2013-06-24T15:23:16Z</time>
      </trkpt>
      <trkpt lat="44.57356" lon="2.27341">
        <ele>392.053</ele>
        <time>2013-06-24T15:23:25Z</time>
      </trkpt>
      <trkpt lat="44.57374" lon="2.27326">
        <ele>390.581</ele>
        <time>2013-06-24T15:23:46Z</time>
      </trkpt>
      <trkpt lat="44.57389" lon="2.27313">
        <ele>389.125</ele>
        <time>2013-06-24T15:24:03Z</time>
      </trkpt>
      <trkpt lat="44.57406" lon="2.27289">
        <ele>386.249</ele>
        <time>2013-06-24T15:24:24Z</time>
      </trkpt>
      <trkpt lat="44.57417" lon="2.27262">
        <ele>385.905</ele>
        <time>2013-06-24T15:24:45Z</time>
      </trkpt>
      <trkpt lat="44.57422" lon="2.27248">
        <ele>385.25</ele>
        <time>2013-06-24T15:24:56Z</time>
      </trkpt>
      <trkpt lat="44.57428" lon="2.27208">
        <ele>384.086</ele>
        <time>2013-06-24T15:25:21Z</time>
      </trkpt>
      <trkpt lat="44.57431" lon="2.27176">
        <ele>383.801</ele>
        <time>2013-06-24T15:25:43Z</time>
      </trkpt>
      <trkpt lat="44.57435" lon="2.27144">
        <ele>382.578</ele>
        <time>2013-06-24T15:26:07Z</time>
      </trkpt>
      <trkpt lat="44.57434" lon="2.27141">
        <ele>381.816</ele>
        <time>2013-06-24T15:26:28Z</time>
      </trkpt>
      <trkpt lat="44.57434" lon="2.27142">
        <ele>381.809</ele>
        <time>2013-06-24T15:26:45Z</time>
      </trkpt>
      <trkpt lat="44.57433" lon="2.2714">
        <ele>382.412</ele>
        <time>2013-06-24T15:29:59Z</time>
      </trkpt>
      <trkpt lat="44.57432" lon="2.2714">
        <ele>382.295</ele>
        <time>2013-06-24T15:30:34Z</time>
      </trkpt>
      <trkpt lat="44.57433" lon="2.2714">
        <ele>381.79</ele>
        <time>2013-06-24T15:30:54Z</time>
      </trkpt>
      <trkpt lat="44.57433" lon="2.2714">
        <ele>382.004</ele>
        <time>2013-06-24T15:31:06Z</time>
      </trkpt>
      <trkpt lat="44.57436" lon="2.27132">
        <ele>382.003</ele>
        <time>2013-06-24T15:31:14Z</time>
      </trkpt>
      <trkpt lat="44.57438" lon="2.27126">
        <ele>381.841</ele>
        <time>2013-06-24T15:31:19Z</time>
      </trkpt>
      <trkpt lat="44.57461" lon="2.27106">
        <ele>380.968</ele>
        <time>2013-06-24T15:31:44Z</time>
      </trkpt>
      <trkpt lat="44.57485" lon="2.27099">
        <ele>380.101</ele>
        <time>2013-06-24T15:32:09Z</time>
      </trkpt>
      <trkpt lat="44.57478" lon="2.27097">
        <ele>380.493</ele>
        <time>2013-06-24T15:32:31Z</time>
      </trkpt>
      <trkpt lat="44.57479" lon="2.27102">
        <ele>380.464</ele>
        <time>2013-06-24T15:32:34Z</time>
      </trkpt>
      <trkpt lat="44.57483" lon="2.27105">
        <ele>380.941</ele>
        <time>2013-06-24T15:32:38Z</time>
      </trkpt>
      <trkpt lat="44.57507" lon="2.27121">
        <ele>380.932</ele>
        <time>2013-06-24T15:33:00Z</time>
      </trkpt>
      <trkpt lat="44.57526" lon="2.27139">
        <ele>380.746</ele>
        <time>2013-06-24T15:33:22Z</time>
      </trkpt>
      <trkpt lat="44.57544" lon="2.27158">
        <ele>379.607</ele>
        <time>2013-06-24T15:33:45Z</time>
      </trkpt>
      <trkpt lat="44.57563" lon="2.27183">
        <ele>379.328</ele>
        <time>2013-06-24T15:34:11Z</time>
      </trkpt>
      <trkpt lat="44.57575" lon="2.27198">
        <ele>379.523</ele>
        <time>2013-06-24T15:34:32Z</time>
      </trkpt>
      <trkpt lat="44.57576" lon="2.27199">
        <ele>379.34</ele>
        <time>2013-06-24T15:34:33Z</time>
      </trkpt>
      <trkpt lat="44.57586" lon="2.27211">
        <ele>379.48</ele>
        <time>2013-06-24T15:34:58Z</time>
      </trkpt>
      <trkpt lat="44.57583" lon="2.27208">
        <ele>379.651</ele>
        <time>2013-06-24T15:35:12Z</time>
      </trkpt>
      <trkpt lat="44.57581" lon="2.27206">
        <ele>380.09</ele>
        <time>2013-06-24T15:35:15Z</time>
      </trkpt>
      <trkpt lat="44.57585" lon="2.27199">
        <ele>380.205</ele>
        <time>2013-06-24T15:35:35Z</time>
      </trkpt>
      <trkpt lat="44.57579" lon="2.27195">
        <ele>383.205</ele>
        <time>2013-06-24T15:36:58Z</time>
      </trkpt>
      <trkpt lat="44.57595" lon="2.27191">
        <ele>385.113</ele>
        <time>2013-06-24T15:38:13Z</time>
      </trkpt>
      <trkpt lat="44.5759" lon="2.27189">
        <ele>385.702</ele>
        <time>2013-06-24T15:38:24Z</time>
      </trkpt>
      <trkpt lat="44.57578" lon="2.27178">
        <ele>385.642</ele>
        <time>2013-06-24T15:38:42Z</time>
      </trkpt>
      <trkpt lat="44.57574" lon="2.2717">
        <ele>385.681</ele>
        <time>2013-06-24T15:38:50Z</time>
      </trkpt>
      <trkpt lat="44.57554" lon="2.27155">
        <ele>386.528</ele>
        <time>2013-06-24T15:39:10Z</time>
      </trkpt>
      <trkpt lat="44.57539" lon="2.27141">
        <ele>386.649</ele>
        <time>2013-06-24T15:39:28Z</time>
      </trkpt>
      <trkpt lat="44.57523" lon="2.27126">
        <ele>386.248</ele>
        <time>2013-06-24T15:39:48Z</time>
      </trkpt>
      <trkpt lat="44.57522" lon="2.27125">
        <ele>386.749</ele>
        <time>2013-06-24T15:39:50Z</time>
      </trkpt>
      <trkpt lat="44.57505" lon="2.2711">
        <ele>386.778</ele>
        <time>2013-06-24T15:40:08Z</time>
      </trkpt>
      <trkpt lat="44.57501" lon="2.27111">
        <ele>386.64</ele>
        <time>2013-06-24T15:40:12Z</time>
      </trkpt>
      <trkpt lat="44.57483" lon="2.27105">
        <ele>387.037</ele>
        <time>2013-06-24T15:40:30Z</time>
      </trkpt>
      <trkpt lat="44.57462" lon="2.27104">
        <ele>387.222</ele>
        <time>2013-06-24T15:40:46Z</time>
      </trkpt>
      <trkpt lat="44.57444" lon="2.27105">
        <ele>387.835</ele>
        <time>2013-06-24T15:41:04Z</time>
      </trkpt>
      <trkpt lat="44.57437" lon="2.27104">
        <ele>386.883</ele>
        <time>2013-06-24T15:41:37Z</time>
      </trkpt>
      <trkpt lat="44.57434" lon="2.2709">
        <ele>384.776</ele>
        <time>2013-06-24T15:41:48Z</time>
      </trkpt>
      <trkpt lat="44.57438" lon="2.27061">
        <ele>384.089</ele>
        <time>2013-06-24T15:42:10Z</time>
      </trkpt>
      <trkpt lat="44.57439" lon="2.27052">
        <ele>383.643</ele>
        <time>2013-06-24T15:42:30Z</time>
      </trkpt>
      <trkpt lat="44.57436" lon="2.2706">
        <ele>383.501</ele>
        <time>2013-06-24T15:42:47Z</time>
      </trkpt>
      <trkpt lat="44.57436" lon="2.27062">
        <ele>383.707</ele>
        <time>2013-06-24T15:42:50Z</time>
      </trkpt>
      <trkpt lat="44.57431" lon="2.27096">
        <ele>386.6</ele>
        <time>2013-06-24T15:43:14Z</time>
      </trkpt>
      <trkpt lat="44.57428" lon="2.27111">
        <ele>387.727</ele>
        <time>2013-06-24T15:43:25Z</time>
      </trkpt>
      <trkpt lat="44.57431" lon="2.27139">
        <ele>388.903</ele>
        <time>2013-06-24T15:43:50Z</time>
      </trkpt>
      <trkpt lat="44.57432" lon="2.27136">
        <ele>389.115</ele>
        <time>2013-06-24T15:43:54Z</time>
      </trkpt>
      <trkpt lat="44.57436" lon="2.27096">
        <ele>386.765</ele>
        <time>2013-06-24T15:44:19Z</time>
      </trkpt>
      <trkpt lat="44.57441" lon="2.27056">
        <ele>383.554</ele>
        <time>2013-06-24T15:44:43Z</time>
      </trkpt>
      <trkpt lat="44.57449" lon="2.27023">
        <ele>381.247</ele>
        <time>2013-06-24T15:45:05Z</time>
      </trkpt>
      <trkpt lat="44.57452" lon="2.27017">
        <ele>380.554</ele>
        <time>2013-06-24T15:45:10Z</time>
      </trkpt>
      <trkpt lat="44.57456" lon="2.27011">
        <ele>379.887</ele>
        <time>2013-06-24T15:45:15Z</time>
      </trkpt>
      <trkpt lat="44.57477" lon="2.26974">
        <ele>377.691</ele>
        <time>2013-06-24T15:45:42Z</time>
      </trkpt>
      <trkpt lat="44.57501" lon="2.26938">
        <ele>377.365</ele>
        <time>2013-06-24T15:46:09Z</time>
      </trkpt>
      <trkpt lat="44.5753" lon="2.26895">
        <ele>376.381</ele>
        <time>2013-06-24T15:46:41Z</time>
      </trkpt>
      <trkpt lat="44.57551" lon="2.2686">
        <ele>376.228</ele>
        <time>2013-06-24T15:47:07Z</time>
      </trkpt>
      <trkpt lat="44.57572" lon="2.26827">
        <ele>376.418</ele>
        <time>2013-06-24T15:47:35Z</time>
      </trkpt>
      <trkpt lat="44.57581" lon="2.26795">
        <ele>376.272</ele>
        <time>2013-06-24T15:47:57Z</time>
      </trkpt>
      <trkpt lat="44.57584" lon="2.26758">
        <ele>375.537</ele>
        <time>2013-06-24T15:48:20Z</time>
      </trkpt>
      <trkpt lat="44.57583" lon="2.26715">
        <ele>373.712</ele>
        <time>2013-06-24T15:48:47Z</time>
      </trkpt>
      <trkpt lat="44.5758" lon="2.26679">
        <ele>370.889</ele>
        <time>2013-06-24T15:49:10Z</time>
      </trkpt>
      <trkpt lat="44.57571" lon="2.26648">
        <ele>367.792</ele>
        <time>2013-06-24T15:49:31Z</time>
      </trkpt>
      <trkpt lat="44.57565" lon="2.2663">
        <ele>367.843</ele>
        <time>2013-06-24T15:49:43Z</time>
      </trkpt>
      <trkpt lat="44.57549" lon="2.26592">
        <ele>366.994</ele>
        <time>2013-06-24T15:50:10Z</time>
      </trkpt>
      <trkpt lat="44.57536" lon="2.26557">
        <ele>366.21</ele>
        <time>2013-06-24T15:50:35Z</time>
      </trkpt>
      <trkpt lat="44.57526" lon="2.2652">
        <ele>363.84</ele>
        <time>2013-06-24T15:51:02Z</time>
      </trkpt>
      <trkpt lat="44.57523" lon="2.26482">
        <ele>361.978</ele>
        <time>2013-06-24T15:51:28Z</time>
      </trkpt>
      <trkpt lat="44.57525" lon="2.26444">
        <ele>358.831</ele>
        <time>2013-06-24T15:51:53Z</time>
      </trkpt>
      <trkpt lat="44.57527" lon="2.26407">
        <ele>357.898</ele>
        <time>2013-06-24T15:52:19Z</time>
      </trkpt>
      <trkpt lat="44.57525" lon="2.26398">
        <ele>356.859</ele>
        <time>2013-06-24T15:52:36Z</time>
      </trkpt>
      <trkpt lat="44.57529" lon="2.26379">
        <ele>355.386</ele>
        <time>2013-06-24T15:52:54Z</time>
      </trkpt>
      <trkpt lat="44.57528" lon="2.26373">
        <ele>354.913</ele>
        <time>2013-06-24T15:53:09Z</time>
      </trkpt>
      <trkpt lat="44.57523" lon="2.26358">
        <ele>354.703</ele>
        <time>2013-06-24T15:53:22Z</time>
      </trkpt>
      <trkpt lat="44.57519" lon="2.26328">
        <ele>353.27</ele>
        <time>2013-06-24T15:53:45Z</time>
      </trkpt>
      <trkpt lat="44.57511" lon="2.26293">
        <ele>351.947</ele>
        <time>2013-06-24T15:54:11Z</time>
      </trkpt>
      <trkpt lat="44.57507" lon="2.26278">
        <ele>351.183</ele>
        <time>2013-06-24T15:54:21Z</time>
      </trkpt>
      <trkpt lat="44.57496" lon="2.26241">
        <ele>350.474</ele>
        <time>2013-06-24T15:54:47Z</time>
      </trkpt>
      <trkpt lat="44.57484" lon="2.26204">
        <ele>351.078</ele>
        <time>2013-06-24T15:55:14Z</time>
      </trkpt>
      <trkpt lat="44.57471" lon="2.26166">
        <ele>351.902</ele>
        <time>2013-06-24T15:55:42Z</time>
      </trkpt>
      <trkpt lat="44.5746" lon="2.26133">
        <ele>350.331</ele>
        <time>2013-06-24T15:56:07Z</time>
      </trkpt>
      <trkpt lat="44.57451" lon="2.26102">
        <ele>348.651</ele>
        <time>2013-06-24T15:56:29Z</time>
      </trkpt>
      <trkpt lat="44.57442" lon="2.26067">
        <ele>348.1</ele>
        <time>2013-06-24T15:56:53Z</time>
      </trkpt>
      <trkpt lat="44.57434" lon="2.26027">
        <ele>348.475</ele>
        <time>2013-06-24T15:57:21Z</time>
      </trkpt>
      <trkpt lat="44.57427" lon="2.25992">
        <ele>350.902</ele>
        <time>2013-06-24T15:57:49Z</time>
      </trkpt>
      <trkpt lat="44.57423" lon="2.25971">
        <ele>353.278</ele>
        <time>2013-06-24T15:58:08Z</time>
      </trkpt>
      <trkpt lat="44.57419" lon="2.25953">
        <ele>353.447</ele>
        <time>2013-06-24T15:58:27Z</time>
      </trkpt>
      <trkpt lat="44.57417" lon="2.25936">
        <ele>354.088</ele>
        <time>2013-06-24T15:58:53Z</time>
      </trkpt>
      <trkpt lat="44.57415" lon="2.25935">
        <ele>354.455</ele>
        <time>2013-06-24T15:59:17Z</time>
      </trkpt>
      <trkpt lat="44.57415" lon="2.25917">
        <ele>355.347</ele>
        <time>2013-06-24T15:59:47Z</time>
      </trkpt>
      <trkpt lat="44.57415" lon="2.25867">
        <ele>356.548</ele>
        <time>2013-06-24T16:00:21Z</time>
      </trkpt>
      <trkpt lat="44.57415" lon="2.25833">
        <ele>358.217</ele>
        <time>2013-06-24T16:00:47Z</time>
      </trkpt>
      <trkpt lat="44.57418" lon="2.25801">
        <ele>359.473</ele>
        <time>2013-06-24T16:01:10Z</time>
      </trkpt>
      <trkpt lat="44.57422" lon="2.2577">
        <ele>359.173</ele>
        <time>2013-06-24T16:01:31Z</time>
      </trkpt>
      <trkpt lat="44.57426" lon="2.25746">
        <ele>357.205</ele>
        <time>2013-06-24T16:01:52Z</time>
      </trkpt>
      <trkpt lat="44.57441" lon="2.25723">
        <ele>356.2</ele>
        <time>2013-06-24T16:02:17Z</time>
      </trkpt>
      <trkpt lat="44.57456" lon="2.25698">
        <ele>353.363</ele>
        <time>2013-06-24T16:02:43Z</time>
      </trkpt>
      <trkpt lat="44.57468" lon="2.25665">
        <ele>350.927</ele>
        <time>2013-06-24T16:03:10Z</time>
      </trkpt>
      <trkpt lat="44.57482" lon="2.25641">
        <ele>348.138</ele>
        <time>2013-06-24T16:03:31Z</time>
      </trkpt>
      <trkpt lat="44.57494" lon="2.2562">
        <ele>346.731</ele>
        <time>2013-06-24T16:03:49Z</time>
      </trkpt>
      <trkpt lat="44.575" lon="2.25606">
        <ele>346.956</ele>
        <time>2013-06-24T16:04:01Z</time>
      </trkpt>
      <trkpt lat="44.57509" lon="2.25571">
        <ele>345.124</ele>
        <time>2013-06-24T16:04:27Z</time>
      </trkpt>
      <trkpt lat="44.57511" lon="2.25529">
        <ele>343.904</ele>
        <time>2013-06-24T16:04:50Z</time>
      </trkpt>
      <trkpt lat="44.57515" lon="2.25488">
        <ele>340.888</ele>
        <time>2013-06-24T16:05:17Z</time>
      </trkpt>
      <trkpt lat="44.57512" lon="2.2545">
        <ele>338.616</ele>
        <time>2013-06-24T16:05:43Z</time>
      </trkpt>
      <trkpt lat="44.57507" lon="2.25415">
        <ele>335.587</ele>
        <time>2013-06-24T16:06:08Z</time>
      </trkpt>
      <trkpt lat="44.57502" lon="2.25381">
        <ele>333.666</ele>
        <time>2013-06-24T16:06:33Z</time>
      </trkpt>
      <trkpt lat="44.57499" lon="2.25356">
        <ele>332.253</ele>
        <time>2013-06-24T16:06:51Z</time>
      </trkpt>
      <trkpt lat="44.57494" lon="2.25318">
        <ele>331.637</ele>
        <time>2013-06-24T16:07:15Z</time>
      </trkpt>
      <trkpt lat="44.57489" lon="2.25276">
        <ele>331.436</ele>
        <time>2013-06-24T16:07:44Z</time>
      </trkpt>
      <trkpt lat="44.57489" lon="2.25272">
        <ele>331.733</ele>
        <time>2013-06-24T16:08:03Z</time>
      </trkpt>
      <trkpt lat="44.57492" lon="2.25271">
        <ele>331.757</ele>
        <time>2013-06-24T16:08:58Z</time>
      </trkpt>
      <trkpt lat="44.57493" lon="2.25249">
        <ele>332.646</ele>
        <time>2013-06-24T16:09:16Z</time>
      </trkpt>
      <trkpt lat="44.57494" lon="2.25245">
        <ele>332.346</ele>
        <time>2013-06-24T16:09:19Z</time>
      </trkpt>
      <trkpt lat="44.57504" lon="2.25212">
        <ele>333.387</ele>
        <time>2013-06-24T16:09:45Z</time>
      </trkpt>
      <trkpt lat="44.57517" lon="2.25181">
        <ele>334.895</ele>
        <time>2013-06-24T16:10:10Z</time>
      </trkpt>
      <trkpt lat="44.57531" lon="2.25148">
        <ele>335.27</ele>
        <time>2013-06-24T16:10:36Z</time>
      </trkpt>
      <trkpt lat="44.57549" lon="2.25119">
        <ele>334.673</ele>
        <time>2013-06-24T16:11:01Z</time>
      </trkpt>
      <trkpt lat="44.5757" lon="2.25092">
        <ele>332.7</ele>
        <time>2013-06-24T16:11:27Z</time>
      </trkpt>
      <trkpt lat="44.57591" lon="2.25071">
        <ele>331.237</ele>
        <time>2013-06-24T16:11:51Z</time>
      </trkpt>
      <trkpt lat="44.57609" lon="2.25052">
        <ele>329.77</ele>
        <time>2013-06-24T16:12:14Z</time>
      </trkpt>
      <trkpt lat="44.57628" lon="2.25034">
        <ele>326.527</ele>
        <time>2013-06-24T16:12:36Z</time>
      </trkpt>
      <trkpt lat="44.57647" lon="2.25012">
        <ele>324.672</ele>
        <time>2013-06-24T16:13:00Z</time>
      </trkpt>
      <trkpt lat="44.57662" lon="2.24987">
        <ele>323.622</ele>
        <time>2013-06-24T16:13:22Z</time>
      </trkpt>
      <trkpt lat="44.57676" lon="2.2497">
        <ele>322.734</ele>
        <time>2013-06-24T16:13:40Z</time>
      </trkpt>
      <trkpt lat="44.57692" lon="2.24949">
        <ele>319.591</ele>
        <time>2013-06-24T16:14:01Z</time>
      </trkpt>
      <trkpt lat="44.577" lon="2.24935">
        <ele>318.312</ele>
        <time>2013-06-24T16:14:14Z</time>
      </trkpt>
      <trkpt lat="44.5771" lon="2.24914">
        <ele>316.825</ele>
        <time>2013-06-24T16:14:33Z</time>
      </trkpt>
      <trkpt lat="44.57721" lon="2.24894">
        <ele>316.704</ele>
        <time>2013-06-24T16:14:50Z</time>
      </trkpt>
      <trkpt lat="44.57736" lon="2.24883">
        <ele>316.751</ele>
        <time>2013-06-24T16:15:06Z</time>
      </trkpt>
      <trkpt lat="44.57747" lon="2.24866">
        <ele>316.575</ele>
        <time>2013-06-24T16:15:20Z</time>
      </trkpt>
      <trkpt lat="44.57757" lon="2.2485">
        <ele>316.112</ele>
        <time>2013-06-24T16:15:33Z</time>
      </trkpt>
      <trkpt lat="44.57774" lon="2.24829">
        <ele>316.544</ele>
        <time>2013-06-24T16:15:53Z</time>
      </trkpt>
      <trkpt lat="44.57792" lon="2.24815">
        <ele>317.04</ele>
        <time>2013-06-24T16:16:11Z</time>
      </trkpt>
      <trkpt lat="44.57803" lon="2.24811">
        <ele>317.31</ele>
        <time>2013-06-24T16:16:22Z</time>
      </trkpt>
      <trkpt lat="44.57821" lon="2.24814">
        <ele>318.496</ele>
        <time>2013-06-24T16:16:42Z</time>
      </trkpt>
      <trkpt lat="44.57833" lon="2.24819">
        <ele>320.422</ele>
        <time>2013-06-24T16:17:00Z</time>
      </trkpt>
      <trkpt lat="44.57843" lon="2.24823">
        <ele>322.51</ele>
        <time>2013-06-24T16:17:11Z</time>
      </trkpt>
      <trkpt lat="44.5785" lon="2.24819">
        <ele>322.113</ele>
        <time>2013-06-24T16:17:27Z</time>
      </trkpt>
      <trkpt lat="44.57855" lon="2.24817">
        <ele>323.019</ele>
        <time>2013-06-24T16:17:47Z</time>
      </trkpt>
      <trkpt lat="44.57855" lon="2.24811">
        <ele>322.492</ele>
        <time>2013-06-24T16:19:23Z</time>
      </trkpt>
      <trkpt lat="44.57846" lon="2.24819">
        <ele>321.678</ele>
        <time>2013-06-24T16:19:37Z</time>
      </trkpt>
      <trkpt lat="44.57864" lon="2.24848">
        <ele>321.651</ele>
        <time>2013-06-24T16:19:57Z</time>
      </trkpt>
      <trkpt lat="44.5788" lon="2.24879">
        <ele>322.614</ele>
        <time>2013-06-24T16:20:21Z</time>
      </trkpt>
      <trkpt lat="44.57888" lon="2.24899">
        <ele>322.821</ele>
        <time>2013-06-24T16:20:44Z</time>
      </trkpt>
      <trkpt lat="44.57888" lon="2.24895">
        <ele>322.812</ele>
        <time>2013-06-24T16:20:47Z</time>
      </trkpt>
      <trkpt lat="44.57889" lon="2.24888">
        <ele>322.831</ele>
        <time>2013-06-24T16:21:08Z</time>
      </trkpt>
      <trkpt lat="44.57892" lon="2.24886">
        <ele>322.936</ele>
        <time>2013-06-24T16:21:34Z</time>
      </trkpt>
      <trkpt lat="44.57887" lon="2.24884">
        <ele>322.601</ele>
        <time>2013-06-24T16:23:27Z</time>
      </trkpt>
      <trkpt lat="44.57874" lon="2.24862">
        <ele>321.682</ele>
        <time>2013-06-24T16:23:47Z</time>
      </trkpt>
      <trkpt lat="44.5786" lon="2.24838">
        <ele>321.399</ele>
        <time>2013-06-24T16:24:06Z</time>
      </trkpt>
      <trkpt lat="44.57857" lon="2.24832">
        <ele>322.058</ele>
        <time>2013-06-24T16:24:11Z</time>
      </trkpt>
      <trkpt lat="44.57852" lon="2.24819">
        <ele>322.216</ele>
        <time>2013-06-24T16:24:24Z</time>
      </trkpt>
      <trkpt lat="44.57866" lon="2.24812">
        <ele>322.078</ele>
        <time>2013-06-24T16:24:41Z</time>
      </trkpt>
      <trkpt lat="44.57879" lon="2.248">
        <ele>322.058</ele>
        <time>2013-06-24T16:24:58Z</time>
      </trkpt>
      <trkpt lat="44.5789" lon="2.24771">
        <ele>322.004</ele>
        <time>2013-06-24T16:25:16Z</time>
      </trkpt>
      <trkpt lat="44.57891" lon="2.24729">
        <ele>322.282</ele>
        <time>2013-06-24T16:25:41Z</time>
      </trkpt>
      <trkpt lat="44.57894" lon="2.2469">
        <ele>323.277</ele>
        <time>2013-06-24T16:26:06Z</time>
      </trkpt>
      <trkpt lat="44.57899" lon="2.24648">
        <ele>324.193</ele>
        <time>2013-06-24T16:26:34Z</time>
      </trkpt>
      <trkpt lat="44.57898" lon="2.24633">
        <ele>325.454</ele>
        <time>2013-06-24T16:26:48Z</time>
      </trkpt>
      <trkpt lat="44.57895" lon="2.24614">
        <ele>325</ele>
        <time>2013-06-24T16:27:10Z</time>
      </trkpt>
      <trkpt lat="44.57896" lon="2.24612">
        <ele>325.792</ele>
        <time>2013-06-24T16:27:45Z</time>
      </trkpt>
      <trkpt lat="44.57893" lon="2.24607">
        <ele>324.691</ele>
        <time>2013-06-24T16:28:07Z</time>
      </trkpt>
      <trkpt lat="44.57874" lon="2.24572">
        <ele>323.427</ele>
        <time>2013-06-24T16:28:37Z</time>
      </trkpt>
      <trkpt lat="44.5785" lon="2.24546">
        <ele>321.538</ele>
        <time>2013-06-24T16:29:06Z</time>
      </trkpt>
      <trkpt lat="44.57831" lon="2.2453">
        <ele>320.934</ele>
        <time>2013-06-24T16:29:29Z</time>
      </trkpt>
      <trkpt lat="44.5781" lon="2.24518">
        <ele>319.745</ele>
        <time>2013-06-24T16:29:50Z</time>
      </trkpt>
      <trkpt lat="44.57795" lon="2.24509">
        <ele>319.925</ele>
        <time>2013-06-24T16:30:06Z</time>
      </trkpt>
      <trkpt lat="44.57771" lon="2.24496">
        <ele>319.543</ele>
        <time>2013-06-24T16:30:26Z</time>
      </trkpt>
      <trkpt lat="44.57746" lon="2.24484">
        <ele>318.706</ele>
        <time>2013-06-24T16:30:51Z</time>
      </trkpt>
      <trkpt lat="44.57719" lon="2.2447">
        <ele>316.871</ele>
        <time>2013-06-24T16:31:18Z</time>
      </trkpt>
      <trkpt lat="44.57697" lon="2.24456">
        <ele>315.978</ele>
        <time>2013-06-24T16:31:42Z</time>
      </trkpt>
      <trkpt lat="44.57691" lon="2.24446">
        <ele>312.942</ele>
        <time>2013-06-24T16:31:55Z</time>
      </trkpt>
      <trkpt lat="44.57675" lon="2.24442">
        <ele>313.316</ele>
        <time>2013-06-24T16:32:11Z</time>
      </trkpt>
      <trkpt lat="44.57673" lon="2.24443">
        <ele>312.817</ele>
        <time>2013-06-24T16:32:30Z</time>
      </trkpt>
      <trkpt lat="44.5767" lon="2.24441">
        <ele>312.646</ele>
        <time>2013-06-24T16:32:44Z</time>
      </trkpt>
      <trkpt lat="44.5767" lon="2.24431">
        <ele>312.633</ele>
        <time>2013-06-24T16:32:52Z</time>
      </trkpt>
      <trkpt lat="44.57673" lon="2.24435">
        <ele>312.926</ele>
        <time>2013-06-24T16:33:03Z</time>
      </trkpt>
      <trkpt lat="44.57688" lon="2.24423">
        <ele>312.698</ele>
        <time>2013-06-24T16:33:20Z</time>
      </trkpt>
      <trkpt lat="44.57704" lon="2.24396">
        <ele>312.32</ele>
        <time>2013-06-24T16:33:43Z</time>
      </trkpt>
      <trkpt lat="44.57723" lon="2.24381">
        <ele>309.172</ele>
        <time>2013-06-24T16:34:04Z</time>
      </trkpt>
      <trkpt lat="44.57743" lon="2.24361">
        <ele>306.376</ele>
        <time>2013-06-24T16:34:27Z</time>
      </trkpt>
      <trkpt lat="44.57766" lon="2.24335">
        <ele>303.737</ele>
        <time>2013-06-24T16:34:55Z</time>
      </trkpt>
      <trkpt lat="44.57782" lon="2.24318">
        <ele>301.801</ele>
        <time>2013-06-24T16:35:15Z</time>
      </trkpt>
      <trkpt lat="44.57797" lon="2.243">
        <ele>298.608</ele>
        <time>2013-06-24T16:35:33Z</time>
      </trkpt>
      <trkpt lat="44.5781" lon="2.24282">
        <ele>296.681</ele>
        <time>2013-06-24T16:35:50Z</time>
      </trkpt>
      <trkpt lat="44.57823" lon="2.24249">
        <ele>293.535</ele>
        <time>2013-06-24T16:36:13Z</time>
      </trkpt>
      <trkpt lat="44.57825" lon="2.24242">
        <ele>293.118</ele>
        <time>2013-06-24T16:36:19Z</time>
      </trkpt>
      <trkpt lat="44.57832" lon="2.24232">
        <ele>292.49</ele>
        <time>2013-06-24T16:36:40Z</time>
      </trkpt>
      <trkpt lat="44.57832" lon="2.24229">
        <ele>292.389</ele>
        <time>2013-06-24T16:37:05Z</time>
      </trkpt>
      <trkpt lat="44.57832" lon="2.24197">
        <ele>288.955</ele>
        <time>2013-06-24T16:37:28Z</time>
      </trkpt>
      <trkpt lat="44.57834" lon="2.24166">
        <ele>286.36</ele>
        <time>2013-06-24T16:37:48Z</time>
      </trkpt>
      <trkpt lat="44.57828" lon="2.24126">
        <ele>283.123</ele>
        <time>2013-06-24T16:38:14Z</time>
      </trkpt>
      <trkpt lat="44.57837" lon="2.24084">
        <ele>279.703</ele>
        <time>2013-06-24T16:38:44Z</time>
      </trkpt>
      <trkpt lat="44.57855" lon="2.24058">
        <ele>277.214</ele>
        <time>2013-06-24T16:39:08Z</time>
      </trkpt>
      <trkpt lat="44.57869" lon="2.24046">
        <ele>275.338</ele>
        <time>2013-06-24T16:39:25Z</time>
      </trkpt>
      <trkpt lat="44.57892" lon="2.24045">
        <ele>272.818</ele>
        <time>2013-06-24T16:39:50Z</time>
      </trkpt>
      <trkpt lat="44.57912" lon="2.24026">
        <ele>270.09</ele>
        <time>2013-06-24T16:40:15Z</time>
      </trkpt>
      <trkpt lat="44.57929" lon="2.24001">
        <ele>266.989</ele>
        <time>2013-06-24T16:40:35Z</time>
      </trkpt>
      <trkpt lat="44.57948" lon="2.2396">
        <ele>263.666</ele>
        <time>2013-06-24T16:41:01Z</time>
      </trkpt>
      <trkpt lat="44.57959" lon="2.23924">
        <ele>262.666</ele>
        <time>2013-06-24T16:41:25Z</time>
      </trkpt>
      <trkpt lat="44.5797" lon="2.23885">
        <ele>259.483</ele>
        <time>2013-06-24T16:41:52Z</time>
      </trkpt>
      <trkpt lat="44.57979" lon="2.23848">
        <ele>256.554</ele>
        <time>2013-06-24T16:42:17Z</time>
      </trkpt>
      <trkpt lat="44.57984" lon="2.23809">
        <ele>254.573</ele>
        <time>2013-06-24T16:42:44Z</time>
      </trkpt>
      <trkpt lat="44.57991" lon="2.238">
        <ele>253.028</ele>
        <time>2013-06-24T16:42:59Z</time>
      </trkpt>
      <trkpt lat="44.57997" lon="2.23791">
        <ele>252.231</ele>
        <time>2013-06-24T16:43:23Z</time>
      </trkpt>
      <trkpt lat="44.58" lon="2.23783">
        <ele>251.622</ele>
        <time>2013-06-24T16:43:30Z</time>
      </trkpt>
      <trkpt lat="44.58011" lon="2.23758">
        <ele>249.011</ele>
        <time>2013-06-24T16:43:52Z</time>
      </trkpt>
      <trkpt lat="44.58024" lon="2.23731">
        <ele>247.576</ele>
        <time>2013-06-24T16:44:14Z</time>
      </trkpt>
      <trkpt lat="44.58031" lon="2.23712">
        <ele>245.781</ele>
        <time>2013-06-24T16:44:34Z</time>
      </trkpt>
      <trkpt lat="44.58042" lon="2.23691">
        <ele>244.238</ele>
        <time>2013-06-24T16:44:52Z</time>
      </trkpt>
      <trkpt lat="44.58052" lon="2.23666">
        <ele>242.462</ele>
        <time>2013-06-24T16:45:11Z</time>
      </trkpt>
      <trkpt lat="44.58055" lon="2.23659">
        <ele>241.789</ele>
        <time>2013-06-24T16:45:17Z</time>
      </trkpt>
      <trkpt lat="44.58061" lon="2.23648">
        <ele>240.639</ele>
        <time>2013-06-24T16:45:28Z</time>
      </trkpt>
      <trkpt lat="44.58069" lon="2.23618">
        <ele>238.484</ele>
        <time>2013-06-24T16:45:48Z</time>
      </trkpt>
      <trkpt lat="44.58079" lon="2.23584">
        <ele>235.83</ele>
        <time>2013-06-24T16:46:10Z</time>
      </trkpt>
      <trkpt lat="44.58087" lon="2.23555">
        <ele>234.469</ele>
        <time>2013-06-24T16:46:30Z</time>
      </trkpt>
      <trkpt lat="44.581" lon="2.23525">
        <ele>231.618</ele>
        <time>2013-06-24T16:46:52Z</time>
      </trkpt>
      <trkpt lat="44.58114" lon="2.23499">
        <ele>229.246</ele>
        <time>2013-06-24T16:47:14Z</time>
      </trkpt>
      <trkpt lat="44.58126" lon="2.23475">
        <ele>227.222</ele>
        <time>2013-06-24T16:47:35Z</time>
      </trkpt>
      <trkpt lat="44.58139" lon="2.23459">
        <ele>225.815</ele>
        <time>2013-06-24T16:47:54Z</time>
      </trkpt>
      <trkpt lat="44.58151" lon="2.23435">
        <ele>224.138</ele>
        <time>2013-06-24T16:48:12Z</time>
      </trkpt>
      <trkpt lat="44.58165" lon="2.23412">
        <ele>222.477</ele>
        <time>2013-06-24T16:48:32Z</time>
      </trkpt>
      <trkpt lat="44.58179" lon="2.23385">
        <ele>220.387</ele>
        <time>2013-06-24T16:48:53Z</time>
      </trkpt>
      <trkpt lat="44.5819" lon="2.2336">
        <ele>219.397</ele>
        <time>2013-06-24T16:49:13Z</time>
      </trkpt>
      <trkpt lat="44.58192" lon="2.23362">
        <ele>218.738</ele>
        <time>2013-06-24T16:49:28Z</time>
      </trkpt>
      <trkpt lat="44.58192" lon="2.23354">
        <ele>218.527</ele>
        <time>2013-06-24T16:49:48Z</time>
      </trkpt>
      <trkpt lat="44.58191" lon="2.23358">
        <ele>218.569</ele>
        <time>2013-06-24T16:51:12Z</time>
      </trkpt>
      <trkpt lat="44.58199" lon="2.23347">
        <ele>218.811</ele>
        <time>2013-06-24T16:51:28Z</time>
      </trkpt>
      <trkpt lat="44.58215" lon="2.23322">
        <ele>218.131</ele>
        <time>2013-06-24T16:51:47Z</time>
      </trkpt>
      <trkpt lat="44.58227" lon="2.2331">
        <ele>217.069</ele>
        <time>2013-06-24T16:52:04Z</time>
      </trkpt>
      <trkpt lat="44.5824" lon="2.23296">
        <ele>215.569</ele>
        <time>2013-06-24T16:52:19Z</time>
      </trkpt>
      <trkpt lat="44.58258" lon="2.23274">
        <ele>213.63</ele>
        <time>2013-06-24T16:52:39Z</time>
      </trkpt>
      <trkpt lat="44.58272" lon="2.23255">
        <ele>212.716</ele>
        <time>2013-06-24T16:52:59Z</time>
      </trkpt>
      <trkpt lat="44.58285" lon="2.23244">
        <ele>211.213</ele>
        <time>2013-06-24T16:53:16Z</time>
      </trkpt>
      <trkpt lat="44.58307" lon="2.23228">
        <ele>209.732</ele>
        <time>2013-06-24T16:53:38Z</time>
      </trkpt>
      <trkpt lat="44.58328" lon="2.23214">
        <ele>209.129</ele>
        <time>2013-06-24T16:53:58Z</time>
      </trkpt>
      <trkpt lat="44.58347" lon="2.23199">
        <ele>208.041</ele>
        <time>2013-06-24T16:54:17Z</time>
      </trkpt>
      <trkpt lat="44.5837" lon="2.23178">
        <ele>207.087</ele>
        <time>2013-06-24T16:54:41Z</time>
      </trkpt>
      <trkpt lat="44.58389" lon="2.23135">
        <ele>205.511</ele>
        <time>2013-06-24T16:55:09Z</time>
      </trkpt>
      <trkpt lat="44.58393" lon="2.23103">
        <ele>204.138</ele>
        <time>2013-06-24T16:55:30Z</time>
      </trkpt>
      <trkpt lat="44.58394" lon="2.23098">
        <ele>204.312</ele>
        <time>2013-06-24T16:55:34Z</time>
      </trkpt>
      <trkpt lat="44.58402" lon="2.23065">
        <ele>202.887</ele>
        <time>2013-06-24T16:55:57Z</time>
      </trkpt>
      <trkpt lat="44.58406" lon="2.23047">
        <ele>202.262</ele>
        <time>2013-06-24T16:56:16Z</time>
      </trkpt>
      <trkpt lat="44.58414" lon="2.23032">
        <ele>202.171</ele>
        <time>2013-06-24T16:56:30Z</time>
      </trkpt>
      <trkpt lat="44.58428" lon="2.23008">
        <ele>199.81</ele>
        <time>2013-06-24T16:56:52Z</time>
      </trkpt>
      <trkpt lat="44.58442" lon="2.22979">
        <ele>198.565</ele>
        <time>2013-06-24T16:57:15Z</time>
      </trkpt>
      <trkpt lat="44.58449" lon="2.22963">
        <ele>197.221</ele>
        <time>2013-06-24T16:57:32Z</time>
      </trkpt>
      <trkpt lat="44.58452" lon="2.22958">
        <ele>197.035</ele>
        <time>2013-06-24T16:57:39Z</time>
      </trkpt>
      <trkpt lat="44.58476" lon="2.22975">
        <ele>196.302</ele>
        <time>2013-06-24T16:58:06Z</time>
      </trkpt>
      <trkpt lat="44.58492" lon="2.22988">
        <ele>196.475</ele>
        <time>2013-06-24T16:58:24Z</time>
      </trkpt>
      <trkpt lat="44.585" lon="2.22996">
        <ele>196.433</ele>
        <time>2013-06-24T16:58:39Z</time>
      </trkpt>
      <trkpt lat="44.58503" lon="2.22992">
        <ele>196.772</ele>
        <time>2013-06-24T16:59:02Z</time>
      </trkpt>
      <trkpt lat="44.585" lon="2.22991">
        <ele>196.958</ele>
        <time>2013-06-24T16:59:14Z</time>
      </trkpt>
      <trkpt lat="44.58482" lon="2.22978">
        <ele>196.62</ele>
        <time>2013-06-24T16:59:32Z</time>
      </trkpt>
      <trkpt lat="44.58462" lon="2.22958">
        <ele>196.333</ele>
        <time>2013-06-24T16:59:55Z</time>
      </trkpt>
      <trkpt lat="44.58459" lon="2.22952">
        <ele>196.484</ele>
        <time>2013-06-24T17:00:00Z</time>
      </trkpt>
      <trkpt lat="44.58472" lon="2.22919">
        <ele>196.035</ele>
        <time>2013-06-24T17:00:24Z</time>
      </trkpt>
      <trkpt lat="44.58493" lon="2.22884">
        <ele>196.48</ele>
        <time>2013-06-24T17:00:53Z</time>
      </trkpt>
      <trkpt lat="44.58511" lon="2.22875">
        <ele>196.698</ele>
        <time>2013-06-24T17:01:12Z</time>
      </trkpt>
      <trkpt lat="44.58529" lon="2.22875">
        <ele>196.798</ele>
        <time>2013-06-24T17:01:34Z</time>
      </trkpt>
      <trkpt lat="44.58542" lon="2.22882">
        <ele>197.282</ele>
        <time>2013-06-24T17:01:50Z</time>
      </trkpt>
      <trkpt lat="44.58553" lon="2.22898">
        <ele>197.723</ele>
        <time>2013-06-24T17:02:07Z</time>
      </trkpt>
      <trkpt lat="44.58568" lon="2.22903">
        <ele>198.166</ele>
        <time>2013-06-24T17:02:25Z</time>
      </trkpt>
      <trkpt lat="44.58578" lon="2.22904">
        <ele>198.254</ele>
        <time>2013-06-24T17:02:41Z</time>
      </trkpt>
      <trkpt lat="44.58606" lon="2.22919">
        <ele>197.916</ele>
        <time>2013-06-24T17:03:07Z</time>
      </trkpt>
      <trkpt lat="44.58632" lon="2.22934">
        <ele>197.595</ele>
        <time>2013-06-24T17:03:33Z</time>
      </trkpt>
      <trkpt lat="44.58656" lon="2.22946">
        <ele>196.9</ele>
        <time>2013-06-24T17:03:56Z</time>
      </trkpt>
      <trkpt lat="44.58682" lon="2.22964">
        <ele>196.201</ele>
        <time>2013-06-24T17:04:24Z</time>
      </trkpt>
      <trkpt lat="44.58685" lon="2.22968">
        <ele>196.056</ele>
        <time>2013-06-24T17:04:46Z</time>
      </trkpt>
      <trkpt lat="44.58695" lon="2.22978">
        <ele>196.39</ele>
        <time>2013-06-24T17:05:02Z</time>
      </trkpt>
      <trkpt lat="44.58716" lon="2.23011">
        <ele>194.899</ele>
        <time>2013-06-24T17:05:32Z</time>
      </trkpt>
      <trkpt lat="44.58727" lon="2.23043">
        <ele>193.619</ele>
        <time>2013-06-24T17:05:58Z</time>
      </trkpt>
      <trkpt lat="44.58744" lon="2.23076">
        <ele>193.126</ele>
        <time>2013-06-24T17:06:25Z</time>
      </trkpt>
      <trkpt lat="44.5875" lon="2.23099">
        <ele>192.806</ele>
        <time>2013-06-24T17:06:49Z</time>
      </trkpt>
      <trkpt lat="44.58759" lon="2.23102">
        <ele>192.415</ele>
        <time>2013-06-24T17:07:09Z</time>
      </trkpt>
      <trkpt lat="44.58758" lon="2.23105">
        <ele>192.483</ele>
        <time>2013-06-24T17:07:36Z</time>
      </trkpt>
      <trkpt lat="44.58763" lon="2.23094">
        <ele>192.488</ele>
        <time>2013-06-24T17:08:10Z</time>
      </trkpt>
      <trkpt lat="44.58779" lon="2.23107">
        <ele>192.498</ele>
        <time>2013-06-24T17:08:29Z</time>
      </trkpt>
      <trkpt lat="44.588" lon="2.23117">
        <ele>192.648</ele>
        <time>2013-06-24T17:08:47Z</time>
      </trkpt>
      <trkpt lat="44.58816" lon="2.23134">
        <ele>192.771</ele>
        <time>2013-06-24T17:09:06Z</time>
      </trkpt>
      <trkpt lat="44.58826" lon="2.23145">
        <ele>192.823</ele>
        <time>2013-06-24T17:09:18Z</time>
      </trkpt>
      <trkpt lat="44.58848" lon="2.23161">
        <ele>193.772</ele>
        <time>2013-06-24T17:09:42Z</time>
      </trkpt>
      <trkpt lat="44.58873" lon="2.23172">
        <ele>194.604</ele>
        <time>2013-06-24T17:10:07Z</time>
      </trkpt>
      <trkpt lat="44.58889" lon="2.23187">
        <ele>196.128</ele>
        <time>2013-06-24T17:10:28Z</time>
      </trkpt>
      <trkpt lat="44.589" lon="2.232">
        <ele>196.867</ele>
        <time>2013-06-24T17:10:45Z</time>
      </trkpt>
      <trkpt lat="44.58912" lon="2.23222">
        <ele>198.05</ele>
        <time>2013-06-24T17:11:06Z</time>
      </trkpt>
      <trkpt lat="44.5892" lon="2.2323">
        <ele>198.665</ele>
        <time>2013-06-24T17:11:24Z</time>
      </trkpt>
      <trkpt lat="44.58929" lon="2.23236">
        <ele>199.582</ele>
        <time>2013-06-24T17:11:36Z</time>
      </trkpt>
      <trkpt lat="44.58941" lon="2.23241">
        <ele>200.898</ele>
        <time>2013-06-24T17:11:52Z</time>
      </trkpt>
      <trkpt lat="44.58959" lon="2.23245">
        <ele>202.058</ele>
        <time>2013-06-24T17:12:09Z</time>
      </trkpt>
      <trkpt lat="44.5898" lon="2.23242">
        <ele>203.859</ele>
        <time>2013-06-24T17:12:30Z</time>
      </trkpt>
      <trkpt lat="44.59003" lon="2.23243">
        <ele>205.425</ele>
        <time>2013-06-24T17:12:54Z</time>
      </trkpt>
      <trkpt lat="44.59018" lon="2.23247">
        <ele>207.705</ele>
        <time>2013-06-24T17:13:14Z</time>
      </trkpt>
      <trkpt lat="44.59038" lon="2.23244">
        <ele>210.1</ele>
        <time>2013-06-24T17:13:36Z</time>
      </trkpt>
      <trkpt lat="44.59055" lon="2.23237">
        <ele>211.513</ele>
        <time>2013-06-24T17:13:54Z</time>
      </trkpt>
      <trkpt lat="44.59062" lon="2.23236">
        <ele>212.488</ele>
        <time>2013-06-24T17:14:07Z</time>
      </trkpt>
      <trkpt lat="44.59074" lon="2.23232">
        <ele>213.525</ele>
        <time>2013-06-24T17:14:20Z</time>
      </trkpt>
      <trkpt lat="44.59089" lon="2.23225">
        <ele>215.59</ele>
        <time>2013-06-24T17:14:36Z</time>
      </trkpt>
      <trkpt lat="44.59103" lon="2.23217">
        <ele>217.193</ele>
        <time>2013-06-24T17:14:52Z</time>
      </trkpt>
      <trkpt lat="44.59114" lon="2.23201">
        <ele>219.453</ele>
        <time>2013-06-24T17:15:10Z</time>
      </trkpt>
      <trkpt lat="44.59119" lon="2.23193">
        <ele>220.308</ele>
        <time>2013-06-24T17:15:19Z</time>
      </trkpt>
      <trkpt lat="44.59126" lon="2.23172">
        <ele>221.365</ele>
        <time>2013-06-24T17:15:37Z</time>
      </trkpt>
      <trkpt lat="44.59138" lon="2.2316">
        <ele>222.292</ele>
        <time>2013-06-24T17:15:54Z</time>
      </trkpt>
      <trkpt lat="44.59144" lon="2.23153">
        <ele>223.34</ele>
        <time>2013-06-24T17:16:13Z</time>
      </trkpt>
      <trkpt lat="44.59142" lon="2.23143">
        <ele>223.36</ele>
        <time>2013-06-24T17:17:46Z</time>
      </trkpt>
      <trkpt lat="44.5914" lon="2.23142">
        <ele>223.535</ele>
        <time>2013-06-24T17:18:39Z</time>
      </trkpt>
      <trkpt lat="44.59138" lon="2.23143">
        <ele>223.675</ele>
        <time>2013-06-24T17:19:48Z</time>
      </trkpt>
      <trkpt lat="44.59137" lon="2.23139">
        <ele>223.98</ele>
        <time>2013-06-24T17:21:43Z</time>
      </trkpt>
      <trkpt lat="44.59149" lon="2.23128">
        <ele>224.587</ele>
        <time>2013-06-24T17:22:03Z</time>
      </trkpt>
      <trkpt lat="44.59151" lon="2.23127">
        <ele>224.842</ele>
        <time>2013-06-24T17:22:17Z</time>
      </trkpt>
      <trkpt lat="44.59152" lon="2.23132">
        <ele>224.488</ele>
        <time>2013-06-24T17:22:34Z</time>
      </trkpt>
      <trkpt lat="44.59144" lon="2.23125">
        <ele>225.193</ele>
        <time>2013-06-24T17:22:53Z</time>
      </trkpt>
      <trkpt lat="44.59153" lon="2.23098">
        <ele>225.017</ele>
        <time>2013-06-24T17:23:14Z</time>
      </trkpt>
      <trkpt lat="44.59152" lon="2.23098">
        <ele>225.035</ele>
        <time>2013-06-24T17:23:21Z</time>
      </trkpt>
      <trkpt lat="44.59131" lon="2.23093">
        <ele>225.143</ele>
        <time>2013-06-24T17:23:34Z</time>
      </trkpt>
    </trkseg>
  </trk>
  <trk>
    <name><![CDATA[ACTIVE LOG192402]]></name>
    <trkseg>
      <trkpt lat="44.59112" lon="2.23089">
        <ele>225.127</ele>
        <time>2013-06-24T17:24:02Z</time>
      </trkpt>
    </trkseg>
  </trk>
  <trk>
    <name><![CDATA[ACTIVE LOG192532]]></name>
    <trkseg>
      <trkpt lat="44.5915" lon="2.23092">
        <ele>224.707</ele>
        <time>2013-06-24T17:25:32Z</time>
      </trkpt>
      <trkpt lat="44.59153" lon="2.23093">
        <ele>225.284</ele>
        <time>2013-06-24T17:25:45Z</time>
      </trkpt>
      <trkpt lat="44.59152" lon="2.23097">
        <ele>225.659</ele>
        <time>2013-06-24T17:25:49Z</time>
      </trkpt>
      <trkpt lat="44.59155" lon="2.23107">
        <ele>225.067</ele>
        <time>2013-06-24T17:26:02Z</time>
      </trkpt>
      <trkpt lat="44.59153" lon="2.23106">
        <ele>225.149</ele>
        <time>2013-06-24T17:26:04Z</time>
      </trkpt>
      <trkpt lat="44.59153" lon="2.23097">
        <ele>225.287</ele>
        <time>2013-06-24T17:26:15Z</time>
      </trkpt>
      <trkpt lat="44.59159" lon="2.23091">
        <ele>225.007</ele>
        <time>2013-06-24T17:26:38Z</time>
      </trkpt>
      <trkpt lat="44.5916" lon="2.23097">
        <ele>223.346</ele>
        <time>2013-06-24T17:26:50Z</time>
      </trkpt>
      <trkpt lat="44.59146" lon="2.23123">
        <ele>223.441</ele>
        <time>2013-06-24T17:27:03Z</time>
      </trkpt>
      <trkpt lat="44.59118" lon="2.23163">
        <ele>223.532</ele>
        <time>2013-06-24T17:27:21Z</time>
      </trkpt>
    </trkseg>
  </trk>
  <trk>
    <name><![CDATA[ACTIVE LOG192746]]></name>
    <trkseg>
      <trkpt lat="44.59083" lon="2.2322">
        <ele>223.83</ele>
        <time>2013-06-24T17:27:46Z</time>
      </trkpt>
    </trkseg>
  </trk>
  <trk>
    <name><![CDATA[ACTIVE LOG192757]]></name>
    <trkseg>
      <trkpt lat="44.59063" lon="2.23258">
        <ele>223.92</ele>
        <time>2013-06-24T17:27:57Z</time>
      </trkpt>
      <trkpt lat="44.59078" lon="2.23233">
        <ele>225.341</ele>
        <time>2013-06-24T17:28:22Z</time>
      </trkpt>
      <trkpt lat="44.59097" lon="2.23215">
        <ele>224.212</ele>
        <time>2013-06-24T17:28:25Z</time>
      </trkpt>
      <trkpt lat="44.59104" lon="2.23203">
        <ele>224.356</ele>
        <time>2013-06-24T17:28:35Z</time>
      </trkpt>
      <trkpt lat="44.59156" lon="2.23093">
        <ele>226.672</ele>
        <time>2013-06-24T17:28:48Z</time>
      </trkpt>
      <trkpt lat="44.5915" lon="2.231">
        <ele>227.749</ele>
        <time>2013-06-24T17:28:57Z</time>
      </trkpt>
      <trkpt lat="44.59147" lon="2.23101">
        <ele>229.256</ele>
        <time>2013-06-24T17:29:01Z</time>
      </trkpt>
      <trkpt lat="44.59154" lon="2.231">
        <ele>228.476</ele>
        <time>2013-06-24T17:29:16Z</time>
      </trkpt>
      <trkpt lat="44.59148" lon="2.23101">
        <ele>228.823</ele>
        <time>2013-06-24T17:29:32Z</time>
      </trkpt>
      <trkpt lat="44.59157" lon="2.23103">
        <ele>228.467</ele>
        <time>2013-06-24T17:29:42Z</time>
      </trkpt>
      <trkpt lat="44.59152" lon="2.23102">
        <ele>227.785</ele>
        <time>2013-06-24T17:29:54Z</time>
      </trkpt>
      <trkpt lat="44.59147" lon="2.23104">
        <ele>227.389</ele>
        <time>2013-06-24T17:30:07Z</time>
      </trkpt>
      <trkpt lat="44.59156" lon="2.23106">
        <ele>227.043</ele>
        <time>2013-06-24T17:30:17Z</time>
      </trkpt>
      <trkpt lat="44.59154" lon="2.23107">
        <ele>227.127</ele>
        <time>2013-06-24T17:30:31Z</time>
      </trkpt>
      <trkpt lat="44.59146" lon="2.23107">
        <ele>226.333</ele>
        <time>2013-06-24T17:30:42Z</time>
      </trkpt>
      <trkpt lat="44.59149" lon="2.23108">
        <ele>226.874</ele>
        <time>2013-06-24T17:31:05Z</time>
      </trkpt>
      <trkpt lat="44.59152" lon="2.2311">
        <ele>227.034</ele>
        <time>2013-06-24T17:31:19Z</time>
      </trkpt>
      <trkpt lat="44.5915" lon="2.23104">
        <ele>227.137</ele>
        <time>2013-06-24T17:31:46Z</time>
      </trkpt>
      <trkpt lat="44.59154" lon="2.23097">
        <ele>228.164</ele>
        <time>2013-06-24T17:32:02Z</time>
      </trkpt>
      <trkpt lat="44.59153" lon="2.23101">
        <ele>226.834</ele>
        <time>2013-06-24T17:32:04Z</time>
      </trkpt>
      <trkpt lat="44.59151" lon="2.23107">
        <ele>227.398</ele>
        <time>2013-06-24T17:32:16Z</time>
      </trkpt>
      <trkpt lat="44.59155" lon="2.23107">
        <ele>227.844</ele>
        <time>2013-06-24T17:32:27Z</time>
      </trkpt>
      <trkpt lat="44.59157" lon="2.23107">
        <ele>228.409</ele>
        <time>2013-06-24T17:32:33Z</time>
      </trkpt>
    </trkseg>
  </trk>
</gpx>